<?xml version="1.0" encoding="UTF-8" standalone="no" ?>
<gpx xmlns="http://www.topografix.com/GPX/1/1" xmlns:xsi="http://www.w3.org/2001/XMLSchema-instance" xsi:schemaLocation="http://www.topografix.com/GPX/1/1 http://www.topografix.com/GPX/1/1/gpx.xsd" version="1.1" creator="VisuGPX - https://www.visugpx.com">
  <metadata>
    <name>Ste Victoire (Bimont, Zola, ancien barrage romain)_30 novembre 2022</name>
    <desc><![CDATA[Boucle de 13.5 km, dénivelé cumulé 450 m]]></desc>
  </metadata>
  <trk>
    <name><![CDATA[Randonnée le 30 novembre 2022 à 10:04]]></name>
    <trkseg>
      <trkpt lat="43.52224" lon="5.51164">
        <ele>184.58517</ele>
        <time>2022-11-30T09:04:12.071Z</time>
      </trkpt>
      <trkpt lat="43.52223" lon="5.51161">
        <ele>184.58186</ele>
        <time>2022-11-30T09:04:14.000Z</time>
      </trkpt>
      <trkpt lat="43.52221" lon="5.51159">
        <ele>184.56808</ele>
        <time>2022-11-30T09:04:17.000Z</time>
      </trkpt>
      <trkpt lat="43.5222" lon="5.51155">
        <ele>184.54392</ele>
        <time>2022-11-30T09:04:20.000Z</time>
      </trkpt>
      <trkpt lat="43.5222" lon="5.5115">
        <ele>184.47456</ele>
        <time>2022-11-30T09:04:25.000Z</time>
      </trkpt>
      <trkpt lat="43.52219" lon="5.51144">
        <ele>184.40814</ele>
        <time>2022-11-30T09:04:30.000Z</time>
      </trkpt>
      <trkpt lat="43.52215" lon="5.51138">
        <ele>184.32689</ele>
        <time>2022-11-30T09:04:35.999Z</time>
      </trkpt>
      <trkpt lat="43.52215" lon="5.51134">
        <ele>184.23143</ele>
        <time>2022-11-30T09:04:38.999Z</time>
      </trkpt>
      <trkpt lat="43.52213" lon="5.51131">
        <ele>184.17374</ele>
        <time>2022-11-30T09:04:41.999Z</time>
      </trkpt>
      <trkpt lat="43.52215" lon="5.51127">
        <ele>184.11229</ele>
        <time>2022-11-30T09:04:45.999Z</time>
      </trkpt>
      <trkpt lat="43.52216" lon="5.51124">
        <ele>184.04151</ele>
        <time>2022-11-30T09:04:47.999Z</time>
      </trkpt>
      <trkpt lat="43.52217" lon="5.51117">
        <ele>183.89816</ele>
        <time>2022-11-30T09:05:04.998Z</time>
      </trkpt>
      <trkpt lat="43.52217" lon="5.51113">
        <ele>183.82221</ele>
        <time>2022-11-30T09:05:09.998Z</time>
      </trkpt>
      <trkpt lat="43.52216" lon="5.5111">
        <ele>183.74562</ele>
        <time>2022-11-30T09:05:13.997Z</time>
      </trkpt>
      <trkpt lat="43.52215" lon="5.51107">
        <ele>183.64215</ele>
        <time>2022-11-30T09:05:20.997Z</time>
      </trkpt>
      <trkpt lat="43.5222" lon="5.51095">
        <ele>183.25015</ele>
        <time>2022-11-30T09:05:31.997Z</time>
      </trkpt>
      <trkpt lat="43.52222" lon="5.51092">
        <ele>183.13213</ele>
        <time>2022-11-30T09:05:34.996Z</time>
      </trkpt>
      <trkpt lat="43.52224" lon="5.51086">
        <ele>182.84661</ele>
        <time>2022-11-30T09:05:42.996Z</time>
      </trkpt>
      <trkpt lat="43.52226" lon="5.51082">
        <ele>182.6908</ele>
        <time>2022-11-30T09:05:47.996Z</time>
      </trkpt>
      <trkpt lat="43.52229" lon="5.51075">
        <ele>182.35005</ele>
        <time>2022-11-30T09:05:53.995Z</time>
      </trkpt>
      <trkpt lat="43.52231" lon="5.51072">
        <ele>182.17559</ele>
        <time>2022-11-30T09:05:58.995Z</time>
      </trkpt>
      <trkpt lat="43.52232" lon="5.51068">
        <ele>182.00844</ele>
        <time>2022-11-30T09:06:00.995Z</time>
      </trkpt>
      <trkpt lat="43.52233" lon="5.51065">
        <ele>181.8235</ele>
        <time>2022-11-30T09:06:05.995Z</time>
      </trkpt>
      <trkpt lat="43.52235" lon="5.51062">
        <ele>181.659</ele>
        <time>2022-11-30T09:06:08.995Z</time>
      </trkpt>
      <trkpt lat="43.52236" lon="5.51058">
        <ele>181.50911</ele>
        <time>2022-11-30T09:06:10.995Z</time>
      </trkpt>
      <trkpt lat="43.52236" lon="5.51051">
        <ele>181.16822</ele>
        <time>2022-11-30T09:06:14.994Z</time>
      </trkpt>
      <trkpt lat="43.52235" lon="5.51047">
        <ele>181.03786</ele>
        <time>2022-11-30T09:06:18.000Z</time>
      </trkpt>
      <trkpt lat="43.52235" lon="5.51043">
        <ele>180.89464</ele>
        <time>2022-11-30T09:06:21.000Z</time>
      </trkpt>
      <trkpt lat="43.52236" lon="5.51034">
        <ele>180.59039</ele>
        <time>2022-11-30T09:06:27.000Z</time>
      </trkpt>
      <trkpt lat="43.5224" lon="5.51024">
        <ele>180.26925</ele>
        <time>2022-11-30T09:06:36.000Z</time>
      </trkpt>
      <trkpt lat="43.52241" lon="5.51019">
        <ele>180.17362</ele>
        <time>2022-11-30T09:06:38.999Z</time>
      </trkpt>
      <trkpt lat="43.52243" lon="5.51013">
        <ele>180.02301</ele>
        <time>2022-11-30T09:06:42.999Z</time>
      </trkpt>
      <trkpt lat="43.52245" lon="5.51011">
        <ele>179.96901</ele>
        <time>2022-11-30T09:06:45.999Z</time>
      </trkpt>
      <trkpt lat="43.52247" lon="5.51003">
        <ele>179.84981</ele>
        <time>2022-11-30T09:06:49.999Z</time>
      </trkpt>
      <trkpt lat="43.52247" lon="5.51">
        <ele>179.80703</ele>
        <time>2022-11-30T09:06:51.999Z</time>
      </trkpt>
      <trkpt lat="43.52252" lon="5.50985">
        <ele>179.5495</ele>
        <time>2022-11-30T09:07:02.998Z</time>
      </trkpt>
      <trkpt lat="43.5225" lon="5.50978">
        <ele>179.45327</ele>
        <time>2022-11-30T09:07:11.998Z</time>
      </trkpt>
      <trkpt lat="43.52251" lon="5.50974">
        <ele>179.42475</ele>
        <time>2022-11-30T09:07:15.998Z</time>
      </trkpt>
      <trkpt lat="43.52252" lon="5.50967">
        <ele>179.3711</ele>
        <time>2022-11-30T09:07:19.997Z</time>
      </trkpt>
      <trkpt lat="43.52252" lon="5.5096">
        <ele>179.33366</ele>
        <time>2022-11-30T09:07:24.997Z</time>
      </trkpt>
      <trkpt lat="43.52256" lon="5.50948">
        <ele>179.28894</ele>
        <time>2022-11-30T09:07:32.997Z</time>
      </trkpt>
      <trkpt lat="43.52256" lon="5.50945">
        <ele>179.26162</ele>
        <time>2022-11-30T09:07:34.997Z</time>
      </trkpt>
      <trkpt lat="43.52259" lon="5.50941">
        <ele>179.25139</ele>
        <time>2022-11-30T09:07:36.997Z</time>
      </trkpt>
      <trkpt lat="43.5226" lon="5.50922">
        <ele>179.16555</ele>
        <time>2022-11-30T09:07:47.996Z</time>
      </trkpt>
      <trkpt lat="43.5226" lon="5.50911">
        <ele>179.14272</ele>
        <time>2022-11-30T09:07:54.996Z</time>
      </trkpt>
      <trkpt lat="43.52261" lon="5.50903">
        <ele>179.12425</ele>
        <time>2022-11-30T09:08:00.995Z</time>
      </trkpt>
      <trkpt lat="43.5226" lon="5.50891">
        <ele>179.09709</ele>
        <time>2022-11-30T09:08:09.995Z</time>
      </trkpt>
      <trkpt lat="43.52261" lon="5.50888">
        <ele>179.09498</ele>
        <time>2022-11-30T09:08:12.995Z</time>
      </trkpt>
      <trkpt lat="43.5226" lon="5.5088">
        <ele>179.0902</ele>
        <time>2022-11-30T09:08:17.995Z</time>
      </trkpt>
      <trkpt lat="43.52257" lon="5.50865">
        <ele>179.08112</ele>
        <time>2022-11-30T09:08:27.000Z</time>
      </trkpt>
      <trkpt lat="43.52255" lon="5.50858">
        <ele>179.08743</ele>
        <time>2022-11-30T09:08:33.000Z</time>
      </trkpt>
      <trkpt lat="43.52252" lon="5.50851">
        <ele>179.0925</ele>
        <time>2022-11-30T09:08:38.000Z</time>
      </trkpt>
      <trkpt lat="43.52252" lon="5.50847">
        <ele>179.09141</ele>
        <time>2022-11-30T09:08:41.000Z</time>
      </trkpt>
      <trkpt lat="43.5225" lon="5.5084">
        <ele>179.08156</ele>
        <time>2022-11-30T09:08:46.000Z</time>
      </trkpt>
      <trkpt lat="43.52249" lon="5.5083">
        <ele>179.07243</ele>
        <time>2022-11-30T09:08:50.999Z</time>
      </trkpt>
      <trkpt lat="43.52245" lon="5.50823">
        <ele>179.05819</ele>
        <time>2022-11-30T09:08:56.999Z</time>
      </trkpt>
      <trkpt lat="43.52244" lon="5.50816">
        <ele>179.0507</ele>
        <time>2022-11-30T09:09:00.999Z</time>
      </trkpt>
      <trkpt lat="43.52241" lon="5.5081">
        <ele>179.04617</ele>
        <time>2022-11-30T09:09:05.998Z</time>
      </trkpt>
      <trkpt lat="43.52238" lon="5.50799">
        <ele>179.03669</ele>
        <time>2022-11-30T09:09:12.998Z</time>
      </trkpt>
      <trkpt lat="43.52235" lon="5.50793">
        <ele>179.02621</ele>
        <time>2022-11-30T09:09:17.998Z</time>
      </trkpt>
      <trkpt lat="43.5223" lon="5.50773">
        <ele>179.00639</ele>
        <time>2022-11-30T09:09:29.997Z</time>
      </trkpt>
      <trkpt lat="43.52223" lon="5.50751">
        <ele>178.99409</ele>
        <time>2022-11-30T09:09:43.997Z</time>
      </trkpt>
      <trkpt lat="43.52219" lon="5.50733">
        <ele>178.9928</ele>
        <time>2022-11-30T09:09:55.996Z</time>
      </trkpt>
      <trkpt lat="43.52217" lon="5.5073">
        <ele>178.99538</ele>
        <time>2022-11-30T09:09:57.996Z</time>
      </trkpt>
      <trkpt lat="43.52212" lon="5.50707">
        <ele>179.04394</ele>
        <time>2022-11-30T09:10:11.995Z</time>
      </trkpt>
      <trkpt lat="43.52211" lon="5.50697">
        <ele>179.07502</ele>
        <time>2022-11-30T09:10:18.995Z</time>
      </trkpt>
      <trkpt lat="43.5221" lon="5.50691">
        <ele>179.09694</ele>
        <time>2022-11-30T09:10:22.995Z</time>
      </trkpt>
      <trkpt lat="43.52208" lon="5.50674">
        <ele>179.16075</ele>
        <time>2022-11-30T09:10:34.000Z</time>
      </trkpt>
      <trkpt lat="43.52209" lon="5.5066">
        <ele>179.28145</ele>
        <time>2022-11-30T09:10:42.000Z</time>
      </trkpt>
      <trkpt lat="43.52208" lon="5.50652">
        <ele>179.35926</ele>
        <time>2022-11-30T09:10:47.000Z</time>
      </trkpt>
      <trkpt lat="43.52209" lon="5.50644">
        <ele>179.44556</ele>
        <time>2022-11-30T09:10:53.000Z</time>
      </trkpt>
      <trkpt lat="43.52212" lon="5.50633">
        <ele>179.62802</ele>
        <time>2022-11-30T09:11:00.999Z</time>
      </trkpt>
      <trkpt lat="43.52214" lon="5.50627">
        <ele>179.76623</ele>
        <time>2022-11-30T09:11:06.999Z</time>
      </trkpt>
      <trkpt lat="43.52216" lon="5.50618">
        <ele>179.89718</ele>
        <time>2022-11-30T09:11:12.998Z</time>
      </trkpt>
      <trkpt lat="43.52217" lon="5.50614">
        <ele>179.98045</ele>
        <time>2022-11-30T09:11:15.998Z</time>
      </trkpt>
      <trkpt lat="43.52224" lon="5.50608">
        <ele>180.1589</ele>
        <time>2022-11-30T09:11:24.998Z</time>
      </trkpt>
      <trkpt lat="43.52233" lon="5.50609">
        <ele>180.3662</ele>
        <time>2022-11-30T09:11:33.997Z</time>
      </trkpt>
      <trkpt lat="43.5224" lon="5.5061">
        <ele>180.58316</ele>
        <time>2022-11-30T09:11:39.997Z</time>
      </trkpt>
      <trkpt lat="43.52243" lon="5.5061">
        <ele>180.71778</ele>
        <time>2022-11-30T09:11:41.997Z</time>
      </trkpt>
      <trkpt lat="43.52245" lon="5.5061">
        <ele>180.8345</ele>
        <time>2022-11-30T09:11:44.997Z</time>
      </trkpt>
      <trkpt lat="43.52249" lon="5.50609">
        <ele>180.99241</ele>
        <time>2022-11-30T09:11:47.997Z</time>
      </trkpt>
      <trkpt lat="43.52254" lon="5.50612">
        <ele>181.40289</ele>
        <time>2022-11-30T09:11:53.996Z</time>
      </trkpt>
      <trkpt lat="43.52265" lon="5.50614">
        <ele>182.3729</ele>
        <time>2022-11-30T09:12:02.996Z</time>
      </trkpt>
      <trkpt lat="43.52278" lon="5.50621">
        <ele>183.83226</ele>
        <time>2022-11-30T09:12:14.995Z</time>
      </trkpt>
      <trkpt lat="43.52287" lon="5.50625">
        <ele>184.64748</ele>
        <time>2022-11-30T09:12:21.995Z</time>
      </trkpt>
      <trkpt lat="43.52301" lon="5.50635">
        <ele>185.81853</ele>
        <time>2022-11-30T09:12:35.000Z</time>
      </trkpt>
      <trkpt lat="43.52308" lon="5.5064">
        <ele>186.31777</ele>
        <time>2022-11-30T09:12:42.000Z</time>
      </trkpt>
      <trkpt lat="43.52311" lon="5.50643">
        <ele>186.45788</ele>
        <time>2022-11-30T09:12:46.000Z</time>
      </trkpt>
      <trkpt lat="43.52316" lon="5.50646">
        <ele>186.76521</ele>
        <time>2022-11-30T09:12:51.000Z</time>
      </trkpt>
      <trkpt lat="43.52318" lon="5.50647">
        <ele>186.90025</ele>
        <time>2022-11-30T09:12:53.000Z</time>
      </trkpt>
      <trkpt lat="43.52322" lon="5.5065">
        <ele>187.23374</ele>
        <time>2022-11-30T09:12:57.000Z</time>
      </trkpt>
      <trkpt lat="43.52325" lon="5.5065">
        <ele>187.71334</ele>
        <time>2022-11-30T09:12:59.999Z</time>
      </trkpt>
      <trkpt lat="43.52335" lon="5.50657">
        <ele>188.07959</ele>
        <time>2022-11-30T09:13:09.999Z</time>
      </trkpt>
      <trkpt lat="43.52337" lon="5.50657">
        <ele>188.23952</ele>
        <time>2022-11-30T09:13:17.999Z</time>
      </trkpt>
      <trkpt lat="43.52339" lon="5.50659">
        <ele>188.3239</ele>
        <time>2022-11-30T09:13:25.998Z</time>
      </trkpt>
      <trkpt lat="43.52342" lon="5.5066">
        <ele>188.4018</ele>
        <time>2022-11-30T09:13:29.998Z</time>
      </trkpt>
      <trkpt lat="43.52344" lon="5.50662">
        <ele>188.48418</ele>
        <time>2022-11-30T09:13:32.998Z</time>
      </trkpt>
      <trkpt lat="43.52349" lon="5.50665">
        <ele>188.63149</ele>
        <time>2022-11-30T09:13:38.998Z</time>
      </trkpt>
      <trkpt lat="43.52362" lon="5.50675">
        <ele>189.11227</ele>
        <time>2022-11-30T09:13:51.997Z</time>
      </trkpt>
      <trkpt lat="43.52364" lon="5.50677">
        <ele>189.22726</ele>
        <time>2022-11-30T09:13:53.997Z</time>
      </trkpt>
      <trkpt lat="43.52368" lon="5.50681">
        <ele>189.49435</ele>
        <time>2022-11-30T09:13:58.997Z</time>
      </trkpt>
      <trkpt lat="43.52371" lon="5.50682">
        <ele>189.63873</ele>
        <time>2022-11-30T09:14:01.996Z</time>
      </trkpt>
      <trkpt lat="43.52381" lon="5.5067">
        <ele>190.6594</ele>
        <time>2022-11-30T09:14:13.996Z</time>
      </trkpt>
      <trkpt lat="43.52385" lon="5.5066">
        <ele>192.12172</ele>
        <time>2022-11-30T09:14:22.995Z</time>
      </trkpt>
      <trkpt lat="43.52389" lon="5.50651">
        <ele>193.94304</ele>
        <time>2022-11-30T09:14:30.995Z</time>
      </trkpt>
      <trkpt lat="43.52392" lon="5.50641">
        <ele>195.43589</ele>
        <time>2022-11-30T09:14:38.995Z</time>
      </trkpt>
      <trkpt lat="43.52391" lon="5.50638">
        <ele>195.8754</ele>
        <time>2022-11-30T09:14:42.994Z</time>
      </trkpt>
      <trkpt lat="43.5239" lon="5.50633">
        <ele>196.21849</ele>
        <time>2022-11-30T09:14:51.994Z</time>
      </trkpt>
      <trkpt lat="43.5239" lon="5.50629">
        <ele>196.62939</ele>
        <time>2022-11-30T09:15:08.993Z</time>
      </trkpt>
      <trkpt lat="43.52392" lon="5.50618">
        <ele>197.72246</ele>
        <time>2022-11-30T09:15:20.992Z</time>
      </trkpt>
      <trkpt lat="43.52395" lon="5.50604">
        <ele>199.41324</ele>
        <time>2022-11-30T09:15:34.992Z</time>
      </trkpt>
      <trkpt lat="43.52398" lon="5.50594">
        <ele>200.50336</ele>
        <time>2022-11-30T09:15:43.991Z</time>
      </trkpt>
      <trkpt lat="43.524" lon="5.5059">
        <ele>200.84216</ele>
        <time>2022-11-30T09:15:46.991Z</time>
      </trkpt>
      <trkpt lat="43.52402" lon="5.50577">
        <ele>201.91355</ele>
        <time>2022-11-30T09:15:56.991Z</time>
      </trkpt>
      <trkpt lat="43.52406" lon="5.50566">
        <ele>202.30997</ele>
        <time>2022-11-30T09:16:04.990Z</time>
      </trkpt>
      <trkpt lat="43.52406" lon="5.50562">
        <ele>202.36861</ele>
        <time>2022-11-30T09:16:07.990Z</time>
      </trkpt>
      <trkpt lat="43.52408" lon="5.50559">
        <ele>202.40377</ele>
        <time>2022-11-30T09:16:10.990Z</time>
      </trkpt>
      <trkpt lat="43.52409" lon="5.50548">
        <ele>202.37938</ele>
        <time>2022-11-30T09:16:19.989Z</time>
      </trkpt>
      <trkpt lat="43.5241" lon="5.50542">
        <ele>202.34526</ele>
        <time>2022-11-30T09:16:26.989Z</time>
      </trkpt>
      <trkpt lat="43.52408" lon="5.50539">
        <ele>202.24154</ele>
        <time>2022-11-30T09:16:36.989Z</time>
      </trkpt>
      <trkpt lat="43.5241" lon="5.50524">
        <ele>201.69468</ele>
        <time>2022-11-30T09:16:46.988Z</time>
      </trkpt>
      <trkpt lat="43.5241" lon="5.5052">
        <ele>201.54634</ele>
        <time>2022-11-30T09:16:48.988Z</time>
      </trkpt>
      <trkpt lat="43.52413" lon="5.50508">
        <ele>201.22083</ele>
        <time>2022-11-30T09:16:56.988Z</time>
      </trkpt>
      <trkpt lat="43.52417" lon="5.50495">
        <ele>200.97162</ele>
        <time>2022-11-30T09:17:05.987Z</time>
      </trkpt>
      <trkpt lat="43.52423" lon="5.50485">
        <ele>200.96119</ele>
        <time>2022-11-30T09:17:13.987Z</time>
      </trkpt>
      <trkpt lat="43.52424" lon="5.50482">
        <ele>200.99606</ele>
        <time>2022-11-30T09:17:16.987Z</time>
      </trkpt>
      <trkpt lat="43.5243" lon="5.50479">
        <ele>201.04506</ele>
        <time>2022-11-30T09:17:21.986Z</time>
      </trkpt>
      <trkpt lat="43.52432" lon="5.50476">
        <ele>201.0675</ele>
        <time>2022-11-30T09:17:23.986Z</time>
      </trkpt>
      <trkpt lat="43.52434" lon="5.50474">
        <ele>201.10962</ele>
        <time>2022-11-30T09:17:26.986Z</time>
      </trkpt>
      <trkpt lat="43.52437" lon="5.50473">
        <ele>201.23439</ele>
        <time>2022-11-30T09:17:29.986Z</time>
      </trkpt>
      <trkpt lat="43.52442" lon="5.50467">
        <ele>201.5322</ele>
        <time>2022-11-30T09:17:34.986Z</time>
      </trkpt>
      <trkpt lat="43.52443" lon="5.50463">
        <ele>201.6749</ele>
        <time>2022-11-30T09:17:37.986Z</time>
      </trkpt>
      <trkpt lat="43.52446" lon="5.50457">
        <ele>201.98025</ele>
        <time>2022-11-30T09:17:41.985Z</time>
      </trkpt>
      <trkpt lat="43.52446" lon="5.50454">
        <ele>202.1823</ele>
        <time>2022-11-30T09:17:43.985Z</time>
      </trkpt>
      <trkpt lat="43.52447" lon="5.50451">
        <ele>202.46267</ele>
        <time>2022-11-30T09:17:45.985Z</time>
      </trkpt>
      <trkpt lat="43.52449" lon="5.50444">
        <ele>203.2275</ele>
        <time>2022-11-30T09:17:50.985Z</time>
      </trkpt>
      <trkpt lat="43.52448" lon="5.50441">
        <ele>203.68326</ele>
        <time>2022-11-30T09:17:53.985Z</time>
      </trkpt>
      <trkpt lat="43.52449" lon="5.50437">
        <ele>204.02572</ele>
        <time>2022-11-30T09:17:56.985Z</time>
      </trkpt>
      <trkpt lat="43.52453" lon="5.50431">
        <ele>205.04028</ele>
        <time>2022-11-30T09:18:02.984Z</time>
      </trkpt>
      <trkpt lat="43.52454" lon="5.50427">
        <ele>205.98002</ele>
        <time>2022-11-30T09:18:05.984Z</time>
      </trkpt>
      <trkpt lat="43.52457" lon="5.50425">
        <ele>206.74262</ele>
        <time>2022-11-30T09:18:08.984Z</time>
      </trkpt>
      <trkpt lat="43.52461" lon="5.50417">
        <ele>207.96153</ele>
        <time>2022-11-30T09:18:16.984Z</time>
      </trkpt>
      <trkpt lat="43.52465" lon="5.50413">
        <ele>208.92416</ele>
        <time>2022-11-30T09:18:22.983Z</time>
      </trkpt>
      <trkpt lat="43.52468" lon="5.50412">
        <ele>209.45623</ele>
        <time>2022-11-30T09:18:24.983Z</time>
      </trkpt>
      <trkpt lat="43.5247" lon="5.50412">
        <ele>209.76116</ele>
        <time>2022-11-30T09:18:28.983Z</time>
      </trkpt>
      <trkpt lat="43.52473" lon="5.50412">
        <ele>209.99006</ele>
        <time>2022-11-30T09:18:30.983Z</time>
      </trkpt>
      <trkpt lat="43.52475" lon="5.50412">
        <ele>210.13679</ele>
        <time>2022-11-30T09:18:36.983Z</time>
      </trkpt>
      <trkpt lat="43.52477" lon="5.50409">
        <ele>210.36445</ele>
        <time>2022-11-30T09:18:40.982Z</time>
      </trkpt>
      <trkpt lat="43.52481" lon="5.50406">
        <ele>210.64488</ele>
        <time>2022-11-30T09:18:43.982Z</time>
      </trkpt>
      <trkpt lat="43.52484" lon="5.50405">
        <ele>210.80158</ele>
        <time>2022-11-30T09:18:46.982Z</time>
      </trkpt>
      <trkpt lat="43.52487" lon="5.50406">
        <ele>210.92877</ele>
        <time>2022-11-30T09:18:48.982Z</time>
      </trkpt>
      <trkpt lat="43.52494" lon="5.50412">
        <ele>211.40614</ele>
        <time>2022-11-30T09:18:56.982Z</time>
      </trkpt>
      <trkpt lat="43.52503" lon="5.50417">
        <ele>212.05606</ele>
        <time>2022-11-30T09:19:06.981Z</time>
      </trkpt>
      <trkpt lat="43.52512" lon="5.50422">
        <ele>213.26676</ele>
        <time>2022-11-30T09:19:16.981Z</time>
      </trkpt>
      <trkpt lat="43.52516" lon="5.50422">
        <ele>213.78081</ele>
        <time>2022-11-30T09:19:21.980Z</time>
      </trkpt>
      <trkpt lat="43.52528" lon="5.5042">
        <ele>215.23356</ele>
        <time>2022-11-30T09:19:34.980Z</time>
      </trkpt>
      <trkpt lat="43.52533" lon="5.50419">
        <ele>215.87301</ele>
        <time>2022-11-30T09:19:40.979Z</time>
      </trkpt>
      <trkpt lat="43.52539" lon="5.50421">
        <ele>216.24228</ele>
        <time>2022-11-30T09:19:46.979Z</time>
      </trkpt>
      <trkpt lat="43.52542" lon="5.5042">
        <ele>216.4971</ele>
        <time>2022-11-30T09:19:49.979Z</time>
      </trkpt>
      <trkpt lat="43.52548" lon="5.5042">
        <ele>217.34452</ele>
        <time>2022-11-30T09:19:55.979Z</time>
      </trkpt>
      <trkpt lat="43.5255" lon="5.50421">
        <ele>217.81633</ele>
        <time>2022-11-30T09:19:58.979Z</time>
      </trkpt>
      <trkpt lat="43.52555" lon="5.50423">
        <ele>219.01743</ele>
        <time>2022-11-30T09:20:03.978Z</time>
      </trkpt>
      <trkpt lat="43.52566" lon="5.50424">
        <ele>220.16516</ele>
        <time>2022-11-30T09:20:15.978Z</time>
      </trkpt>
      <trkpt lat="43.52569" lon="5.50426">
        <ele>220.40479</ele>
        <time>2022-11-30T09:20:19.978Z</time>
      </trkpt>
      <trkpt lat="43.5258" lon="5.50427">
        <ele>222.21511</ele>
        <time>2022-11-30T09:20:29.977Z</time>
      </trkpt>
      <trkpt lat="43.52586" lon="5.50427">
        <ele>223.42596</ele>
        <time>2022-11-30T09:20:35.977Z</time>
      </trkpt>
      <trkpt lat="43.52588" lon="5.50428">
        <ele>224.34204</ele>
        <time>2022-11-30T09:20:37.977Z</time>
      </trkpt>
      <trkpt lat="43.52594" lon="5.50428">
        <ele>225.54335</ele>
        <time>2022-11-30T09:20:44.976Z</time>
      </trkpt>
      <trkpt lat="43.52603" lon="5.50431">
        <ele>226.84609</ele>
        <time>2022-11-30T09:20:54.976Z</time>
      </trkpt>
      <trkpt lat="43.5261" lon="5.50431">
        <ele>227.77296</ele>
        <time>2022-11-30T09:20:59.976Z</time>
      </trkpt>
      <trkpt lat="43.52612" lon="5.50433">
        <ele>228.04772</ele>
        <time>2022-11-30T09:21:01.975Z</time>
      </trkpt>
      <trkpt lat="43.5262" lon="5.50435">
        <ele>228.8805</ele>
        <time>2022-11-30T09:21:09.975Z</time>
      </trkpt>
      <trkpt lat="43.52631" lon="5.50435">
        <ele>230.15232</ele>
        <time>2022-11-30T09:21:21.974Z</time>
      </trkpt>
      <trkpt lat="43.52642" lon="5.50434">
        <ele>231.88551</ele>
        <time>2022-11-30T09:21:31.974Z</time>
      </trkpt>
      <trkpt lat="43.5265" lon="5.50432">
        <ele>233.74198</ele>
        <time>2022-11-30T09:21:38.974Z</time>
      </trkpt>
      <trkpt lat="43.52658" lon="5.50432">
        <ele>235.68166</ele>
        <time>2022-11-30T09:21:47.973Z</time>
      </trkpt>
      <trkpt lat="43.52666" lon="5.50433">
        <ele>238.46305</ele>
        <time>2022-11-30T09:21:55.973Z</time>
      </trkpt>
      <trkpt lat="43.5268" lon="5.50441">
        <ele>240.13876</ele>
        <time>2022-11-30T09:22:09.972Z</time>
      </trkpt>
      <trkpt lat="43.52683" lon="5.50442">
        <ele>240.30405</ele>
        <time>2022-11-30T09:22:12.972Z</time>
      </trkpt>
      <trkpt lat="43.5269" lon="5.50444">
        <ele>240.65634</ele>
        <time>2022-11-30T09:22:18.972Z</time>
      </trkpt>
      <trkpt lat="43.52692" lon="5.50447">
        <ele>240.82208</ele>
        <time>2022-11-30T09:22:20.971Z</time>
      </trkpt>
      <trkpt lat="43.52697" lon="5.50448">
        <ele>241.26725</ele>
        <time>2022-11-30T09:22:25.971Z</time>
      </trkpt>
      <trkpt lat="43.52705" lon="5.50451">
        <ele>242.11381</ele>
        <time>2022-11-30T09:22:32.971Z</time>
      </trkpt>
      <trkpt lat="43.52709" lon="5.50456">
        <ele>242.96295</ele>
        <time>2022-11-30T09:22:38.971Z</time>
      </trkpt>
      <trkpt lat="43.52719" lon="5.5046">
        <ele>244.50008</ele>
        <time>2022-11-30T09:22:46.970Z</time>
      </trkpt>
      <trkpt lat="43.52723" lon="5.50459">
        <ele>244.93596</ele>
        <time>2022-11-30T09:22:49.970Z</time>
      </trkpt>
      <trkpt lat="43.52727" lon="5.50455">
        <ele>246.26036</ele>
        <time>2022-11-30T09:22:54.970Z</time>
      </trkpt>
      <trkpt lat="43.52729" lon="5.50451">
        <ele>247.27075</ele>
        <time>2022-11-30T09:22:57.970Z</time>
      </trkpt>
      <trkpt lat="43.52733" lon="5.50446">
        <ele>248.8691</ele>
        <time>2022-11-30T09:23:02.969Z</time>
      </trkpt>
      <trkpt lat="43.52738" lon="5.50435">
        <ele>250.93017</ele>
        <time>2022-11-30T09:23:11.969Z</time>
      </trkpt>
      <trkpt lat="43.52746" lon="5.50427">
        <ele>251.94946</ele>
        <time>2022-11-30T09:23:20.968Z</time>
      </trkpt>
      <trkpt lat="43.5276" lon="5.50418">
        <ele>253.21665</ele>
        <time>2022-11-30T09:23:35.968Z</time>
      </trkpt>
      <trkpt lat="43.52763" lon="5.50416">
        <ele>253.43317</ele>
        <time>2022-11-30T09:23:38.968Z</time>
      </trkpt>
      <trkpt lat="43.52769" lon="5.50414">
        <ele>254.0211</ele>
        <time>2022-11-30T09:23:44.967Z</time>
      </trkpt>
      <trkpt lat="43.52774" lon="5.50414">
        <ele>254.53687</ele>
        <time>2022-11-30T09:23:49.967Z</time>
      </trkpt>
      <trkpt lat="43.52777" lon="5.50416">
        <ele>254.89292</ele>
        <time>2022-11-30T09:23:52.967Z</time>
      </trkpt>
      <trkpt lat="43.52779" lon="5.50418">
        <ele>255.26705</ele>
        <time>2022-11-30T09:23:54.967Z</time>
      </trkpt>
      <trkpt lat="43.52779" lon="5.50422">
        <ele>255.81134</ele>
        <time>2022-11-30T09:23:58.967Z</time>
      </trkpt>
      <trkpt lat="43.52783" lon="5.50429">
        <ele>256.96791</ele>
        <time>2022-11-30T09:24:04.966Z</time>
      </trkpt>
      <trkpt lat="43.52784" lon="5.50433">
        <ele>257.67358</ele>
        <time>2022-11-30T09:24:07.966Z</time>
      </trkpt>
      <trkpt lat="43.52783" lon="5.50437">
        <ele>258.3324</ele>
        <time>2022-11-30T09:24:09.966Z</time>
      </trkpt>
      <trkpt lat="43.52782" lon="5.50454">
        <ele>261.00905</ele>
        <time>2022-11-30T09:24:21.965Z</time>
      </trkpt>
      <trkpt lat="43.52783" lon="5.50457">
        <ele>261.72001</ele>
        <time>2022-11-30T09:24:24.965Z</time>
      </trkpt>
      <trkpt lat="43.52784" lon="5.50462">
        <ele>262.28731</ele>
        <time>2022-11-30T09:24:27.965Z</time>
      </trkpt>
      <trkpt lat="43.52783" lon="5.50465">
        <ele>262.85854</ele>
        <time>2022-11-30T09:24:29.965Z</time>
      </trkpt>
      <trkpt lat="43.52785" lon="5.50477">
        <ele>265.37159</ele>
        <time>2022-11-30T09:25:03.963Z</time>
      </trkpt>
      <trkpt lat="43.52788" lon="5.50485">
        <ele>266.0838</ele>
        <time>2022-11-30T09:25:08.963Z</time>
      </trkpt>
      <trkpt lat="43.52794" lon="5.50495">
        <ele>268.06215</ele>
        <time>2022-11-30T09:25:16.963Z</time>
      </trkpt>
      <trkpt lat="43.52794" lon="5.50499">
        <ele>268.99958</ele>
        <time>2022-11-30T09:25:19.963Z</time>
      </trkpt>
      <trkpt lat="43.52795" lon="5.50502">
        <ele>269.41554</ele>
        <time>2022-11-30T09:25:21.963Z</time>
      </trkpt>
      <trkpt lat="43.528" lon="5.5051">
        <ele>270.27881</ele>
        <time>2022-11-30T09:25:27.962Z</time>
      </trkpt>
      <trkpt lat="43.52801" lon="5.50515">
        <ele>270.63624</ele>
        <time>2022-11-30T09:25:30.962Z</time>
      </trkpt>
      <trkpt lat="43.52808" lon="5.50528">
        <ele>272.59816</ele>
        <time>2022-11-30T09:25:40.962Z</time>
      </trkpt>
      <trkpt lat="43.52812" lon="5.50533">
        <ele>273.5896</ele>
        <time>2022-11-30T09:25:45.961Z</time>
      </trkpt>
      <trkpt lat="43.5282" lon="5.50544">
        <ele>275.52195</ele>
        <time>2022-11-30T09:25:54.961Z</time>
      </trkpt>
      <trkpt lat="43.5282" lon="5.50548">
        <ele>275.9476</ele>
        <time>2022-11-30T09:25:57.961Z</time>
      </trkpt>
      <trkpt lat="43.52822" lon="5.50551">
        <ele>276.23343</ele>
        <time>2022-11-30T09:25:59.961Z</time>
      </trkpt>
      <trkpt lat="43.52826" lon="5.50557">
        <ele>277.55455</ele>
        <time>2022-11-30T09:26:03.960Z</time>
      </trkpt>
      <trkpt lat="43.5283" lon="5.50562">
        <ele>278.71116</ele>
        <time>2022-11-30T09:26:08.960Z</time>
      </trkpt>
      <trkpt lat="43.52832" lon="5.50563">
        <ele>279.36057</ele>
        <time>2022-11-30T09:26:10.960Z</time>
      </trkpt>
      <trkpt lat="43.52837" lon="5.50568">
        <ele>280.09967</ele>
        <time>2022-11-30T09:26:15.960Z</time>
      </trkpt>
      <trkpt lat="43.5284" lon="5.50574">
        <ele>281.00729</ele>
        <time>2022-11-30T09:26:37.959Z</time>
      </trkpt>
      <trkpt lat="43.52848" lon="5.5058">
        <ele>281.82099</ele>
        <time>2022-11-30T09:26:44.958Z</time>
      </trkpt>
      <trkpt lat="43.52856" lon="5.50591">
        <ele>283.2417</ele>
        <time>2022-11-30T09:26:53.958Z</time>
      </trkpt>
      <trkpt lat="43.52861" lon="5.50593">
        <ele>283.93585</ele>
        <time>2022-11-30T09:26:57.958Z</time>
      </trkpt>
      <trkpt lat="43.52866" lon="5.50597">
        <ele>284.84615</ele>
        <time>2022-11-30T09:27:01.958Z</time>
      </trkpt>
      <trkpt lat="43.52868" lon="5.506">
        <ele>285.26807</ele>
        <time>2022-11-30T09:27:04.957Z</time>
      </trkpt>
      <trkpt lat="43.52873" lon="5.50612">
        <ele>287.29364</ele>
        <time>2022-11-30T09:27:12.957Z</time>
      </trkpt>
      <trkpt lat="43.52875" lon="5.50614">
        <ele>287.76397</ele>
        <time>2022-11-30T09:27:14.957Z</time>
      </trkpt>
      <trkpt lat="43.52877" lon="5.50623">
        <ele>288.30826</ele>
        <time>2022-11-30T09:27:20.957Z</time>
      </trkpt>
      <trkpt lat="43.52876" lon="5.50627">
        <ele>288.65203</ele>
        <time>2022-11-30T09:28:06.954Z</time>
      </trkpt>
      <trkpt lat="43.52876" lon="5.50631">
        <ele>288.6299</ele>
        <time>2022-11-30T09:28:10.954Z</time>
      </trkpt>
      <trkpt lat="43.5288" lon="5.50641">
        <ele>288.64259</ele>
        <time>2022-11-30T09:28:19.954Z</time>
      </trkpt>
      <trkpt lat="43.52879" lon="5.50644">
        <ele>288.61704</ele>
        <time>2022-11-30T09:28:24.953Z</time>
      </trkpt>
      <trkpt lat="43.5288" lon="5.50647">
        <ele>288.58173</ele>
        <time>2022-11-30T09:28:32.953Z</time>
      </trkpt>
      <trkpt lat="43.5288" lon="5.50655">
        <ele>288.46964</ele>
        <time>2022-11-30T09:35:12.998Z</time>
      </trkpt>
      <trkpt lat="43.52882" lon="5.50657">
        <ele>288.44085</ele>
        <time>2022-11-30T09:35:25.997Z</time>
      </trkpt>
      <trkpt lat="43.52883" lon="5.50665">
        <ele>288.36553</ele>
        <time>2022-11-30T09:35:31.997Z</time>
      </trkpt>
      <trkpt lat="43.52884" lon="5.50669">
        <ele>288.32083</ele>
        <time>2022-11-30T09:35:35.997Z</time>
      </trkpt>
      <trkpt lat="43.52885" lon="5.50672">
        <ele>288.29073</ele>
        <time>2022-11-30T09:35:38.997Z</time>
      </trkpt>
      <trkpt lat="43.52892" lon="5.50681">
        <ele>288.1766</ele>
        <time>2022-11-30T09:35:48.002Z</time>
      </trkpt>
      <trkpt lat="43.52897" lon="5.50687">
        <ele>288.1187</ele>
        <time>2022-11-30T09:35:54.002Z</time>
      </trkpt>
      <trkpt lat="43.529" lon="5.50689">
        <ele>288.09168</ele>
        <time>2022-11-30T09:35:57.002Z</time>
      </trkpt>
      <trkpt lat="43.52901" lon="5.50692">
        <ele>288.06657</ele>
        <time>2022-11-30T09:36:00.002Z</time>
      </trkpt>
      <trkpt lat="43.52908" lon="5.50699">
        <ele>287.97256</ele>
        <time>2022-11-30T09:36:08.002Z</time>
      </trkpt>
      <trkpt lat="43.52911" lon="5.50705">
        <ele>287.91912</ele>
        <time>2022-11-30T09:36:14.001Z</time>
      </trkpt>
      <trkpt lat="43.52913" lon="5.50714">
        <ele>287.83501</ele>
        <time>2022-11-30T09:36:22.001Z</time>
      </trkpt>
      <trkpt lat="43.52915" lon="5.50717">
        <ele>287.77741</ele>
        <time>2022-11-30T09:36:24.001Z</time>
      </trkpt>
      <trkpt lat="43.52916" lon="5.5072">
        <ele>287.71036</ele>
        <time>2022-11-30T09:36:26.001Z</time>
      </trkpt>
      <trkpt lat="43.52919" lon="5.50721">
        <ele>287.63645</ele>
        <time>2022-11-30T09:36:28.001Z</time>
      </trkpt>
      <trkpt lat="43.52919" lon="5.50725">
        <ele>287.54886</ele>
        <time>2022-11-30T09:36:31.000Z</time>
      </trkpt>
      <trkpt lat="43.52921" lon="5.50729">
        <ele>287.45898</ele>
        <time>2022-11-30T09:36:34.000Z</time>
      </trkpt>
      <trkpt lat="43.52921" lon="5.50733">
        <ele>287.34326</ele>
        <time>2022-11-30T09:36:36.000Z</time>
      </trkpt>
      <trkpt lat="43.52923" lon="5.50735">
        <ele>287.23086</ele>
        <time>2022-11-30T09:36:38.000Z</time>
      </trkpt>
      <trkpt lat="43.52925" lon="5.50737">
        <ele>287.0711</ele>
        <time>2022-11-30T09:36:40.000Z</time>
      </trkpt>
      <trkpt lat="43.5293" lon="5.50746">
        <ele>286.23817</ele>
        <time>2022-11-30T09:36:48.000Z</time>
      </trkpt>
      <trkpt lat="43.52936" lon="5.50747">
        <ele>285.40196</ele>
        <time>2022-11-30T09:36:51.999Z</time>
      </trkpt>
      <trkpt lat="43.52938" lon="5.50748">
        <ele>284.90097</ele>
        <time>2022-11-30T09:36:54.999Z</time>
      </trkpt>
      <trkpt lat="43.52945" lon="5.50745">
        <ele>283.18916</ele>
        <time>2022-11-30T09:37:01.999Z</time>
      </trkpt>
      <trkpt lat="43.52951" lon="5.50737">
        <ele>281.78414</ele>
        <time>2022-11-30T09:37:08.998Z</time>
      </trkpt>
      <trkpt lat="43.52952" lon="5.50733">
        <ele>281.35853</ele>
        <time>2022-11-30T09:37:11.998Z</time>
      </trkpt>
      <trkpt lat="43.52954" lon="5.5073">
        <ele>281.02997</ele>
        <time>2022-11-30T09:37:14.998Z</time>
      </trkpt>
      <trkpt lat="43.52955" lon="5.50727">
        <ele>280.70398</ele>
        <time>2022-11-30T09:37:16.998Z</time>
      </trkpt>
      <trkpt lat="43.52958" lon="5.50725">
        <ele>280.46504</ele>
        <time>2022-11-30T09:37:18.998Z</time>
      </trkpt>
      <trkpt lat="43.5296" lon="5.50723">
        <ele>280.26625</ele>
        <time>2022-11-30T09:37:21.998Z</time>
      </trkpt>
      <trkpt lat="43.52962" lon="5.5072">
        <ele>280.10575</ele>
        <time>2022-11-30T09:37:24.998Z</time>
      </trkpt>
      <trkpt lat="43.52964" lon="5.50719">
        <ele>280.01155</ele>
        <time>2022-11-30T09:37:27.998Z</time>
      </trkpt>
      <trkpt lat="43.52967" lon="5.50719">
        <ele>279.9205</ele>
        <time>2022-11-30T09:37:30.997Z</time>
      </trkpt>
      <trkpt lat="43.5297" lon="5.50719">
        <ele>279.79765</ele>
        <time>2022-11-30T09:37:33.997Z</time>
      </trkpt>
      <trkpt lat="43.52979" lon="5.50722">
        <ele>279.37806</ele>
        <time>2022-11-30T09:37:41.997Z</time>
      </trkpt>
      <trkpt lat="43.52987" lon="5.50726">
        <ele>278.80583</ele>
        <time>2022-11-30T09:37:49.002Z</time>
      </trkpt>
      <trkpt lat="43.52994" lon="5.50733">
        <ele>278.0371</ele>
        <time>2022-11-30T09:37:57.002Z</time>
      </trkpt>
      <trkpt lat="43.52998" lon="5.50736">
        <ele>277.46884</ele>
        <time>2022-11-30T09:38:04.002Z</time>
      </trkpt>
      <trkpt lat="43.53001" lon="5.50737">
        <ele>277.17911</ele>
        <time>2022-11-30T09:38:07.002Z</time>
      </trkpt>
      <trkpt lat="43.5301" lon="5.50741">
        <ele>276.21655</ele>
        <time>2022-11-30T09:38:15.002Z</time>
      </trkpt>
      <trkpt lat="43.53012" lon="5.5074">
        <ele>275.89756</ele>
        <time>2022-11-30T09:38:17.001Z</time>
      </trkpt>
      <trkpt lat="43.53025" lon="5.50745">
        <ele>274.42521</ele>
        <time>2022-11-30T09:38:25.001Z</time>
      </trkpt>
      <trkpt lat="43.53027" lon="5.50745">
        <ele>274.0551</ele>
        <time>2022-11-30T09:38:28.001Z</time>
      </trkpt>
      <trkpt lat="43.53036" lon="5.50745">
        <ele>272.76006</ele>
        <time>2022-11-30T09:38:37.000Z</time>
      </trkpt>
      <trkpt lat="43.53039" lon="5.50745">
        <ele>272.40931</ele>
        <time>2022-11-30T09:38:40.000Z</time>
      </trkpt>
      <trkpt lat="43.53043" lon="5.50745">
        <ele>272.03048</ele>
        <time>2022-11-30T09:38:43.000Z</time>
      </trkpt>
      <trkpt lat="43.53052" lon="5.50747">
        <ele>271.10499</ele>
        <time>2022-11-30T09:38:51.000Z</time>
      </trkpt>
      <trkpt lat="43.53057" lon="5.50751">
        <ele>270.63948</ele>
        <time>2022-11-30T09:38:55.000Z</time>
      </trkpt>
      <trkpt lat="43.53061" lon="5.50755">
        <ele>270.0582</ele>
        <time>2022-11-30T09:38:59.999Z</time>
      </trkpt>
      <trkpt lat="43.53069" lon="5.50764">
        <ele>268.67937</ele>
        <time>2022-11-30T09:39:08.999Z</time>
      </trkpt>
      <trkpt lat="43.53074" lon="5.50773">
        <ele>267.19149</ele>
        <time>2022-11-30T09:39:19.998Z</time>
      </trkpt>
      <trkpt lat="43.53076" lon="5.50775">
        <ele>266.52427</ele>
        <time>2022-11-30T09:39:22.998Z</time>
      </trkpt>
      <trkpt lat="43.53081" lon="5.50784">
        <ele>263.96233</ele>
        <time>2022-11-30T09:39:31.998Z</time>
      </trkpt>
      <trkpt lat="43.53089" lon="5.50794">
        <ele>260.16877</ele>
        <time>2022-11-30T09:39:42.997Z</time>
      </trkpt>
      <trkpt lat="43.53094" lon="5.50803">
        <ele>257.54975</ele>
        <time>2022-11-30T09:39:51.997Z</time>
      </trkpt>
      <trkpt lat="43.53102" lon="5.50814">
        <ele>254.56563</ele>
        <time>2022-11-30T09:40:04.002Z</time>
      </trkpt>
      <trkpt lat="43.53108" lon="5.50819">
        <ele>252.58551</ele>
        <time>2022-11-30T09:40:12.002Z</time>
      </trkpt>
      <trkpt lat="43.5311" lon="5.5082">
        <ele>251.96455</ele>
        <time>2022-11-30T09:40:15.002Z</time>
      </trkpt>
      <trkpt lat="43.53117" lon="5.50827">
        <ele>250.31237</ele>
        <time>2022-11-30T09:40:24.001Z</time>
      </trkpt>
      <trkpt lat="43.53131" lon="5.50834">
        <ele>248.2147</ele>
        <time>2022-11-30T09:40:37.000Z</time>
      </trkpt>
      <trkpt lat="43.53142" lon="5.50841">
        <ele>246.82797</ele>
        <time>2022-11-30T09:40:48.000Z</time>
      </trkpt>
      <trkpt lat="43.53148" lon="5.50848">
        <ele>245.62516</ele>
        <time>2022-11-30T09:40:55.999Z</time>
      </trkpt>
      <trkpt lat="43.53153" lon="5.50852">
        <ele>244.88869</ele>
        <time>2022-11-30T09:41:01.999Z</time>
      </trkpt>
      <trkpt lat="43.53155" lon="5.50854">
        <ele>244.5318</ele>
        <time>2022-11-30T09:41:03.999Z</time>
      </trkpt>
      <trkpt lat="43.53164" lon="5.5086">
        <ele>243.03212</ele>
        <time>2022-11-30T09:41:14.999Z</time>
      </trkpt>
      <trkpt lat="43.5317" lon="5.50862">
        <ele>242.14231</ele>
        <time>2022-11-30T09:41:19.998Z</time>
      </trkpt>
      <trkpt lat="43.53175" lon="5.50863">
        <ele>241.46012</ele>
        <time>2022-11-30T09:41:24.998Z</time>
      </trkpt>
      <trkpt lat="43.53177" lon="5.50864">
        <ele>241.06159</ele>
        <time>2022-11-30T09:41:26.998Z</time>
      </trkpt>
      <trkpt lat="43.53189" lon="5.50866">
        <ele>239.48032</ele>
        <time>2022-11-30T09:41:38.997Z</time>
      </trkpt>
      <trkpt lat="43.53197" lon="5.50866">
        <ele>238.12132</ele>
        <time>2022-11-30T09:41:48.997Z</time>
      </trkpt>
      <trkpt lat="43.532" lon="5.50865">
        <ele>237.71594</ele>
        <time>2022-11-30T09:41:51.997Z</time>
      </trkpt>
      <trkpt lat="43.53208" lon="5.50864">
        <ele>236.59474</ele>
        <time>2022-11-30T09:42:00.002Z</time>
      </trkpt>
      <trkpt lat="43.53211" lon="5.50864">
        <ele>236.24856</ele>
        <time>2022-11-30T09:42:03.003Z</time>
      </trkpt>
      <trkpt lat="43.53214" lon="5.50864">
        <ele>235.92312</ele>
        <time>2022-11-30T09:42:05.002Z</time>
      </trkpt>
      <trkpt lat="43.53216" lon="5.50866">
        <ele>235.56586</ele>
        <time>2022-11-30T09:42:07.003Z</time>
      </trkpt>
      <trkpt lat="43.53225" lon="5.50867">
        <ele>234.60331</ele>
        <time>2022-11-30T09:42:15.002Z</time>
      </trkpt>
      <trkpt lat="43.53236" lon="5.50869">
        <ele>232.94791</ele>
        <time>2022-11-30T09:42:25.002Z</time>
      </trkpt>
      <trkpt lat="43.53241" lon="5.50868">
        <ele>231.94517</ele>
        <time>2022-11-30T09:42:31.002Z</time>
      </trkpt>
      <trkpt lat="43.53252" lon="5.50867">
        <ele>229.78033</ele>
        <time>2022-11-30T09:42:42.001Z</time>
      </trkpt>
      <trkpt lat="43.53255" lon="5.50865">
        <ele>229.23264</ele>
        <time>2022-11-30T09:42:45.001Z</time>
      </trkpt>
      <trkpt lat="43.53263" lon="5.5086">
        <ele>227.73209</ele>
        <time>2022-11-30T09:42:56.000Z</time>
      </trkpt>
      <trkpt lat="43.53266" lon="5.5086">
        <ele>227.38793</ele>
        <time>2022-11-30T09:42:58.000Z</time>
      </trkpt>
      <trkpt lat="43.53274" lon="5.50863">
        <ele>226.63082</ele>
        <time>2022-11-30T09:43:04.000Z</time>
      </trkpt>
      <trkpt lat="43.53269" lon="5.50864">
        <ele>225.6584</ele>
        <time>2022-11-30T09:43:35.998Z</time>
      </trkpt>
      <trkpt lat="43.53271" lon="5.50863">
        <ele>225.12077</ele>
        <time>2022-11-30T09:44:01.997Z</time>
      </trkpt>
      <trkpt lat="43.53264" lon="5.50874">
        <ele>224.94231</ele>
        <time>2022-11-30T09:47:09.998Z</time>
      </trkpt>
      <trkpt lat="43.53265" lon="5.50879">
        <ele>224.59191</ele>
        <time>2022-11-30T09:47:16.997Z</time>
      </trkpt>
      <trkpt lat="43.53267" lon="5.50882">
        <ele>224.39013</ele>
        <time>2022-11-30T09:47:22.997Z</time>
      </trkpt>
      <trkpt lat="43.53269" lon="5.50883">
        <ele>224.14093</ele>
        <time>2022-11-30T09:47:26.997Z</time>
      </trkpt>
      <trkpt lat="43.53272" lon="5.50886">
        <ele>223.8566</ele>
        <time>2022-11-30T09:47:30.997Z</time>
      </trkpt>
      <trkpt lat="43.53262" lon="5.50888">
        <ele>222.47567</ele>
        <time>2022-11-30T09:47:46.996Z</time>
      </trkpt>
      <trkpt lat="43.53261" lon="5.50892">
        <ele>222.19847</ele>
        <time>2022-11-30T09:48:07.995Z</time>
      </trkpt>
      <trkpt lat="43.53262" lon="5.50888">
        <ele>221.52531</ele>
        <time>2022-11-30T09:48:40.999Z</time>
      </trkpt>
      <trkpt lat="43.53264" lon="5.50888">
        <ele>221.42489</ele>
        <time>2022-11-30T09:48:45.999Z</time>
      </trkpt>
      <trkpt lat="43.53267" lon="5.50887">
        <ele>221.32234</ele>
        <time>2022-11-30T09:48:48.999Z</time>
      </trkpt>
      <trkpt lat="43.53268" lon="5.50884">
        <ele>221.24235</ele>
        <time>2022-11-30T09:48:52.999Z</time>
      </trkpt>
      <trkpt lat="43.53272" lon="5.50884">
        <ele>221.18209</ele>
        <time>2022-11-30T09:48:56.999Z</time>
      </trkpt>
      <trkpt lat="43.53274" lon="5.50887">
        <ele>221.12535</ele>
        <time>2022-11-30T09:48:59.998Z</time>
      </trkpt>
      <trkpt lat="43.53276" lon="5.50894">
        <ele>220.99981</ele>
        <time>2022-11-30T09:49:06.998Z</time>
      </trkpt>
      <trkpt lat="43.53277" lon="5.50898">
        <ele>220.91021</ele>
        <time>2022-11-30T09:49:16.998Z</time>
      </trkpt>
      <trkpt lat="43.53276" lon="5.50901">
        <ele>220.775</ele>
        <time>2022-11-30T09:49:20.997Z</time>
      </trkpt>
      <trkpt lat="43.53274" lon="5.50904">
        <ele>220.58636</ele>
        <time>2022-11-30T09:49:23.997Z</time>
      </trkpt>
      <trkpt lat="43.53272" lon="5.50907">
        <ele>220.0994</ele>
        <time>2022-11-30T09:49:32.997Z</time>
      </trkpt>
      <trkpt lat="43.53269" lon="5.50907">
        <ele>219.84295</ele>
        <time>2022-11-30T09:49:36.997Z</time>
      </trkpt>
      <trkpt lat="43.53265" lon="5.50909">
        <ele>219.32538</ele>
        <time>2022-11-30T09:49:53.996Z</time>
      </trkpt>
      <trkpt lat="43.53263" lon="5.5091">
        <ele>219.04768</ele>
        <time>2022-11-30T09:49:58.995Z</time>
      </trkpt>
      <trkpt lat="43.5326" lon="5.5091">
        <ele>218.78043</ele>
        <time>2022-11-30T09:50:01.995Z</time>
      </trkpt>
      <trkpt lat="43.53258" lon="5.5091">
        <ele>218.53691</ele>
        <time>2022-11-30T09:50:06.995Z</time>
      </trkpt>
      <trkpt lat="43.53255" lon="5.5091">
        <ele>218.32078</ele>
        <time>2022-11-30T09:50:11.995Z</time>
      </trkpt>
      <trkpt lat="43.53254" lon="5.50913">
        <ele>218.07639</ele>
        <time>2022-11-30T09:50:51.999Z</time>
      </trkpt>
      <trkpt lat="43.53252" lon="5.50915">
        <ele>217.8377</ele>
        <time>2022-11-30T09:50:57.999Z</time>
      </trkpt>
      <trkpt lat="43.53249" lon="5.50915">
        <ele>217.6361</ele>
        <time>2022-11-30T09:51:02.999Z</time>
      </trkpt>
      <trkpt lat="43.53245" lon="5.50917">
        <ele>217.44892</ele>
        <time>2022-11-30T09:51:06.998Z</time>
      </trkpt>
      <trkpt lat="43.53248" lon="5.5092">
        <ele>216.70485</ele>
        <time>2022-11-30T09:51:19.998Z</time>
      </trkpt>
      <trkpt lat="43.5325" lon="5.50918">
        <ele>216.47186</ele>
        <time>2022-11-30T09:51:21.998Z</time>
      </trkpt>
      <trkpt lat="43.53253" lon="5.50918">
        <ele>216.2013</ele>
        <time>2022-11-30T09:51:26.997Z</time>
      </trkpt>
      <trkpt lat="43.53256" lon="5.5092">
        <ele>215.95523</ele>
        <time>2022-11-30T09:51:30.997Z</time>
      </trkpt>
      <trkpt lat="43.53258" lon="5.50921">
        <ele>215.70822</ele>
        <time>2022-11-30T09:51:35.997Z</time>
      </trkpt>
      <trkpt lat="43.53256" lon="5.50926">
        <ele>215.16211</ele>
        <time>2022-11-30T09:51:55.996Z</time>
      </trkpt>
      <trkpt lat="43.53253" lon="5.50926">
        <ele>215.00531</ele>
        <time>2022-11-30T09:52:00.996Z</time>
      </trkpt>
      <trkpt lat="43.53251" lon="5.50927">
        <ele>214.87711</ele>
        <time>2022-11-30T09:52:04.995Z</time>
      </trkpt>
      <trkpt lat="43.53249" lon="5.50928">
        <ele>214.72034</ele>
        <time>2022-11-30T09:52:11.995Z</time>
      </trkpt>
      <trkpt lat="43.53246" lon="5.50929">
        <ele>214.61635</ele>
        <time>2022-11-30T09:52:18.995Z</time>
      </trkpt>
      <trkpt lat="43.53242" lon="5.50928">
        <ele>214.56464</ele>
        <time>2022-11-30T09:52:23.994Z</time>
      </trkpt>
      <trkpt lat="43.53238" lon="5.50933">
        <ele>214.50446</ele>
        <time>2022-11-30T09:52:41.000Z</time>
      </trkpt>
      <trkpt lat="43.53232" lon="5.50937">
        <ele>214.44823</ele>
        <time>2022-11-30T09:53:05.999Z</time>
      </trkpt>
      <trkpt lat="43.53229" lon="5.50937">
        <ele>214.45844</ele>
        <time>2022-11-30T09:53:10.998Z</time>
      </trkpt>
      <trkpt lat="43.53226" lon="5.50936">
        <ele>214.47788</ele>
        <time>2022-11-30T09:53:14.998Z</time>
      </trkpt>
      <trkpt lat="43.53224" lon="5.50937">
        <ele>214.51069</ele>
        <time>2022-11-30T09:53:19.998Z</time>
      </trkpt>
      <trkpt lat="43.53219" lon="5.5094">
        <ele>214.54556</ele>
        <time>2022-11-30T09:53:24.998Z</time>
      </trkpt>
      <trkpt lat="43.53217" lon="5.50938">
        <ele>214.58393</ele>
        <time>2022-11-30T09:53:26.998Z</time>
      </trkpt>
      <trkpt lat="43.53213" lon="5.50938">
        <ele>214.61973</ele>
        <time>2022-11-30T09:53:32.997Z</time>
      </trkpt>
      <trkpt lat="43.5321" lon="5.5094">
        <ele>214.66407</ele>
        <time>2022-11-30T09:53:34.997Z</time>
      </trkpt>
      <trkpt lat="43.53208" lon="5.50941">
        <ele>214.71512</ele>
        <time>2022-11-30T09:53:37.997Z</time>
      </trkpt>
      <trkpt lat="43.53206" lon="5.50943">
        <ele>214.76464</ele>
        <time>2022-11-30T09:53:48.996Z</time>
      </trkpt>
      <trkpt lat="43.53205" lon="5.50946">
        <ele>214.89546</ele>
        <time>2022-11-30T09:57:55.997Z</time>
      </trkpt>
      <trkpt lat="43.53201" lon="5.50951">
        <ele>214.93021</ele>
        <time>2022-11-30T09:58:03.996Z</time>
      </trkpt>
      <trkpt lat="43.53198" lon="5.50952">
        <ele>214.94607</ele>
        <time>2022-11-30T09:58:06.996Z</time>
      </trkpt>
      <trkpt lat="43.53196" lon="5.50955">
        <ele>214.95019</ele>
        <time>2022-11-30T09:58:08.996Z</time>
      </trkpt>
      <trkpt lat="43.53194" lon="5.50957">
        <ele>214.97949</ele>
        <time>2022-11-30T09:58:10.996Z</time>
      </trkpt>
      <trkpt lat="43.53192" lon="5.50961">
        <ele>215.01729</ele>
        <time>2022-11-30T09:58:14.996Z</time>
      </trkpt>
      <trkpt lat="43.53184" lon="5.50964">
        <ele>215.1262</ele>
        <time>2022-11-30T09:58:21.995Z</time>
      </trkpt>
      <trkpt lat="43.53182" lon="5.50964">
        <ele>215.17373</ele>
        <time>2022-11-30T09:58:24.995Z</time>
      </trkpt>
      <trkpt lat="43.53179" lon="5.50966">
        <ele>215.22372</ele>
        <time>2022-11-30T09:58:28.995Z</time>
      </trkpt>
      <trkpt lat="43.53177" lon="5.50967">
        <ele>215.28921</ele>
        <time>2022-11-30T09:58:31.995Z</time>
      </trkpt>
      <trkpt lat="43.53175" lon="5.50969">
        <ele>215.3685</ele>
        <time>2022-11-30T09:58:34.995Z</time>
      </trkpt>
      <trkpt lat="43.53173" lon="5.50969">
        <ele>215.4377</ele>
        <time>2022-11-30T09:58:36.995Z</time>
      </trkpt>
      <trkpt lat="43.5317" lon="5.50971">
        <ele>215.54082</ele>
        <time>2022-11-30T09:58:40.994Z</time>
      </trkpt>
      <trkpt lat="43.53167" lon="5.50973">
        <ele>215.65542</ele>
        <time>2022-11-30T09:58:44.994Z</time>
      </trkpt>
      <trkpt lat="43.53164" lon="5.50975">
        <ele>215.81178</ele>
        <time>2022-11-30T09:58:49.000Z</time>
      </trkpt>
      <trkpt lat="43.5316" lon="5.50979">
        <ele>216.2117</ele>
        <time>2022-11-30T09:58:56.000Z</time>
      </trkpt>
      <trkpt lat="43.53158" lon="5.5098">
        <ele>216.41209</ele>
        <time>2022-11-30T09:59:00.000Z</time>
      </trkpt>
      <trkpt lat="43.53155" lon="5.50981">
        <ele>216.62481</ele>
        <time>2022-11-30T09:59:03.000Z</time>
      </trkpt>
      <trkpt lat="43.53152" lon="5.50983">
        <ele>216.96541</ele>
        <time>2022-11-30T09:59:14.999Z</time>
      </trkpt>
      <trkpt lat="43.5315" lon="5.50985">
        <ele>217.34541</ele>
        <time>2022-11-30T09:59:19.999Z</time>
      </trkpt>
      <trkpt lat="43.53149" lon="5.50988">
        <ele>217.71217</ele>
        <time>2022-11-30T09:59:24.999Z</time>
      </trkpt>
      <trkpt lat="43.53146" lon="5.50988">
        <ele>218.05633</ele>
        <time>2022-11-30T09:59:26.999Z</time>
      </trkpt>
      <trkpt lat="43.53142" lon="5.5099">
        <ele>218.39084</ele>
        <time>2022-11-30T09:59:28.998Z</time>
      </trkpt>
      <trkpt lat="43.53137" lon="5.5099">
        <ele>219.091</ele>
        <time>2022-11-30T09:59:34.998Z</time>
      </trkpt>
      <trkpt lat="43.53135" lon="5.50992">
        <ele>219.47956</ele>
        <time>2022-11-30T09:59:36.998Z</time>
      </trkpt>
      <trkpt lat="43.53132" lon="5.50993">
        <ele>219.87894</ele>
        <time>2022-11-30T09:59:39.998Z</time>
      </trkpt>
      <trkpt lat="43.53132" lon="5.50998">
        <ele>220.31247</ele>
        <time>2022-11-30T09:59:41.998Z</time>
      </trkpt>
      <trkpt lat="43.53135" lon="5.51">
        <ele>220.6833</ele>
        <time>2022-11-30T09:59:57.997Z</time>
      </trkpt>
      <trkpt lat="43.53139" lon="5.50999">
        <ele>221.24087</ele>
        <time>2022-11-30T10:00:06.997Z</time>
      </trkpt>
      <trkpt lat="43.53143" lon="5.50998">
        <ele>221.41932</ele>
        <time>2022-11-30T10:00:11.996Z</time>
      </trkpt>
      <trkpt lat="43.53144" lon="5.50995">
        <ele>221.56279</ele>
        <time>2022-11-30T10:00:19.996Z</time>
      </trkpt>
      <trkpt lat="43.53141" lon="5.50993">
        <ele>221.50707</ele>
        <time>2022-11-30T10:01:29.999Z</time>
      </trkpt>
      <trkpt lat="43.53138" lon="5.50993">
        <ele>221.51509</ele>
        <time>2022-11-30T10:01:41.998Z</time>
      </trkpt>
      <trkpt lat="43.53136" lon="5.50995">
        <ele>221.56531</ele>
        <time>2022-11-30T10:01:46.998Z</time>
      </trkpt>
      <trkpt lat="43.53133" lon="5.50998">
        <ele>221.64305</ele>
        <time>2022-11-30T10:01:50.998Z</time>
      </trkpt>
      <trkpt lat="43.5313" lon="5.51">
        <ele>221.73726</ele>
        <time>2022-11-30T10:01:53.997Z</time>
      </trkpt>
      <trkpt lat="43.53129" lon="5.51003">
        <ele>221.79297</ele>
        <time>2022-11-30T10:01:55.997Z</time>
      </trkpt>
      <trkpt lat="43.53125" lon="5.51004">
        <ele>221.8466</ele>
        <time>2022-11-30T10:01:56.997Z</time>
      </trkpt>
      <trkpt lat="43.53122" lon="5.51008">
        <ele>221.97428</ele>
        <time>2022-11-30T10:02:00.997Z</time>
      </trkpt>
      <trkpt lat="43.5312" lon="5.51011">
        <ele>222.04132</ele>
        <time>2022-11-30T10:02:02.997Z</time>
      </trkpt>
      <trkpt lat="43.5312" lon="5.51014">
        <ele>222.11012</ele>
        <time>2022-11-30T10:02:04.997Z</time>
      </trkpt>
      <trkpt lat="43.53119" lon="5.51019">
        <ele>222.16811</ele>
        <time>2022-11-30T10:02:05.997Z</time>
      </trkpt>
      <trkpt lat="43.53115" lon="5.51019">
        <ele>222.21077</ele>
        <time>2022-11-30T10:02:07.997Z</time>
      </trkpt>
      <trkpt lat="43.53113" lon="5.51022">
        <ele>222.25344</ele>
        <time>2022-11-30T10:02:11.997Z</time>
      </trkpt>
      <trkpt lat="43.53112" lon="5.51025">
        <ele>222.286</ele>
        <time>2022-11-30T10:02:13.996Z</time>
      </trkpt>
      <trkpt lat="43.53108" lon="5.51027">
        <ele>222.30219</ele>
        <time>2022-11-30T10:02:18.996Z</time>
      </trkpt>
      <trkpt lat="43.53106" lon="5.51027">
        <ele>222.30886</ele>
        <time>2022-11-30T10:02:22.996Z</time>
      </trkpt>
      <trkpt lat="43.53102" lon="5.5103">
        <ele>222.31274</ele>
        <time>2022-11-30T10:02:24.996Z</time>
      </trkpt>
      <trkpt lat="43.531" lon="5.51033">
        <ele>222.32838</ele>
        <time>2022-11-30T10:02:27.996Z</time>
      </trkpt>
      <trkpt lat="43.53099" lon="5.51037">
        <ele>222.33161</ele>
        <time>2022-11-30T10:02:30.996Z</time>
      </trkpt>
      <trkpt lat="43.53098" lon="5.5104">
        <ele>222.3369</ele>
        <time>2022-11-30T10:02:33.995Z</time>
      </trkpt>
      <trkpt lat="43.53095" lon="5.51041">
        <ele>222.30787</ele>
        <time>2022-11-30T10:02:40.995Z</time>
      </trkpt>
      <trkpt lat="43.53091" lon="5.51043">
        <ele>222.31386</ele>
        <time>2022-11-30T10:02:52.994Z</time>
      </trkpt>
      <trkpt lat="43.53091" lon="5.51041">
        <ele>222.38249</ele>
        <time>2022-11-30T10:03:20.999Z</time>
      </trkpt>
      <trkpt lat="43.53093" lon="5.51035">
        <ele>222.40489</ele>
        <time>2022-11-30T10:03:29.999Z</time>
      </trkpt>
      <trkpt lat="43.53092" lon="5.51042">
        <ele>222.65559</ele>
        <time>2022-11-30T10:03:49.998Z</time>
      </trkpt>
      <trkpt lat="43.53094" lon="5.51047">
        <ele>222.77216</ele>
        <time>2022-11-30T10:04:00.997Z</time>
      </trkpt>
      <trkpt lat="43.53091" lon="5.51049">
        <ele>222.63725</ele>
        <time>2022-11-30T10:04:12.997Z</time>
      </trkpt>
      <trkpt lat="43.5309" lon="5.51054">
        <ele>222.55862</ele>
        <time>2022-11-30T10:04:14.997Z</time>
      </trkpt>
      <trkpt lat="43.5309" lon="5.51057">
        <ele>222.47026</ele>
        <time>2022-11-30T10:04:16.996Z</time>
      </trkpt>
      <trkpt lat="43.53089" lon="5.51061">
        <ele>222.34732</ele>
        <time>2022-11-30T10:04:19.996Z</time>
      </trkpt>
      <trkpt lat="43.53087" lon="5.51064">
        <ele>222.13035</ele>
        <time>2022-11-30T10:04:23.996Z</time>
      </trkpt>
      <trkpt lat="43.53085" lon="5.51066">
        <ele>221.79896</ele>
        <time>2022-11-30T10:04:28.996Z</time>
      </trkpt>
      <trkpt lat="43.53083" lon="5.51068">
        <ele>221.3682</ele>
        <time>2022-11-30T10:04:31.996Z</time>
      </trkpt>
      <trkpt lat="43.53081" lon="5.51071">
        <ele>220.77068</ele>
        <time>2022-11-30T10:04:34.996Z</time>
      </trkpt>
      <trkpt lat="43.53079" lon="5.51072">
        <ele>220.09418</ele>
        <time>2022-11-30T10:04:36.995Z</time>
      </trkpt>
      <trkpt lat="43.53077" lon="5.51075">
        <ele>219.33325</ele>
        <time>2022-11-30T10:04:38.995Z</time>
      </trkpt>
      <trkpt lat="43.53076" lon="5.51079">
        <ele>218.59162</ele>
        <time>2022-11-30T10:04:40.995Z</time>
      </trkpt>
      <trkpt lat="43.53074" lon="5.51083">
        <ele>217.7285</ele>
        <time>2022-11-30T10:04:42.995Z</time>
      </trkpt>
      <trkpt lat="43.53072" lon="5.51085">
        <ele>216.73371</ele>
        <time>2022-11-30T10:04:44.995Z</time>
      </trkpt>
      <trkpt lat="43.53069" lon="5.51089">
        <ele>215.77974</ele>
        <time>2022-11-30T10:04:47.995Z</time>
      </trkpt>
      <trkpt lat="43.53066" lon="5.51092">
        <ele>213.92945</ele>
        <time>2022-11-30T10:04:54.995Z</time>
      </trkpt>
      <trkpt lat="43.53063" lon="5.51093">
        <ele>213.17897</ele>
        <time>2022-11-30T10:04:57.994Z</time>
      </trkpt>
      <trkpt lat="43.5306" lon="5.5109">
        <ele>212.58508</ele>
        <time>2022-11-30T10:05:00.994Z</time>
      </trkpt>
      <trkpt lat="43.53053" lon="5.51089">
        <ele>212.09373</ele>
        <time>2022-11-30T10:05:06.999Z</time>
      </trkpt>
      <trkpt lat="43.5305" lon="5.51089">
        <ele>211.7912</ele>
        <time>2022-11-30T10:05:09.999Z</time>
      </trkpt>
      <trkpt lat="43.53049" lon="5.51092">
        <ele>211.53989</ele>
        <time>2022-11-30T10:05:11.999Z</time>
      </trkpt>
      <trkpt lat="43.53048" lon="5.51095">
        <ele>211.45722</ele>
        <time>2022-11-30T10:05:12.999Z</time>
      </trkpt>
      <trkpt lat="43.53047" lon="5.51099">
        <ele>211.22801</ele>
        <time>2022-11-30T10:05:15.999Z</time>
      </trkpt>
      <trkpt lat="43.53046" lon="5.51102">
        <ele>210.93669</ele>
        <time>2022-11-30T10:05:18.000Z</time>
      </trkpt>
      <trkpt lat="43.53043" lon="5.51103">
        <ele>210.67843</ele>
        <time>2022-11-30T10:05:20.999Z</time>
      </trkpt>
      <trkpt lat="43.5304" lon="5.51103">
        <ele>210.36665</ele>
        <time>2022-11-30T10:05:22.999Z</time>
      </trkpt>
      <trkpt lat="43.53036" lon="5.51107">
        <ele>209.93105</ele>
        <time>2022-11-30T10:05:27.999Z</time>
      </trkpt>
      <trkpt lat="43.53033" lon="5.51108">
        <ele>209.65486</ele>
        <time>2022-11-30T10:05:30.999Z</time>
      </trkpt>
      <trkpt lat="43.53031" lon="5.51111">
        <ele>209.34731</ele>
        <time>2022-11-30T10:05:33.999Z</time>
      </trkpt>
      <trkpt lat="43.53029" lon="5.51113">
        <ele>208.95701</ele>
        <time>2022-11-30T10:05:37.999Z</time>
      </trkpt>
      <trkpt lat="43.53029" lon="5.51116">
        <ele>208.56435</ele>
        <time>2022-11-30T10:05:39.999Z</time>
      </trkpt>
      <trkpt lat="43.53026" lon="5.5112">
        <ele>208.14654</ele>
        <time>2022-11-30T10:05:44.998Z</time>
      </trkpt>
      <trkpt lat="43.53023" lon="5.5112">
        <ele>207.74917</ele>
        <time>2022-11-30T10:05:50.998Z</time>
      </trkpt>
      <trkpt lat="43.5302" lon="5.51121">
        <ele>207.42251</ele>
        <time>2022-11-30T10:05:54.998Z</time>
      </trkpt>
      <trkpt lat="43.53017" lon="5.5112">
        <ele>207.10744</ele>
        <time>2022-11-30T10:06:00.998Z</time>
      </trkpt>
      <trkpt lat="43.53014" lon="5.51121">
        <ele>206.82152</ele>
        <time>2022-11-30T10:06:03.998Z</time>
      </trkpt>
      <trkpt lat="43.53013" lon="5.51123">
        <ele>206.55669</ele>
        <time>2022-11-30T10:06:09.997Z</time>
      </trkpt>
      <trkpt lat="43.5301" lon="5.51125">
        <ele>206.29578</ele>
        <time>2022-11-30T10:06:12.997Z</time>
      </trkpt>
      <trkpt lat="43.53008" lon="5.51126">
        <ele>206.13377</ele>
        <time>2022-11-30T10:06:14.997Z</time>
      </trkpt>
      <trkpt lat="43.53004" lon="5.51128">
        <ele>205.82528</ele>
        <time>2022-11-30T10:06:18.997Z</time>
      </trkpt>
      <trkpt lat="43.53005" lon="5.51131">
        <ele>205.70895</ele>
        <time>2022-11-30T10:06:21.997Z</time>
      </trkpt>
      <trkpt lat="43.53003" lon="5.51134">
        <ele>205.45199</ele>
        <time>2022-11-30T10:06:27.996Z</time>
      </trkpt>
      <trkpt lat="43.53" lon="5.51135">
        <ele>205.39313</ele>
        <time>2022-11-30T10:06:29.996Z</time>
      </trkpt>
      <trkpt lat="43.52997" lon="5.51132">
        <ele>205.29952</ele>
        <time>2022-11-30T10:06:34.996Z</time>
      </trkpt>
      <trkpt lat="43.52993" lon="5.51126">
        <ele>205.08203</ele>
        <time>2022-11-30T10:06:43.996Z</time>
      </trkpt>
      <trkpt lat="43.5299" lon="5.51126">
        <ele>205.04595</ele>
        <time>2022-11-30T10:06:48.995Z</time>
      </trkpt>
      <trkpt lat="43.5299" lon="5.51124">
        <ele>204.9535</ele>
        <time>2022-11-30T10:06:56.995Z</time>
      </trkpt>
      <trkpt lat="43.52989" lon="5.5112">
        <ele>204.91276</ele>
        <time>2022-11-30T10:06:58.995Z</time>
      </trkpt>
      <trkpt lat="43.52986" lon="5.5112">
        <ele>204.88362</ele>
        <time>2022-11-30T10:07:02.995Z</time>
      </trkpt>
      <trkpt lat="43.5298" lon="5.51118">
        <ele>204.79913</ele>
        <time>2022-11-30T10:07:40.999Z</time>
      </trkpt>
      <trkpt lat="43.52978" lon="5.51121">
        <ele>204.78238</ele>
        <time>2022-11-30T10:07:56.998Z</time>
      </trkpt>
      <trkpt lat="43.52978" lon="5.51125">
        <ele>204.75445</ele>
        <time>2022-11-30T10:08:00.998Z</time>
      </trkpt>
      <trkpt lat="43.52975" lon="5.51126">
        <ele>204.7408</ele>
        <time>2022-11-30T10:08:10.998Z</time>
      </trkpt>
      <trkpt lat="43.52974" lon="5.51123">
        <ele>204.70733</ele>
        <time>2022-11-30T10:08:53.996Z</time>
      </trkpt>
      <trkpt lat="43.5297" lon="5.51125">
        <ele>204.67506</ele>
        <time>2022-11-30T10:08:59.995Z</time>
      </trkpt>
      <trkpt lat="43.52967" lon="5.51125">
        <ele>204.66888</ele>
        <time>2022-11-30T10:09:03.995Z</time>
      </trkpt>
      <trkpt lat="43.52963" lon="5.51122">
        <ele>204.67349</ele>
        <time>2022-11-30T10:09:34.000Z</time>
      </trkpt>
      <trkpt lat="43.5296" lon="5.51122">
        <ele>204.68257</ele>
        <time>2022-11-30T10:09:39.000Z</time>
      </trkpt>
      <trkpt lat="43.52958" lon="5.5112">
        <ele>204.6837</ele>
        <time>2022-11-30T10:09:40.999Z</time>
      </trkpt>
      <trkpt lat="43.5295" lon="5.51115">
        <ele>204.67885</ele>
        <time>2022-11-30T10:09:47.999Z</time>
      </trkpt>
      <trkpt lat="43.52946" lon="5.51102">
        <ele>204.66831</ele>
        <time>2022-11-30T10:09:57.999Z</time>
      </trkpt>
      <trkpt lat="43.52945" lon="5.5109">
        <ele>204.65815</ele>
        <time>2022-11-30T10:10:05.998Z</time>
      </trkpt>
      <trkpt lat="43.52942" lon="5.51088">
        <ele>204.6616</ele>
        <time>2022-11-30T10:10:09.998Z</time>
      </trkpt>
      <trkpt lat="43.52941" lon="5.51085">
        <ele>204.66414</ele>
        <time>2022-11-30T10:10:12.998Z</time>
      </trkpt>
      <trkpt lat="43.52939" lon="5.51082">
        <ele>204.66121</ele>
        <time>2022-11-30T10:10:15.998Z</time>
      </trkpt>
      <trkpt lat="43.52937" lon="5.5108">
        <ele>204.66399</ele>
        <time>2022-11-30T10:10:18.998Z</time>
      </trkpt>
      <trkpt lat="43.52935" lon="5.51078">
        <ele>204.66712</ele>
        <time>2022-11-30T10:10:22.997Z</time>
      </trkpt>
      <trkpt lat="43.52934" lon="5.51075">
        <ele>204.68076</ele>
        <time>2022-11-30T10:10:29.997Z</time>
      </trkpt>
      <trkpt lat="43.52933" lon="5.51071">
        <ele>204.69213</ele>
        <time>2022-11-30T10:10:31.997Z</time>
      </trkpt>
      <trkpt lat="43.52931" lon="5.51067">
        <ele>204.70996</ele>
        <time>2022-11-30T10:10:34.997Z</time>
      </trkpt>
      <trkpt lat="43.52929" lon="5.51065">
        <ele>204.73345</ele>
        <time>2022-11-30T10:10:37.997Z</time>
      </trkpt>
      <trkpt lat="43.52926" lon="5.51063">
        <ele>204.76098</ele>
        <time>2022-11-30T10:10:40.997Z</time>
      </trkpt>
      <trkpt lat="43.52924" lon="5.51061">
        <ele>204.78885</ele>
        <time>2022-11-30T10:10:42.997Z</time>
      </trkpt>
      <trkpt lat="43.52923" lon="5.51058">
        <ele>204.81855</ele>
        <time>2022-11-30T10:10:46.996Z</time>
      </trkpt>
      <trkpt lat="43.52921" lon="5.51056">
        <ele>204.84391</ele>
        <time>2022-11-30T10:10:47.996Z</time>
      </trkpt>
      <trkpt lat="43.52918" lon="5.51054">
        <ele>204.86164</ele>
        <time>2022-11-30T10:10:49.996Z</time>
      </trkpt>
      <trkpt lat="43.52915" lon="5.51052">
        <ele>204.87271</ele>
        <time>2022-11-30T10:10:51.996Z</time>
      </trkpt>
      <trkpt lat="43.52911" lon="5.51046">
        <ele>204.8754</ele>
        <time>2022-11-30T10:10:56.996Z</time>
      </trkpt>
      <trkpt lat="43.5291" lon="5.51039">
        <ele>204.90164</ele>
        <time>2022-11-30T10:11:02.996Z</time>
      </trkpt>
      <trkpt lat="43.52911" lon="5.51036">
        <ele>204.92478</ele>
        <time>2022-11-30T10:11:05.995Z</time>
      </trkpt>
      <trkpt lat="43.52907" lon="5.51033">
        <ele>205.04447</ele>
        <time>2022-11-30T10:11:30.000Z</time>
      </trkpt>
      <trkpt lat="43.52907" lon="5.51028">
        <ele>205.09552</ele>
        <time>2022-11-30T10:11:34.000Z</time>
      </trkpt>
      <trkpt lat="43.52905" lon="5.51026">
        <ele>205.1372</ele>
        <time>2022-11-30T10:11:38.000Z</time>
      </trkpt>
      <trkpt lat="43.52903" lon="5.51024">
        <ele>205.19687</ele>
        <time>2022-11-30T10:11:41.000Z</time>
      </trkpt>
      <trkpt lat="43.52901" lon="5.51022">
        <ele>205.25452</ele>
        <time>2022-11-30T10:11:43.000Z</time>
      </trkpt>
      <trkpt lat="43.52902" lon="5.51018">
        <ele>205.30534</ele>
        <time>2022-11-30T10:11:44.000Z</time>
      </trkpt>
      <trkpt lat="43.52899" lon="5.51011">
        <ele>205.39245</ele>
        <time>2022-11-30T10:11:48.000Z</time>
      </trkpt>
      <trkpt lat="43.52897" lon="5.51008">
        <ele>205.42558</ele>
        <time>2022-11-30T10:11:50.999Z</time>
      </trkpt>
      <trkpt lat="43.52894" lon="5.51">
        <ele>205.45844</ele>
        <time>2022-11-30T10:11:56.999Z</time>
      </trkpt>
      <trkpt lat="43.52895" lon="5.50996">
        <ele>205.47507</ele>
        <time>2022-11-30T10:11:58.999Z</time>
      </trkpt>
      <trkpt lat="43.52894" lon="5.50993">
        <ele>205.50403</ele>
        <time>2022-11-30T10:12:02.999Z</time>
      </trkpt>
      <trkpt lat="43.52894" lon="5.50988">
        <ele>205.53312</ele>
        <time>2022-11-30T10:12:04.999Z</time>
      </trkpt>
      <trkpt lat="43.52893" lon="5.50985">
        <ele>205.57643</ele>
        <time>2022-11-30T10:12:07.999Z</time>
      </trkpt>
      <trkpt lat="43.5289" lon="5.5098">
        <ele>205.66063</ele>
        <time>2022-11-30T10:12:13.998Z</time>
      </trkpt>
      <trkpt lat="43.52889" lon="5.50976">
        <ele>205.69733</ele>
        <time>2022-11-30T10:12:20.998Z</time>
      </trkpt>
      <trkpt lat="43.52888" lon="5.50974">
        <ele>205.74571</ele>
        <time>2022-11-30T10:12:25.998Z</time>
      </trkpt>
      <trkpt lat="43.52886" lon="5.50968">
        <ele>205.88405</ele>
        <time>2022-11-30T10:12:51.996Z</time>
      </trkpt>
      <trkpt lat="43.52882" lon="5.50964">
        <ele>206.11845</ele>
        <time>2022-11-30T10:13:24.995Z</time>
      </trkpt>
      <trkpt lat="43.52882" lon="5.5096">
        <ele>206.28289</ele>
        <time>2022-11-30T10:13:29.000Z</time>
      </trkpt>
      <trkpt lat="43.52881" lon="5.50954">
        <ele>206.79357</ele>
        <time>2022-11-30T10:13:39.000Z</time>
      </trkpt>
      <trkpt lat="43.5288" lon="5.50952">
        <ele>207.14917</ele>
        <time>2022-11-30T10:13:42.000Z</time>
      </trkpt>
      <trkpt lat="43.52879" lon="5.50948">
        <ele>207.5542</ele>
        <time>2022-11-30T10:13:48.000Z</time>
      </trkpt>
      <trkpt lat="43.52875" lon="5.50946">
        <ele>208.53422</ele>
        <time>2022-11-30T10:13:59.999Z</time>
      </trkpt>
      <trkpt lat="43.52874" lon="5.50949">
        <ele>208.95308</ele>
        <time>2022-11-30T10:14:05.999Z</time>
      </trkpt>
      <trkpt lat="43.52872" lon="5.50959">
        <ele>209.08103</ele>
        <time>2022-11-30T10:14:35.998Z</time>
      </trkpt>
      <trkpt lat="43.5287" lon="5.50962">
        <ele>209.09368</ele>
        <time>2022-11-30T10:14:38.997Z</time>
      </trkpt>
      <trkpt lat="43.52867" lon="5.50966">
        <ele>208.70515</ele>
        <time>2022-11-30T10:15:20.995Z</time>
      </trkpt>
      <trkpt lat="43.52866" lon="5.50969">
        <ele>208.58097</ele>
        <time>2022-11-30T10:15:24.995Z</time>
      </trkpt>
      <trkpt lat="43.52865" lon="5.50973">
        <ele>208.37072</ele>
        <time>2022-11-30T10:15:29.995Z</time>
      </trkpt>
      <trkpt lat="43.52859" lon="5.50976">
        <ele>207.99485</ele>
        <time>2022-11-30T10:15:36.000Z</time>
      </trkpt>
      <trkpt lat="43.52859" lon="5.50973">
        <ele>207.5535</ele>
        <time>2022-11-30T10:16:16.999Z</time>
      </trkpt>
      <trkpt lat="43.52861" lon="5.50969">
        <ele>207.22558</ele>
        <time>2022-11-30T10:16:29.998Z</time>
      </trkpt>
      <trkpt lat="43.52865" lon="5.5097">
        <ele>206.65486</ele>
        <time>2022-11-30T10:17:03.996Z</time>
      </trkpt>
      <trkpt lat="43.52866" lon="5.50967">
        <ele>206.59328</ele>
        <time>2022-11-30T10:17:09.996Z</time>
      </trkpt>
      <trkpt lat="43.52868" lon="5.50964">
        <ele>206.55125</ele>
        <time>2022-11-30T10:17:14.996Z</time>
      </trkpt>
      <trkpt lat="43.52869" lon="5.50962">
        <ele>206.58369</ele>
        <time>2022-11-30T10:17:59.994Z</time>
      </trkpt>
      <trkpt lat="43.52872" lon="5.50953">
        <ele>206.86473</ele>
        <time>2022-11-30T10:18:32.992Z</time>
      </trkpt>
      <trkpt lat="43.52874" lon="5.5095">
        <ele>208.26183</ele>
        <time>2022-11-30T10:18:57.991Z</time>
      </trkpt>
      <trkpt lat="43.52877" lon="5.50949">
        <ele>208.65784</ele>
        <time>2022-11-30T10:18:59.991Z</time>
      </trkpt>
      <trkpt lat="43.52879" lon="5.50954">
        <ele>209.43201</ele>
        <time>2022-11-30T10:19:24.989Z</time>
      </trkpt>
      <trkpt lat="43.52881" lon="5.50955">
        <ele>209.68041</ele>
        <time>2022-11-30T10:19:30.989Z</time>
      </trkpt>
      <trkpt lat="43.52882" lon="5.50958">
        <ele>209.79856</ele>
        <time>2022-11-30T10:19:36.989Z</time>
      </trkpt>
      <trkpt lat="43.52884" lon="5.50966">
        <ele>209.7537</ele>
        <time>2022-11-30T10:20:09.987Z</time>
      </trkpt>
      <trkpt lat="43.52883" lon="5.50973">
        <ele>209.67723</ele>
        <time>2022-11-30T10:20:24.987Z</time>
      </trkpt>
      <trkpt lat="43.52883" lon="5.50969">
        <ele>209.29972</ele>
        <time>2022-11-30T10:20:45.985Z</time>
      </trkpt>
      <trkpt lat="43.52886" lon="5.50968">
        <ele>209.29388</ele>
        <time>2022-11-30T10:21:40.983Z</time>
      </trkpt>
      <trkpt lat="43.52888" lon="5.50966">
        <ele>209.25122</ele>
        <time>2022-11-30T10:21:51.982Z</time>
      </trkpt>
      <trkpt lat="43.52889" lon="5.50975">
        <ele>209.17867</ele>
        <time>2022-11-30T10:22:30.980Z</time>
      </trkpt>
      <trkpt lat="43.52889" lon="5.5098">
        <ele>208.27684</ele>
        <time>2022-11-30T10:24:07.975Z</time>
      </trkpt>
      <trkpt lat="43.52892" lon="5.50981">
        <ele>208.15371</ele>
        <time>2022-11-30T10:24:11.975Z</time>
      </trkpt>
      <trkpt lat="43.52894" lon="5.50982">
        <ele>208.05627</ele>
        <time>2022-11-30T10:24:13.975Z</time>
      </trkpt>
      <trkpt lat="43.52895" lon="5.50986">
        <ele>207.98792</ele>
        <time>2022-11-30T10:24:17.975Z</time>
      </trkpt>
      <trkpt lat="43.52896" lon="5.50989">
        <ele>207.95345</ele>
        <time>2022-11-30T10:24:22.975Z</time>
      </trkpt>
      <trkpt lat="43.529" lon="5.5099">
        <ele>207.89523</ele>
        <time>2022-11-30T10:24:24.975Z</time>
      </trkpt>
      <trkpt lat="43.52902" lon="5.50992">
        <ele>207.84678</ele>
        <time>2022-11-30T10:24:27.974Z</time>
      </trkpt>
      <trkpt lat="43.52905" lon="5.51">
        <ele>207.89543</ele>
        <time>2022-11-30T10:24:32.974Z</time>
      </trkpt>
      <trkpt lat="43.5291" lon="5.51021">
        <ele>207.89492</ele>
        <time>2022-11-30T10:24:42.974Z</time>
      </trkpt>
      <trkpt lat="43.52911" lon="5.51025">
        <ele>207.92759</ele>
        <time>2022-11-30T10:24:45.974Z</time>
      </trkpt>
      <trkpt lat="43.52911" lon="5.51031">
        <ele>207.93763</ele>
        <time>2022-11-30T10:24:52.973Z</time>
      </trkpt>
      <trkpt lat="43.52913" lon="5.51038">
        <ele>207.88287</ele>
        <time>2022-11-30T10:24:55.973Z</time>
      </trkpt>
      <trkpt lat="43.52916" lon="5.5104">
        <ele>207.87968</ele>
        <time>2022-11-30T10:24:58.973Z</time>
      </trkpt>
      <trkpt lat="43.5292" lon="5.51054">
        <ele>207.80177</ele>
        <time>2022-11-30T10:25:08.972Z</time>
      </trkpt>
      <trkpt lat="43.52921" lon="5.5106">
        <ele>207.73578</ele>
        <time>2022-11-30T10:25:12.972Z</time>
      </trkpt>
      <trkpt lat="43.52921" lon="5.51064">
        <ele>207.67078</ele>
        <time>2022-11-30T10:25:15.972Z</time>
      </trkpt>
      <trkpt lat="43.52922" lon="5.51067">
        <ele>207.61722</ele>
        <time>2022-11-30T10:25:17.972Z</time>
      </trkpt>
      <trkpt lat="43.52926" lon="5.51073">
        <ele>207.53457</ele>
        <time>2022-11-30T10:25:24.972Z</time>
      </trkpt>
      <trkpt lat="43.52927" lon="5.51075">
        <ele>207.51037</ele>
        <time>2022-11-30T10:25:26.972Z</time>
      </trkpt>
      <trkpt lat="43.5293" lon="5.51078">
        <ele>207.48993</ele>
        <time>2022-11-30T10:25:32.971Z</time>
      </trkpt>
      <trkpt lat="43.52929" lon="5.51083">
        <ele>207.49691</ele>
        <time>2022-11-30T10:25:35.971Z</time>
      </trkpt>
      <trkpt lat="43.52938" lon="5.5109">
        <ele>207.42292</ele>
        <time>2022-11-30T10:25:47.971Z</time>
      </trkpt>
      <trkpt lat="43.5294" lon="5.51093">
        <ele>207.39494</ele>
        <time>2022-11-30T10:25:50.970Z</time>
      </trkpt>
      <trkpt lat="43.52941" lon="5.51097">
        <ele>207.34329</ele>
        <time>2022-11-30T10:25:52.970Z</time>
      </trkpt>
      <trkpt lat="43.52942" lon="5.511">
        <ele>207.29765</ele>
        <time>2022-11-30T10:25:56.970Z</time>
      </trkpt>
      <trkpt lat="43.52945" lon="5.51103">
        <ele>207.18643</ele>
        <time>2022-11-30T10:25:59.970Z</time>
      </trkpt>
      <trkpt lat="43.52943" lon="5.51107">
        <ele>207.13955</ele>
        <time>2022-11-30T10:26:00.970Z</time>
      </trkpt>
      <trkpt lat="43.52948" lon="5.51112">
        <ele>206.9715</ele>
        <time>2022-11-30T10:26:04.970Z</time>
      </trkpt>
      <trkpt lat="43.52949" lon="5.51115">
        <ele>206.88545</ele>
        <time>2022-11-30T10:26:06.970Z</time>
      </trkpt>
      <trkpt lat="43.52952" lon="5.51116">
        <ele>206.82853</ele>
        <time>2022-11-30T10:26:10.969Z</time>
      </trkpt>
      <trkpt lat="43.52955" lon="5.51116">
        <ele>206.76204</ele>
        <time>2022-11-30T10:26:14.969Z</time>
      </trkpt>
      <trkpt lat="43.5296" lon="5.51116">
        <ele>206.63981</ele>
        <time>2022-11-30T10:26:19.969Z</time>
      </trkpt>
      <trkpt lat="43.52963" lon="5.51115">
        <ele>206.58458</ele>
        <time>2022-11-30T10:26:21.969Z</time>
      </trkpt>
      <trkpt lat="43.52965" lon="5.51113">
        <ele>206.52766</ele>
        <time>2022-11-30T10:26:26.969Z</time>
      </trkpt>
      <trkpt lat="43.52969" lon="5.51113">
        <ele>206.4519</ele>
        <time>2022-11-30T10:26:31.968Z</time>
      </trkpt>
      <trkpt lat="43.52972" lon="5.51115">
        <ele>206.37348</ele>
        <time>2022-11-30T10:26:33.968Z</time>
      </trkpt>
      <trkpt lat="43.52975" lon="5.51117">
        <ele>206.31354</ele>
        <time>2022-11-30T10:26:44.968Z</time>
      </trkpt>
      <trkpt lat="43.52977" lon="5.51113">
        <ele>206.14938</ele>
        <time>2022-11-30T10:27:09.966Z</time>
      </trkpt>
      <trkpt lat="43.52984" lon="5.51112">
        <ele>205.94812</ele>
        <time>2022-11-30T10:27:32.965Z</time>
      </trkpt>
      <trkpt lat="43.52987" lon="5.51116">
        <ele>205.83083</ele>
        <time>2022-11-30T10:27:36.965Z</time>
      </trkpt>
      <trkpt lat="43.5299" lon="5.51114">
        <ele>205.73842</ele>
        <time>2022-11-30T10:27:51.964Z</time>
      </trkpt>
      <trkpt lat="43.52993" lon="5.51115">
        <ele>205.70037</ele>
        <time>2022-11-30T10:28:01.964Z</time>
      </trkpt>
      <trkpt lat="43.52995" lon="5.5112">
        <ele>205.62438</ele>
        <time>2022-11-30T10:28:30.962Z</time>
      </trkpt>
      <trkpt lat="43.52996" lon="5.51123">
        <ele>205.59156</ele>
        <time>2022-11-30T10:28:53.961Z</time>
      </trkpt>
      <trkpt lat="43.52993" lon="5.51124">
        <ele>205.48855</ele>
        <time>2022-11-30T10:29:01.961Z</time>
      </trkpt>
      <trkpt lat="43.52991" lon="5.51121">
        <ele>205.44773</ele>
        <time>2022-11-30T10:29:13.960Z</time>
      </trkpt>
      <trkpt lat="43.52988" lon="5.51124">
        <ele>205.38642</ele>
        <time>2022-11-30T10:29:44.959Z</time>
      </trkpt>
      <trkpt lat="43.52987" lon="5.51127">
        <ele>205.37313</ele>
        <time>2022-11-30T10:29:50.959Z</time>
      </trkpt>
      <trkpt lat="43.52986" lon="5.51131">
        <ele>205.34521</ele>
        <time>2022-11-30T10:30:01.958Z</time>
      </trkpt>
      <trkpt lat="43.5299" lon="5.51133">
        <ele>205.31188</ele>
        <time>2022-11-30T10:30:09.958Z</time>
      </trkpt>
      <trkpt lat="43.52994" lon="5.51134">
        <ele>205.30006</ele>
        <time>2022-11-30T10:30:13.957Z</time>
      </trkpt>
      <trkpt lat="43.52994" lon="5.51138">
        <ele>205.28585</ele>
        <time>2022-11-30T10:30:23.957Z</time>
      </trkpt>
      <trkpt lat="43.52992" lon="5.5114">
        <ele>205.28124</ele>
        <time>2022-11-30T10:30:29.957Z</time>
      </trkpt>
      <trkpt lat="43.52994" lon="5.51147">
        <ele>205.28026</ele>
        <time>2022-11-30T10:30:55.955Z</time>
      </trkpt>
      <trkpt lat="43.52981" lon="5.51161">
        <ele>205.30131</ele>
        <time>2022-11-30T10:31:31.954Z</time>
      </trkpt>
      <trkpt lat="43.52978" lon="5.5116">
        <ele>205.31977</ele>
        <time>2022-11-30T10:31:33.953Z</time>
      </trkpt>
      <trkpt lat="43.52975" lon="5.51161">
        <ele>205.33723</ele>
        <time>2022-11-30T10:32:04.952Z</time>
      </trkpt>
      <trkpt lat="43.52974" lon="5.51164">
        <ele>205.36026</ele>
        <time>2022-11-30T10:32:08.952Z</time>
      </trkpt>
      <trkpt lat="43.52971" lon="5.51166">
        <ele>205.38682</ele>
        <time>2022-11-30T10:32:11.952Z</time>
      </trkpt>
      <trkpt lat="43.52968" lon="5.51167">
        <ele>205.42594</ele>
        <time>2022-11-30T10:32:14.951Z</time>
      </trkpt>
      <trkpt lat="43.52965" lon="5.5117">
        <ele>205.49973</ele>
        <time>2022-11-30T10:32:19.951Z</time>
      </trkpt>
      <trkpt lat="43.5296" lon="5.51172">
        <ele>205.64015</ele>
        <time>2022-11-30T10:32:34.950Z</time>
      </trkpt>
      <trkpt lat="43.52957" lon="5.51171">
        <ele>205.82032</ele>
        <time>2022-11-30T10:32:38.950Z</time>
      </trkpt>
      <trkpt lat="43.52955" lon="5.51171">
        <ele>206.05139</ele>
        <time>2022-11-30T10:32:43.950Z</time>
      </trkpt>
      <trkpt lat="43.52953" lon="5.51172">
        <ele>206.33148</ele>
        <time>2022-11-30T10:32:50.950Z</time>
      </trkpt>
      <trkpt lat="43.5295" lon="5.51172">
        <ele>206.62338</ele>
        <time>2022-11-30T10:32:54.949Z</time>
      </trkpt>
      <trkpt lat="43.52948" lon="5.5118">
        <ele>207.01135</ele>
        <time>2022-11-30T10:33:01.949Z</time>
      </trkpt>
      <trkpt lat="43.52951" lon="5.51177">
        <ele>207.75578</ele>
        <time>2022-11-30T10:33:06.949Z</time>
      </trkpt>
      <trkpt lat="43.52948" lon="5.51173">
        <ele>208.43375</ele>
        <time>2022-11-30T10:33:31.948Z</time>
      </trkpt>
      <trkpt lat="43.52945" lon="5.51174">
        <ele>208.64035</ele>
        <time>2022-11-30T10:33:34.947Z</time>
      </trkpt>
      <trkpt lat="43.52938" lon="5.51174">
        <ele>209.11586</ele>
        <time>2022-11-30T10:33:46.947Z</time>
      </trkpt>
      <trkpt lat="43.52935" lon="5.51172">
        <ele>209.45508</ele>
        <time>2022-11-30T10:33:50.947Z</time>
      </trkpt>
      <trkpt lat="43.52933" lon="5.51173">
        <ele>209.80232</ele>
        <time>2022-11-30T10:33:53.947Z</time>
      </trkpt>
      <trkpt lat="43.52923" lon="5.51175">
        <ele>210.50449</ele>
        <time>2022-11-30T10:34:07.946Z</time>
      </trkpt>
      <trkpt lat="43.5292" lon="5.51178">
        <ele>211.11431</ele>
        <time>2022-11-30T10:34:10.946Z</time>
      </trkpt>
      <trkpt lat="43.52918" lon="5.51185">
        <ele>212.43202</ele>
        <time>2022-11-30T10:34:14.946Z</time>
      </trkpt>
      <trkpt lat="43.52918" lon="5.51189">
        <ele>213.3777</ele>
        <time>2022-11-30T10:34:18.945Z</time>
      </trkpt>
      <trkpt lat="43.5292" lon="5.51195">
        <ele>214.48194</ele>
        <time>2022-11-30T10:34:30.945Z</time>
      </trkpt>
      <trkpt lat="43.5292" lon="5.51199">
        <ele>215.40912</ele>
        <time>2022-11-30T10:34:34.945Z</time>
      </trkpt>
      <trkpt lat="43.52921" lon="5.51202">
        <ele>216.3159</ele>
        <time>2022-11-30T10:34:38.944Z</time>
      </trkpt>
      <trkpt lat="43.52925" lon="5.51207">
        <ele>217.21464</ele>
        <time>2022-11-30T10:34:48.944Z</time>
      </trkpt>
      <trkpt lat="43.52924" lon="5.5121">
        <ele>217.89297</ele>
        <time>2022-11-30T10:34:56.943Z</time>
      </trkpt>
      <trkpt lat="43.52924" lon="5.51214">
        <ele>218.53757</ele>
        <time>2022-11-30T10:35:02.943Z</time>
      </trkpt>
      <trkpt lat="43.52926" lon="5.51219">
        <ele>219.74681</ele>
        <time>2022-11-30T10:35:09.943Z</time>
      </trkpt>
      <trkpt lat="43.52923" lon="5.51226">
        <ele>220.33654</ele>
        <time>2022-11-30T10:35:18.942Z</time>
      </trkpt>
      <trkpt lat="43.52922" lon="5.51229">
        <ele>220.85898</ele>
        <time>2022-11-30T10:35:22.942Z</time>
      </trkpt>
      <trkpt lat="43.5292" lon="5.51232">
        <ele>221.33926</ele>
        <time>2022-11-30T10:35:25.942Z</time>
      </trkpt>
      <trkpt lat="43.5292" lon="5.51236">
        <ele>222.0094</ele>
        <time>2022-11-30T10:35:29.942Z</time>
      </trkpt>
      <trkpt lat="43.52922" lon="5.51241">
        <ele>223.38063</ele>
        <time>2022-11-30T10:35:44.941Z</time>
      </trkpt>
      <trkpt lat="43.52922" lon="5.51245">
        <ele>223.69876</ele>
        <time>2022-11-30T10:35:47.998Z</time>
      </trkpt>
      <trkpt lat="43.52921" lon="5.51249">
        <ele>224.03746</ele>
        <time>2022-11-30T10:35:51.998Z</time>
      </trkpt>
      <trkpt lat="43.52922" lon="5.51252">
        <ele>224.40227</ele>
        <time>2022-11-30T10:35:54.998Z</time>
      </trkpt>
      <trkpt lat="43.52922" lon="5.51256">
        <ele>224.81564</ele>
        <time>2022-11-30T10:36:02.997Z</time>
      </trkpt>
      <trkpt lat="43.5292" lon="5.51261">
        <ele>225.65142</ele>
        <time>2022-11-30T10:36:10.997Z</time>
      </trkpt>
      <trkpt lat="43.52919" lon="5.51264">
        <ele>226.16223</ele>
        <time>2022-11-30T10:36:17.997Z</time>
      </trkpt>
      <trkpt lat="43.52918" lon="5.51268">
        <ele>226.66347</ele>
        <time>2022-11-30T10:36:22.996Z</time>
      </trkpt>
      <trkpt lat="43.52918" lon="5.51271">
        <ele>227.19486</ele>
        <time>2022-11-30T10:36:29.996Z</time>
      </trkpt>
      <trkpt lat="43.52919" lon="5.51274">
        <ele>227.94076</ele>
        <time>2022-11-30T10:36:35.002Z</time>
      </trkpt>
      <trkpt lat="43.5292" lon="5.51277">
        <ele>228.51189</ele>
        <time>2022-11-30T10:36:39.002Z</time>
      </trkpt>
      <trkpt lat="43.52918" lon="5.51282">
        <ele>229.71092</ele>
        <time>2022-11-30T10:36:47.002Z</time>
      </trkpt>
      <trkpt lat="43.52919" lon="5.51285">
        <ele>230.2041</ele>
        <time>2022-11-30T10:36:52.001Z</time>
      </trkpt>
      <trkpt lat="43.52918" lon="5.51288">
        <ele>230.94201</ele>
        <time>2022-11-30T10:36:57.001Z</time>
      </trkpt>
      <trkpt lat="43.52918" lon="5.51292">
        <ele>231.6858</ele>
        <time>2022-11-30T10:37:02.001Z</time>
      </trkpt>
      <trkpt lat="43.52917" lon="5.51295">
        <ele>232.47242</ele>
        <time>2022-11-30T10:37:08.001Z</time>
      </trkpt>
      <trkpt lat="43.52914" lon="5.51298">
        <ele>233.2513</ele>
        <time>2022-11-30T10:37:12.000Z</time>
      </trkpt>
      <trkpt lat="43.52914" lon="5.51301">
        <ele>234.18049</ele>
        <time>2022-11-30T10:37:18.000Z</time>
      </trkpt>
      <trkpt lat="43.52912" lon="5.51304">
        <ele>235.02683</ele>
        <time>2022-11-30T10:37:22.000Z</time>
      </trkpt>
      <trkpt lat="43.52911" lon="5.51307">
        <ele>235.65293</ele>
        <time>2022-11-30T10:37:23.000Z</time>
      </trkpt>
      <trkpt lat="43.52908" lon="5.51309">
        <ele>236.37146</ele>
        <time>2022-11-30T10:37:26.000Z</time>
      </trkpt>
      <trkpt lat="43.52905" lon="5.51313">
        <ele>238.12616</ele>
        <time>2022-11-30T10:37:31.999Z</time>
      </trkpt>
      <trkpt lat="43.52903" lon="5.51315">
        <ele>239.01601</ele>
        <time>2022-11-30T10:37:34.999Z</time>
      </trkpt>
      <trkpt lat="43.52901" lon="5.51318">
        <ele>239.97029</ele>
        <time>2022-11-30T10:37:38.999Z</time>
      </trkpt>
      <trkpt lat="43.52895" lon="5.5132">
        <ele>241.99932</ele>
        <time>2022-11-30T10:37:51.998Z</time>
      </trkpt>
      <trkpt lat="43.52893" lon="5.51321">
        <ele>242.94835</ele>
        <time>2022-11-30T10:37:54.998Z</time>
      </trkpt>
      <trkpt lat="43.52892" lon="5.51325">
        <ele>243.9798</ele>
        <time>2022-11-30T10:37:57.998Z</time>
      </trkpt>
      <trkpt lat="43.52884" lon="5.51328">
        <ele>245.38202</ele>
        <time>2022-11-30T10:38:15.997Z</time>
      </trkpt>
      <trkpt lat="43.52882" lon="5.51326">
        <ele>246.58807</ele>
        <time>2022-11-30T10:38:18.997Z</time>
      </trkpt>
      <trkpt lat="43.52879" lon="5.51324">
        <ele>247.64231</ele>
        <time>2022-11-30T10:38:22.997Z</time>
      </trkpt>
      <trkpt lat="43.52876" lon="5.51324">
        <ele>248.28963</ele>
        <time>2022-11-30T10:38:24.997Z</time>
      </trkpt>
      <trkpt lat="43.52874" lon="5.51325">
        <ele>249.16011</ele>
        <time>2022-11-30T10:38:26.997Z</time>
      </trkpt>
      <trkpt lat="43.52865" lon="5.51322">
        <ele>251.41992</ele>
        <time>2022-11-30T10:38:43.003Z</time>
      </trkpt>
      <trkpt lat="43.52863" lon="5.51321">
        <ele>251.78193</ele>
        <time>2022-11-30T10:38:48.002Z</time>
      </trkpt>
      <trkpt lat="43.5286" lon="5.51323">
        <ele>252.34522</ele>
        <time>2022-11-30T10:38:54.002Z</time>
      </trkpt>
      <trkpt lat="43.52856" lon="5.51323">
        <ele>252.83344</ele>
        <time>2022-11-30T10:38:56.002Z</time>
      </trkpt>
      <trkpt lat="43.52854" lon="5.51322">
        <ele>253.40024</ele>
        <time>2022-11-30T10:38:59.002Z</time>
      </trkpt>
      <trkpt lat="43.52853" lon="5.51318">
        <ele>253.97967</ele>
        <time>2022-11-30T10:39:03.002Z</time>
      </trkpt>
      <trkpt lat="43.52851" lon="5.51316">
        <ele>254.51905</ele>
        <time>2022-11-30T10:39:12.001Z</time>
      </trkpt>
      <trkpt lat="43.52851" lon="5.51313">
        <ele>255.2158</ele>
        <time>2022-11-30T10:39:17.001Z</time>
      </trkpt>
      <trkpt lat="43.52841" lon="5.51307">
        <ele>255.72682</ele>
        <time>2022-11-30T10:39:34.000Z</time>
      </trkpt>
      <trkpt lat="43.52839" lon="5.51305">
        <ele>256.04274</ele>
        <time>2022-11-30T10:39:39.000Z</time>
      </trkpt>
      <trkpt lat="43.52838" lon="5.51302">
        <ele>256.67531</ele>
        <time>2022-11-30T10:39:44.000Z</time>
      </trkpt>
      <trkpt lat="43.52828" lon="5.51294">
        <ele>257.61483</ele>
        <time>2022-11-30T10:40:10.998Z</time>
      </trkpt>
      <trkpt lat="43.52824" lon="5.5129">
        <ele>258.66496</ele>
        <time>2022-11-30T10:40:15.998Z</time>
      </trkpt>
      <trkpt lat="43.52824" lon="5.51287">
        <ele>259.84973</ele>
        <time>2022-11-30T10:40:18.998Z</time>
      </trkpt>
      <trkpt lat="43.5282" lon="5.51279">
        <ele>261.87092</ele>
        <time>2022-11-30T10:40:31.997Z</time>
      </trkpt>
      <trkpt lat="43.52818" lon="5.51277">
        <ele>262.46546</ele>
        <time>2022-11-30T10:40:33.997Z</time>
      </trkpt>
      <trkpt lat="43.52817" lon="5.51274">
        <ele>263.08171</ele>
        <time>2022-11-30T10:40:36.997Z</time>
      </trkpt>
      <trkpt lat="43.52814" lon="5.51273">
        <ele>263.75688</ele>
        <time>2022-11-30T10:40:40.997Z</time>
      </trkpt>
      <trkpt lat="43.52812" lon="5.5127">
        <ele>264.40932</ele>
        <time>2022-11-30T10:40:43.997Z</time>
      </trkpt>
      <trkpt lat="43.52807" lon="5.51266">
        <ele>265.81891</ele>
        <time>2022-11-30T10:40:54.002Z</time>
      </trkpt>
      <trkpt lat="43.52804" lon="5.51262">
        <ele>266.57672</ele>
        <time>2022-11-30T10:40:59.002Z</time>
      </trkpt>
      <trkpt lat="43.52802" lon="5.51262">
        <ele>267.18807</ele>
        <time>2022-11-30T10:41:01.002Z</time>
      </trkpt>
      <trkpt lat="43.528" lon="5.51261">
        <ele>267.99247</ele>
        <time>2022-11-30T10:41:10.002Z</time>
      </trkpt>
      <trkpt lat="43.52798" lon="5.51259">
        <ele>268.87692</ele>
        <time>2022-11-30T10:41:14.001Z</time>
      </trkpt>
      <trkpt lat="43.52796" lon="5.51258">
        <ele>269.74176</ele>
        <time>2022-11-30T10:41:20.001Z</time>
      </trkpt>
      <trkpt lat="43.52793" lon="5.51255">
        <ele>270.57153</ele>
        <time>2022-11-30T10:41:24.001Z</time>
      </trkpt>
      <trkpt lat="43.52793" lon="5.51252">
        <ele>271.28275</ele>
        <time>2022-11-30T10:41:26.001Z</time>
      </trkpt>
      <trkpt lat="43.52791" lon="5.51248">
        <ele>271.87916</ele>
        <time>2022-11-30T10:41:32.001Z</time>
      </trkpt>
      <trkpt lat="43.52789" lon="5.51246">
        <ele>272.50646</ele>
        <time>2022-11-30T10:41:35.000Z</time>
      </trkpt>
      <trkpt lat="43.52789" lon="5.51242">
        <ele>273.30474</ele>
        <time>2022-11-30T10:41:39.000Z</time>
      </trkpt>
      <trkpt lat="43.52788" lon="5.51239">
        <ele>273.84813</ele>
        <time>2022-11-30T10:41:42.000Z</time>
      </trkpt>
      <trkpt lat="43.52787" lon="5.51236">
        <ele>274.2252</ele>
        <time>2022-11-30T10:41:51.000Z</time>
      </trkpt>
      <trkpt lat="43.52785" lon="5.51228">
        <ele>274.61226</ele>
        <time>2022-11-30T10:41:58.999Z</time>
      </trkpt>
      <trkpt lat="43.52783" lon="5.51225">
        <ele>274.90685</ele>
        <time>2022-11-30T10:42:00.999Z</time>
      </trkpt>
      <trkpt lat="43.5278" lon="5.51224">
        <ele>275.27425</ele>
        <time>2022-11-30T10:42:06.999Z</time>
      </trkpt>
      <trkpt lat="43.52778" lon="5.51221">
        <ele>275.6232</ele>
        <time>2022-11-30T10:42:14.998Z</time>
      </trkpt>
      <trkpt lat="43.52773" lon="5.51219">
        <ele>276.1898</ele>
        <time>2022-11-30T10:42:30.998Z</time>
      </trkpt>
      <trkpt lat="43.5277" lon="5.51215">
        <ele>276.80871</ele>
        <time>2022-11-30T10:42:39.997Z</time>
      </trkpt>
      <trkpt lat="43.52766" lon="5.51207">
        <ele>277.06238</ele>
        <time>2022-11-30T10:43:00.002Z</time>
      </trkpt>
      <trkpt lat="43.52761" lon="5.51204">
        <ele>277.36554</ele>
        <time>2022-11-30T10:43:12.002Z</time>
      </trkpt>
      <trkpt lat="43.52756" lon="5.51196">
        <ele>277.92657</ele>
        <time>2022-11-30T10:43:28.001Z</time>
      </trkpt>
      <trkpt lat="43.52756" lon="5.51191">
        <ele>278.00299</ele>
        <time>2022-11-30T10:43:36.001Z</time>
      </trkpt>
      <trkpt lat="43.52754" lon="5.51189">
        <ele>278.07657</ele>
        <time>2022-11-30T10:43:38.000Z</time>
      </trkpt>
      <trkpt lat="43.52753" lon="5.51186">
        <ele>278.08176</ele>
        <time>2022-11-30T10:43:41.000Z</time>
      </trkpt>
      <trkpt lat="43.52751" lon="5.51186">
        <ele>278.07242</ele>
        <time>2022-11-30T10:43:47.000Z</time>
      </trkpt>
      <trkpt lat="43.52748" lon="5.51187">
        <ele>278.09069</ele>
        <time>2022-11-30T10:43:51.000Z</time>
      </trkpt>
      <trkpt lat="43.52746" lon="5.51185">
        <ele>278.08838</ele>
        <time>2022-11-30T10:43:54.000Z</time>
      </trkpt>
      <trkpt lat="43.5274" lon="5.51184">
        <ele>277.89122</ele>
        <time>2022-11-30T10:44:05.999Z</time>
      </trkpt>
      <trkpt lat="43.52737" lon="5.51189">
        <ele>277.50722</ele>
        <time>2022-11-30T10:44:19.998Z</time>
      </trkpt>
      <trkpt lat="43.5274" lon="5.51184">
        <ele>277.0512</ele>
        <time>2022-11-30T10:46:46.998Z</time>
      </trkpt>
      <trkpt lat="43.52745" lon="5.51186">
        <ele>276.91011</ele>
        <time>2022-11-30T10:47:06.003Z</time>
      </trkpt>
      <trkpt lat="43.52747" lon="5.51187">
        <ele>276.90274</ele>
        <time>2022-11-30T10:48:06.997Z</time>
      </trkpt>
      <trkpt lat="43.5275" lon="5.51186">
        <ele>276.9172</ele>
        <time>2022-11-30T10:49:46.999Z</time>
      </trkpt>
      <trkpt lat="43.52739" lon="5.51206">
        <ele>276.98319</ele>
        <time>2022-11-30T10:53:33.000Z</time>
      </trkpt>
      <trkpt lat="43.52735" lon="5.51209">
        <ele>277.07334</ele>
        <time>2022-11-30T10:53:39.000Z</time>
      </trkpt>
      <trkpt lat="43.52734" lon="5.51213">
        <ele>277.10086</ele>
        <time>2022-11-30T10:53:43.000Z</time>
      </trkpt>
      <trkpt lat="43.52733" lon="5.51216">
        <ele>277.11141</ele>
        <time>2022-11-30T10:53:46.999Z</time>
      </trkpt>
      <trkpt lat="43.52731" lon="5.51219">
        <ele>277.15482</ele>
        <time>2022-11-30T10:53:51.999Z</time>
      </trkpt>
      <trkpt lat="43.5273" lon="5.51222">
        <ele>277.17894</ele>
        <time>2022-11-30T10:53:56.999Z</time>
      </trkpt>
      <trkpt lat="43.52729" lon="5.51225">
        <ele>277.21641</ele>
        <time>2022-11-30T10:54:00.999Z</time>
      </trkpt>
      <trkpt lat="43.52728" lon="5.51228">
        <ele>277.25359</ele>
        <time>2022-11-30T10:54:05.998Z</time>
      </trkpt>
      <trkpt lat="43.52725" lon="5.51234">
        <ele>277.32852</ele>
        <time>2022-11-30T10:54:17.998Z</time>
      </trkpt>
      <trkpt lat="43.52725" lon="5.51238">
        <ele>277.39119</ele>
        <time>2022-11-30T10:54:25.997Z</time>
      </trkpt>
      <trkpt lat="43.52726" lon="5.51243">
        <ele>277.60392</ele>
        <time>2022-11-30T10:54:46.996Z</time>
      </trkpt>
      <trkpt lat="43.52724" lon="5.51246">
        <ele>277.78782</ele>
        <time>2022-11-30T10:54:52.996Z</time>
      </trkpt>
      <trkpt lat="43.52723" lon="5.51257">
        <ele>278.11607</ele>
        <time>2022-11-30T10:55:11.995Z</time>
      </trkpt>
      <trkpt lat="43.52721" lon="5.51263">
        <ele>278.80852</ele>
        <time>2022-11-30T10:55:18.995Z</time>
      </trkpt>
      <trkpt lat="43.52722" lon="5.51266">
        <ele>279.18549</ele>
        <time>2022-11-30T10:55:22.994Z</time>
      </trkpt>
      <trkpt lat="43.52721" lon="5.5127">
        <ele>279.57127</ele>
        <time>2022-11-30T10:55:28.000Z</time>
      </trkpt>
      <trkpt lat="43.5272" lon="5.51276">
        <ele>280.18039</ele>
        <time>2022-11-30T10:55:36.000Z</time>
      </trkpt>
      <trkpt lat="43.52722" lon="5.51279">
        <ele>280.44877</ele>
        <time>2022-11-30T10:55:39.000Z</time>
      </trkpt>
      <trkpt lat="43.52723" lon="5.51283">
        <ele>280.76691</ele>
        <time>2022-11-30T10:55:42.000Z</time>
      </trkpt>
      <trkpt lat="43.52725" lon="5.51288">
        <ele>281.46887</ele>
        <time>2022-11-30T10:55:50.999Z</time>
      </trkpt>
      <trkpt lat="43.52726" lon="5.51298">
        <ele>283.24937</ele>
        <time>2022-11-30T10:56:01.999Z</time>
      </trkpt>
      <trkpt lat="43.52725" lon="5.51303">
        <ele>283.76429</ele>
        <time>2022-11-30T10:56:06.999Z</time>
      </trkpt>
      <trkpt lat="43.52726" lon="5.51307">
        <ele>284.2928</ele>
        <time>2022-11-30T10:56:09.998Z</time>
      </trkpt>
      <trkpt lat="43.52725" lon="5.5131">
        <ele>284.88289</ele>
        <time>2022-11-30T10:56:13.998Z</time>
      </trkpt>
      <trkpt lat="43.52726" lon="5.51313">
        <ele>285.55103</ele>
        <time>2022-11-30T10:56:17.998Z</time>
      </trkpt>
      <trkpt lat="43.52726" lon="5.5132">
        <ele>286.80598</ele>
        <time>2022-11-30T10:56:23.998Z</time>
      </trkpt>
      <trkpt lat="43.52725" lon="5.51324">
        <ele>287.37538</ele>
        <time>2022-11-30T10:56:27.998Z</time>
      </trkpt>
      <trkpt lat="43.52723" lon="5.51331">
        <ele>288.27073</ele>
        <time>2022-11-30T10:56:35.997Z</time>
      </trkpt>
      <trkpt lat="43.52723" lon="5.51334">
        <ele>288.73836</ele>
        <time>2022-11-30T10:56:40.997Z</time>
      </trkpt>
      <trkpt lat="43.52724" lon="5.51342">
        <ele>289.45652</ele>
        <time>2022-11-30T10:56:49.996Z</time>
      </trkpt>
      <trkpt lat="43.52722" lon="5.51353">
        <ele>290.39377</ele>
        <time>2022-11-30T10:57:00.996Z</time>
      </trkpt>
      <trkpt lat="43.52722" lon="5.51356">
        <ele>290.76897</ele>
        <time>2022-11-30T10:57:05.996Z</time>
      </trkpt>
      <trkpt lat="43.52723" lon="5.5136">
        <ele>291.11008</ele>
        <time>2022-11-30T10:57:09.995Z</time>
      </trkpt>
      <trkpt lat="43.52723" lon="5.51364">
        <ele>291.4101</ele>
        <time>2022-11-30T10:57:12.995Z</time>
      </trkpt>
      <trkpt lat="43.52721" lon="5.51368">
        <ele>291.74246</ele>
        <time>2022-11-30T10:57:15.995Z</time>
      </trkpt>
      <trkpt lat="43.52719" lon="5.51375">
        <ele>292.24604</ele>
        <time>2022-11-30T10:57:22.995Z</time>
      </trkpt>
      <trkpt lat="43.52716" lon="5.51377">
        <ele>292.33761</ele>
        <time>2022-11-30T10:57:26.995Z</time>
      </trkpt>
      <trkpt lat="43.52715" lon="5.51381">
        <ele>292.13086</ele>
        <time>2022-11-30T10:57:55.000Z</time>
      </trkpt>
      <trkpt lat="43.52716" lon="5.51384">
        <ele>291.83121</ele>
        <time>2022-11-30T10:57:58.999Z</time>
      </trkpt>
      <trkpt lat="43.52714" lon="5.5139">
        <ele>291.67846</ele>
        <time>2022-11-30T10:58:08.999Z</time>
      </trkpt>
      <trkpt lat="43.52717" lon="5.51391">
        <ele>291.60219</ele>
        <time>2022-11-30T10:58:19.998Z</time>
      </trkpt>
      <trkpt lat="43.5272" lon="5.51399">
        <ele>291.54083</ele>
        <time>2022-11-30T10:58:26.998Z</time>
      </trkpt>
      <trkpt lat="43.52721" lon="5.51401">
        <ele>291.51959</ele>
        <time>2022-11-30T10:58:29.998Z</time>
      </trkpt>
      <trkpt lat="43.52724" lon="5.51407">
        <ele>291.64503</ele>
        <time>2022-11-30T10:58:47.997Z</time>
      </trkpt>
      <trkpt lat="43.52724" lon="5.5141">
        <ele>291.70376</ele>
        <time>2022-11-30T10:58:49.997Z</time>
      </trkpt>
      <trkpt lat="43.52725" lon="5.51415">
        <ele>291.77501</ele>
        <time>2022-11-30T10:58:52.997Z</time>
      </trkpt>
      <trkpt lat="43.52728" lon="5.51416">
        <ele>291.75575</ele>
        <time>2022-11-30T10:58:56.996Z</time>
      </trkpt>
      <trkpt lat="43.52731" lon="5.51421">
        <ele>291.79471</ele>
        <time>2022-11-30T10:59:01.996Z</time>
      </trkpt>
      <trkpt lat="43.52738" lon="5.51426">
        <ele>291.84651</ele>
        <time>2022-11-30T10:59:11.996Z</time>
      </trkpt>
      <trkpt lat="43.5274" lon="5.51429">
        <ele>291.87208</ele>
        <time>2022-11-30T10:59:13.996Z</time>
      </trkpt>
      <trkpt lat="43.52741" lon="5.51433">
        <ele>291.90647</ele>
        <time>2022-11-30T10:59:19.995Z</time>
      </trkpt>
      <trkpt lat="43.52741" lon="5.51436">
        <ele>291.92839</ele>
        <time>2022-11-30T10:59:23.995Z</time>
      </trkpt>
      <trkpt lat="43.52743" lon="5.51439">
        <ele>291.92047</ele>
        <time>2022-11-30T10:59:26.995Z</time>
      </trkpt>
      <trkpt lat="43.52743" lon="5.51443">
        <ele>291.93325</ele>
        <time>2022-11-30T10:59:30.995Z</time>
      </trkpt>
      <trkpt lat="43.52741" lon="5.51445">
        <ele>291.95237</ele>
        <time>2022-11-30T10:59:32.995Z</time>
      </trkpt>
      <trkpt lat="43.52739" lon="5.51455">
        <ele>291.96261</ele>
        <time>2022-11-30T10:59:40.000Z</time>
      </trkpt>
      <trkpt lat="43.52739" lon="5.51459">
        <ele>291.94826</ele>
        <time>2022-11-30T10:59:43.000Z</time>
      </trkpt>
      <trkpt lat="43.52741" lon="5.51461">
        <ele>291.92439</ele>
        <time>2022-11-30T10:59:47.000Z</time>
      </trkpt>
      <trkpt lat="43.52745" lon="5.51463">
        <ele>291.90295</ele>
        <time>2022-11-30T10:59:54.000Z</time>
      </trkpt>
      <trkpt lat="43.52748" lon="5.51464">
        <ele>291.89177</ele>
        <time>2022-11-30T10:59:56.000Z</time>
      </trkpt>
      <trkpt lat="43.52752" lon="5.51467">
        <ele>291.89331</ele>
        <time>2022-11-30T11:00:01.999Z</time>
      </trkpt>
      <trkpt lat="43.52755" lon="5.51466">
        <ele>291.90536</ele>
        <time>2022-11-30T11:00:04.999Z</time>
      </trkpt>
      <trkpt lat="43.52757" lon="5.51468">
        <ele>291.9335</ele>
        <time>2022-11-30T11:00:09.999Z</time>
      </trkpt>
      <trkpt lat="43.5276" lon="5.51467">
        <ele>291.96256</ele>
        <time>2022-11-30T11:00:12.999Z</time>
      </trkpt>
      <trkpt lat="43.52765" lon="5.51469">
        <ele>292.00012</ele>
        <time>2022-11-30T11:00:22.998Z</time>
      </trkpt>
      <trkpt lat="43.52768" lon="5.51468">
        <ele>292.02623</ele>
        <time>2022-11-30T11:00:28.998Z</time>
      </trkpt>
      <trkpt lat="43.5277" lon="5.51466">
        <ele>292.0593</ele>
        <time>2022-11-30T11:00:31.998Z</time>
      </trkpt>
      <trkpt lat="43.52773" lon="5.51466">
        <ele>292.08352</ele>
        <time>2022-11-30T11:00:33.998Z</time>
      </trkpt>
      <trkpt lat="43.52775" lon="5.51464">
        <ele>292.1193</ele>
        <time>2022-11-30T11:00:36.998Z</time>
      </trkpt>
      <trkpt lat="43.52778" lon="5.51463">
        <ele>292.15202</ele>
        <time>2022-11-30T11:00:40.997Z</time>
      </trkpt>
      <trkpt lat="43.52776" lon="5.51463">
        <ele>292.27088</ele>
        <time>2022-11-30T11:00:53.997Z</time>
      </trkpt>
      <trkpt lat="43.52778" lon="5.51463">
        <ele>292.40817</ele>
        <time>2022-11-30T11:01:37.995Z</time>
      </trkpt>
      <trkpt lat="43.52781" lon="5.51461">
        <ele>292.45611</ele>
        <time>2022-11-30T11:01:48.000Z</time>
      </trkpt>
      <trkpt lat="43.52784" lon="5.5146">
        <ele>292.49235</ele>
        <time>2022-11-30T11:02:09.999Z</time>
      </trkpt>
      <trkpt lat="43.52787" lon="5.51459">
        <ele>292.50811</ele>
        <time>2022-11-30T11:02:31.998Z</time>
      </trkpt>
      <trkpt lat="43.52789" lon="5.51457">
        <ele>292.52014</ele>
        <time>2022-11-30T11:02:34.998Z</time>
      </trkpt>
      <trkpt lat="43.52795" lon="5.51455">
        <ele>292.5511</ele>
        <time>2022-11-30T11:02:39.998Z</time>
      </trkpt>
      <trkpt lat="43.52797" lon="5.51452">
        <ele>292.54353</ele>
        <time>2022-11-30T11:02:43.998Z</time>
      </trkpt>
      <trkpt lat="43.52805" lon="5.51449">
        <ele>292.51209</ele>
        <time>2022-11-30T11:02:52.997Z</time>
      </trkpt>
      <trkpt lat="43.52811" lon="5.51449">
        <ele>292.46053</ele>
        <time>2022-11-30T11:02:58.997Z</time>
      </trkpt>
      <trkpt lat="43.52821" lon="5.51445">
        <ele>292.25278</ele>
        <time>2022-11-30T11:03:11.996Z</time>
      </trkpt>
      <trkpt lat="43.52826" lon="5.51443">
        <ele>292.11679</ele>
        <time>2022-11-30T11:03:16.996Z</time>
      </trkpt>
      <trkpt lat="43.52831" lon="5.5144">
        <ele>291.90372</ele>
        <time>2022-11-30T11:03:33.995Z</time>
      </trkpt>
      <trkpt lat="43.52837" lon="5.51441">
        <ele>291.63254</ele>
        <time>2022-11-30T11:03:48.994Z</time>
      </trkpt>
      <trkpt lat="43.52839" lon="5.51439">
        <ele>291.48341</ele>
        <time>2022-11-30T11:03:52.000Z</time>
      </trkpt>
      <trkpt lat="43.52844" lon="5.51439">
        <ele>291.09398</ele>
        <time>2022-11-30T11:03:58.000Z</time>
      </trkpt>
      <trkpt lat="43.52854" lon="5.51441">
        <ele>290.19545</ele>
        <time>2022-11-30T11:04:11.000Z</time>
      </trkpt>
      <trkpt lat="43.52859" lon="5.5144">
        <ele>289.38736</ele>
        <time>2022-11-30T11:04:17.999Z</time>
      </trkpt>
      <trkpt lat="43.52861" lon="5.51439">
        <ele>288.94063</ele>
        <time>2022-11-30T11:04:20.999Z</time>
      </trkpt>
      <trkpt lat="43.52873" lon="5.51435">
        <ele>286.90674</ele>
        <time>2022-11-30T11:04:32.999Z</time>
      </trkpt>
      <trkpt lat="43.52879" lon="5.51434">
        <ele>285.66683</ele>
        <time>2022-11-30T11:04:38.998Z</time>
      </trkpt>
      <trkpt lat="43.52883" lon="5.51434">
        <ele>284.34846</ele>
        <time>2022-11-30T11:04:54.997Z</time>
      </trkpt>
      <trkpt lat="43.52884" lon="5.51431">
        <ele>283.68321</ele>
        <time>2022-11-30T11:04:58.997Z</time>
      </trkpt>
      <trkpt lat="43.52892" lon="5.51424">
        <ele>281.74402</ele>
        <time>2022-11-30T11:05:06.997Z</time>
      </trkpt>
      <trkpt lat="43.52895" lon="5.51419">
        <ele>280.72022</ele>
        <time>2022-11-30T11:05:13.996Z</time>
      </trkpt>
      <trkpt lat="43.52896" lon="5.51417">
        <ele>279.95412</ele>
        <time>2022-11-30T11:05:18.996Z</time>
      </trkpt>
      <trkpt lat="43.52898" lon="5.51414">
        <ele>279.50105</ele>
        <time>2022-11-30T11:05:21.996Z</time>
      </trkpt>
      <trkpt lat="43.52906" lon="5.51412">
        <ele>278.03796</ele>
        <time>2022-11-30T11:05:28.996Z</time>
      </trkpt>
      <trkpt lat="43.52909" lon="5.51412">
        <ele>277.47308</ele>
        <time>2022-11-30T11:05:31.996Z</time>
      </trkpt>
      <trkpt lat="43.52912" lon="5.5141">
        <ele>276.84029</ele>
        <time>2022-11-30T11:05:34.995Z</time>
      </trkpt>
      <trkpt lat="43.52915" lon="5.5141">
        <ele>276.23884</ele>
        <time>2022-11-30T11:05:36.995Z</time>
      </trkpt>
      <trkpt lat="43.52917" lon="5.51408">
        <ele>275.56598</ele>
        <time>2022-11-30T11:05:39.995Z</time>
      </trkpt>
      <trkpt lat="43.52927" lon="5.51406">
        <ele>272.77118</ele>
        <time>2022-11-30T11:05:50.995Z</time>
      </trkpt>
      <trkpt lat="43.52933" lon="5.51405">
        <ele>271.60437</ele>
        <time>2022-11-30T11:05:57.000Z</time>
      </trkpt>
      <trkpt lat="43.52935" lon="5.51406">
        <ele>271.06255</ele>
        <time>2022-11-30T11:05:59.000Z</time>
      </trkpt>
      <trkpt lat="43.52942" lon="5.51406">
        <ele>269.86615</ele>
        <time>2022-11-30T11:06:05.000Z</time>
      </trkpt>
      <trkpt lat="43.52945" lon="5.51404">
        <ele>269.37545</ele>
        <time>2022-11-30T11:06:08.000Z</time>
      </trkpt>
      <trkpt lat="43.5295" lon="5.51403">
        <ele>268.49437</ele>
        <time>2022-11-30T11:06:14.000Z</time>
      </trkpt>
      <trkpt lat="43.52953" lon="5.51403">
        <ele>268.06206</ele>
        <time>2022-11-30T11:06:17.000Z</time>
      </trkpt>
      <trkpt lat="43.52957" lon="5.51402">
        <ele>267.29175</ele>
        <time>2022-11-30T11:06:20.999Z</time>
      </trkpt>
      <trkpt lat="43.52959" lon="5.514">
        <ele>266.96669</ele>
        <time>2022-11-30T11:06:22.999Z</time>
      </trkpt>
      <trkpt lat="43.52968" lon="5.51398">
        <ele>265.96447</ele>
        <time>2022-11-30T11:06:31.999Z</time>
      </trkpt>
      <trkpt lat="43.5297" lon="5.51396">
        <ele>265.77793</ele>
        <time>2022-11-30T11:06:33.999Z</time>
      </trkpt>
      <trkpt lat="43.52985" lon="5.51394">
        <ele>264.88615</ele>
        <time>2022-11-30T11:06:46.998Z</time>
      </trkpt>
      <trkpt lat="43.52993" lon="5.51393">
        <ele>264.82848</ele>
        <time>2022-11-30T11:06:53.998Z</time>
      </trkpt>
      <trkpt lat="43.52998" lon="5.51391">
        <ele>264.87606</ele>
        <time>2022-11-30T11:06:59.997Z</time>
      </trkpt>
      <trkpt lat="43.53001" lon="5.51389">
        <ele>264.90721</ele>
        <time>2022-11-30T11:07:02.997Z</time>
      </trkpt>
      <trkpt lat="43.53004" lon="5.51388">
        <ele>264.94367</ele>
        <time>2022-11-30T11:07:04.997Z</time>
      </trkpt>
      <trkpt lat="43.53006" lon="5.51387">
        <ele>265.0621</ele>
        <time>2022-11-30T11:07:07.997Z</time>
      </trkpt>
      <trkpt lat="43.5301" lon="5.51381">
        <ele>265.2826</ele>
        <time>2022-11-30T11:07:13.997Z</time>
      </trkpt>
      <trkpt lat="43.53011" lon="5.51377">
        <ele>265.4275</ele>
        <time>2022-11-30T11:07:17.997Z</time>
      </trkpt>
      <trkpt lat="43.53018" lon="5.51372">
        <ele>265.76574</ele>
        <time>2022-11-30T11:07:26.996Z</time>
      </trkpt>
      <trkpt lat="43.53023" lon="5.51375">
        <ele>266.01859</ele>
        <time>2022-11-30T11:07:31.996Z</time>
      </trkpt>
      <trkpt lat="43.53025" lon="5.51375">
        <ele>266.15429</ele>
        <time>2022-11-30T11:07:33.996Z</time>
      </trkpt>
      <trkpt lat="43.53034" lon="5.51377">
        <ele>266.64159</ele>
        <time>2022-11-30T11:07:43.995Z</time>
      </trkpt>
      <trkpt lat="43.53044" lon="5.51379">
        <ele>267.40997</ele>
        <time>2022-11-30T11:07:53.995Z</time>
      </trkpt>
      <trkpt lat="43.53049" lon="5.51378">
        <ele>267.80701</ele>
        <time>2022-11-30T11:07:58.994Z</time>
      </trkpt>
      <trkpt lat="43.53056" lon="5.51378">
        <ele>268.51809</ele>
        <time>2022-11-30T11:08:06.000Z</time>
      </trkpt>
      <trkpt lat="43.53062" lon="5.51379">
        <ele>268.97674</ele>
        <time>2022-11-30T11:08:10.000Z</time>
      </trkpt>
      <trkpt lat="43.53068" lon="5.51379">
        <ele>269.35727</ele>
        <time>2022-11-30T11:08:16.000Z</time>
      </trkpt>
      <trkpt lat="43.53081" lon="5.51378">
        <ele>269.97322</ele>
        <time>2022-11-30T11:08:30.999Z</time>
      </trkpt>
      <trkpt lat="43.53086" lon="5.51378">
        <ele>270.05497</ele>
        <time>2022-11-30T11:08:35.999Z</time>
      </trkpt>
      <trkpt lat="43.53089" lon="5.51377">
        <ele>270.07673</ele>
        <time>2022-11-30T11:08:37.999Z</time>
      </trkpt>
      <trkpt lat="43.53092" lon="5.51378">
        <ele>270.09729</ele>
        <time>2022-11-30T11:08:40.999Z</time>
      </trkpt>
      <trkpt lat="43.53095" lon="5.51378">
        <ele>270.09558</ele>
        <time>2022-11-30T11:08:43.999Z</time>
      </trkpt>
      <trkpt lat="43.53098" lon="5.51377">
        <ele>270.07179</ele>
        <time>2022-11-30T11:08:46.998Z</time>
      </trkpt>
      <trkpt lat="43.53105" lon="5.51373">
        <ele>269.94069</ele>
        <time>2022-11-30T11:08:55.998Z</time>
      </trkpt>
      <trkpt lat="43.5311" lon="5.5137">
        <ele>269.80299</ele>
        <time>2022-11-30T11:09:01.998Z</time>
      </trkpt>
      <trkpt lat="43.53117" lon="5.51362">
        <ele>269.57783</ele>
        <time>2022-11-30T11:09:11.997Z</time>
      </trkpt>
      <trkpt lat="43.53121" lon="5.5135">
        <ele>269.33217</ele>
        <time>2022-11-30T11:09:21.997Z</time>
      </trkpt>
      <trkpt lat="43.53122" lon="5.51346">
        <ele>269.29481</ele>
        <time>2022-11-30T11:09:24.997Z</time>
      </trkpt>
      <trkpt lat="43.53124" lon="5.51343">
        <ele>269.27657</ele>
        <time>2022-11-30T11:09:27.996Z</time>
      </trkpt>
      <trkpt lat="43.53124" lon="5.51332">
        <ele>269.27933</ele>
        <time>2022-11-30T11:09:34.996Z</time>
      </trkpt>
      <trkpt lat="43.53125" lon="5.51328">
        <ele>269.31436</ele>
        <time>2022-11-30T11:09:36.996Z</time>
      </trkpt>
      <trkpt lat="43.53125" lon="5.51321">
        <ele>269.38563</ele>
        <time>2022-11-30T11:09:41.996Z</time>
      </trkpt>
      <trkpt lat="43.53129" lon="5.51301">
        <ele>269.51167</ele>
        <time>2022-11-30T11:09:55.995Z</time>
      </trkpt>
      <trkpt lat="43.53132" lon="5.51288">
        <ele>269.52194</ele>
        <time>2022-11-30T11:10:06.994Z</time>
      </trkpt>
      <trkpt lat="43.53132" lon="5.51283">
        <ele>269.52149</ele>
        <time>2022-11-30T11:10:10.000Z</time>
      </trkpt>
      <trkpt lat="43.53133" lon="5.51279">
        <ele>269.51605</ele>
        <time>2022-11-30T11:10:13.000Z</time>
      </trkpt>
      <trkpt lat="43.53136" lon="5.51265">
        <ele>269.45778</ele>
        <time>2022-11-30T11:10:23.000Z</time>
      </trkpt>
      <trkpt lat="43.53137" lon="5.51262">
        <ele>269.4225</ele>
        <time>2022-11-30T11:10:25.000Z</time>
      </trkpt>
      <trkpt lat="43.53137" lon="5.51258">
        <ele>269.3867</ele>
        <time>2022-11-30T11:10:28.000Z</time>
      </trkpt>
      <trkpt lat="43.53138" lon="5.51247">
        <ele>269.21923</ele>
        <time>2022-11-30T11:10:35.999Z</time>
      </trkpt>
      <trkpt lat="43.5314" lon="5.51244">
        <ele>269.14259</ele>
        <time>2022-11-30T11:10:38.999Z</time>
      </trkpt>
      <trkpt lat="43.53142" lon="5.51235">
        <ele>268.81282</ele>
        <time>2022-11-30T11:10:44.999Z</time>
      </trkpt>
      <trkpt lat="43.53144" lon="5.51221">
        <ele>267.42345</ele>
        <time>2022-11-30T11:10:54.998Z</time>
      </trkpt>
      <trkpt lat="43.53149" lon="5.51201">
        <ele>264.27063</ele>
        <time>2022-11-30T11:11:09.998Z</time>
      </trkpt>
      <trkpt lat="43.5315" lon="5.51199">
        <ele>263.46871</ele>
        <time>2022-11-30T11:11:12.997Z</time>
      </trkpt>
      <trkpt lat="43.53151" lon="5.51195">
        <ele>262.72626</ele>
        <time>2022-11-30T11:11:14.997Z</time>
      </trkpt>
      <trkpt lat="43.53152" lon="5.51187">
        <ele>261.24441</ele>
        <time>2022-11-30T11:11:20.997Z</time>
      </trkpt>
      <trkpt lat="43.53152" lon="5.51176">
        <ele>258.91326</ele>
        <time>2022-11-30T11:11:29.997Z</time>
      </trkpt>
      <trkpt lat="43.53152" lon="5.51171">
        <ele>258.20015</ele>
        <time>2022-11-30T11:11:32.996Z</time>
      </trkpt>
      <trkpt lat="43.5315" lon="5.51166">
        <ele>256.86552</ele>
        <time>2022-11-30T11:11:37.996Z</time>
      </trkpt>
      <trkpt lat="43.5315" lon="5.51162">
        <ele>256.23208</ele>
        <time>2022-11-30T11:11:41.996Z</time>
      </trkpt>
      <trkpt lat="43.53146" lon="5.51148">
        <ele>253.71346</ele>
        <time>2022-11-30T11:11:54.995Z</time>
      </trkpt>
      <trkpt lat="43.53147" lon="5.51141">
        <ele>252.3854</ele>
        <time>2022-11-30T11:12:00.995Z</time>
      </trkpt>
      <trkpt lat="43.53147" lon="5.51137">
        <ele>251.77136</ele>
        <time>2022-11-30T11:12:03.995Z</time>
      </trkpt>
      <trkpt lat="43.53148" lon="5.5113">
        <ele>250.47015</ele>
        <time>2022-11-30T11:12:09.995Z</time>
      </trkpt>
      <trkpt lat="43.53149" lon="5.51126">
        <ele>249.7324</ele>
        <time>2022-11-30T11:12:12.994Z</time>
      </trkpt>
      <trkpt lat="43.53156" lon="5.51114">
        <ele>246.91718</ele>
        <time>2022-11-30T11:12:25.000Z</time>
      </trkpt>
      <trkpt lat="43.53158" lon="5.5111">
        <ele>246.35757</ele>
        <time>2022-11-30T11:12:28.000Z</time>
      </trkpt>
      <trkpt lat="43.5316" lon="5.51107">
        <ele>245.88705</ele>
        <time>2022-11-30T11:12:33.000Z</time>
      </trkpt>
      <trkpt lat="43.53164" lon="5.51103">
        <ele>245.13273</ele>
        <time>2022-11-30T11:12:37.999Z</time>
      </trkpt>
      <trkpt lat="43.53165" lon="5.511">
        <ele>244.84898</ele>
        <time>2022-11-30T11:12:40.999Z</time>
      </trkpt>
      <trkpt lat="43.53167" lon="5.51098">
        <ele>244.59541</ele>
        <time>2022-11-30T11:12:45.999Z</time>
      </trkpt>
      <trkpt lat="43.53169" lon="5.51095">
        <ele>244.33201</ele>
        <time>2022-11-30T11:12:48.999Z</time>
      </trkpt>
      <trkpt lat="43.53172" lon="5.5109">
        <ele>243.79227</ele>
        <time>2022-11-30T11:12:59.998Z</time>
      </trkpt>
      <trkpt lat="43.53173" lon="5.51087">
        <ele>243.50031</ele>
        <time>2022-11-30T11:13:06.998Z</time>
      </trkpt>
      <trkpt lat="43.53173" lon="5.51083">
        <ele>243.0998</ele>
        <time>2022-11-30T11:13:12.998Z</time>
      </trkpt>
      <trkpt lat="43.53171" lon="5.51078">
        <ele>242.36142</ele>
        <time>2022-11-30T11:13:24.997Z</time>
      </trkpt>
      <trkpt lat="43.53174" lon="5.51077">
        <ele>242.05939</ele>
        <time>2022-11-30T11:13:32.997Z</time>
      </trkpt>
      <trkpt lat="43.53176" lon="5.51077">
        <ele>241.70148</ele>
        <time>2022-11-30T11:13:44.996Z</time>
      </trkpt>
      <trkpt lat="43.5318" lon="5.51076">
        <ele>241.38182</ele>
        <time>2022-11-30T11:14:01.995Z</time>
      </trkpt>
      <trkpt lat="43.53182" lon="5.51076">
        <ele>241.08088</ele>
        <time>2022-11-30T11:14:06.995Z</time>
      </trkpt>
      <trkpt lat="43.53185" lon="5.51077">
        <ele>240.81057</ele>
        <time>2022-11-30T11:14:11.995Z</time>
      </trkpt>
      <trkpt lat="43.53189" lon="5.51076">
        <ele>240.4161</ele>
        <time>2022-11-30T11:14:22.000Z</time>
      </trkpt>
      <trkpt lat="43.53192" lon="5.51077">
        <ele>240.24111</ele>
        <time>2022-11-30T11:14:27.000Z</time>
      </trkpt>
      <trkpt lat="43.53193" lon="5.51082">
        <ele>240.11263</ele>
        <time>2022-11-30T11:14:41.000Z</time>
      </trkpt>
      <trkpt lat="43.53192" lon="5.51086">
        <ele>240.09802</ele>
        <time>2022-11-30T11:15:16.998Z</time>
      </trkpt>
      <trkpt lat="43.53193" lon="5.51089">
        <ele>240.08247</ele>
        <time>2022-11-30T11:15:33.997Z</time>
      </trkpt>
      <trkpt lat="43.53194" lon="5.51092">
        <ele>240.07781</ele>
        <time>2022-11-30T11:15:39.997Z</time>
      </trkpt>
      <trkpt lat="43.53197" lon="5.51094">
        <ele>240.06102</ele>
        <time>2022-11-30T11:15:43.996Z</time>
      </trkpt>
      <trkpt lat="43.53197" lon="5.51099">
        <ele>240.03945</ele>
        <time>2022-11-30T11:15:49.996Z</time>
      </trkpt>
      <trkpt lat="43.53197" lon="5.51102">
        <ele>240.05651</ele>
        <time>2022-11-30T11:15:54.996Z</time>
      </trkpt>
      <trkpt lat="43.53201" lon="5.51114">
        <ele>240.02047</ele>
        <time>2022-11-30T11:16:29.000Z</time>
      </trkpt>
      <trkpt lat="43.53203" lon="5.51116">
        <ele>240.00744</ele>
        <time>2022-11-30T11:16:38.000Z</time>
      </trkpt>
      <trkpt lat="43.53206" lon="5.51121">
        <ele>239.95319</ele>
        <time>2022-11-30T11:16:47.000Z</time>
      </trkpt>
      <trkpt lat="43.5321" lon="5.51125">
        <ele>239.79604</ele>
        <time>2022-11-30T11:17:41.997Z</time>
      </trkpt>
      <trkpt lat="43.53211" lon="5.51128">
        <ele>239.68412</ele>
        <time>2022-11-30T11:18:09.995Z</time>
      </trkpt>
      <trkpt lat="43.53216" lon="5.51131">
        <ele>239.38424</ele>
        <time>2022-11-30T11:18:16.995Z</time>
      </trkpt>
      <trkpt lat="43.5322" lon="5.51135">
        <ele>238.9876</ele>
        <time>2022-11-30T11:18:29.994Z</time>
      </trkpt>
      <trkpt lat="43.53231" lon="5.5114">
        <ele>237.62787</ele>
        <time>2022-11-30T11:18:42.000Z</time>
      </trkpt>
      <trkpt lat="43.53237" lon="5.51141">
        <ele>236.7071</ele>
        <time>2022-11-30T11:18:50.000Z</time>
      </trkpt>
      <trkpt lat="43.53239" lon="5.51141">
        <ele>236.15672</ele>
        <time>2022-11-30T11:18:55.000Z</time>
      </trkpt>
      <trkpt lat="43.53241" lon="5.5114">
        <ele>235.51583</ele>
        <time>2022-11-30T11:19:01.999Z</time>
      </trkpt>
      <trkpt lat="43.53247" lon="5.5114">
        <ele>234.19374</ele>
        <time>2022-11-30T11:19:08.999Z</time>
      </trkpt>
      <trkpt lat="43.53253" lon="5.51138">
        <ele>232.81154</ele>
        <time>2022-11-30T11:19:15.998Z</time>
      </trkpt>
      <trkpt lat="43.53254" lon="5.51141">
        <ele>232.32633</ele>
        <time>2022-11-30T11:19:23.998Z</time>
      </trkpt>
      <trkpt lat="43.53257" lon="5.51142">
        <ele>231.51163</ele>
        <time>2022-11-30T11:20:33.994Z</time>
      </trkpt>
      <trkpt lat="43.53257" lon="5.51143">
        <ele>230.74067</ele>
        <time>2022-11-30T11:21:48.997Z</time>
      </trkpt>
      <trkpt lat="43.53268" lon="5.51154">
        <ele>230.96332</ele>
        <time>2022-11-30T11:22:33.995Z</time>
      </trkpt>
      <trkpt lat="43.5327" lon="5.51157">
        <ele>231.1725</ele>
        <time>2022-11-30T11:22:35.995Z</time>
      </trkpt>
      <trkpt lat="43.53273" lon="5.51161">
        <ele>231.86522</ele>
        <time>2022-11-30T11:22:39.995Z</time>
      </trkpt>
      <trkpt lat="43.53275" lon="5.51164">
        <ele>232.28264</ele>
        <time>2022-11-30T11:22:42.994Z</time>
      </trkpt>
      <trkpt lat="43.53277" lon="5.51166">
        <ele>232.77449</ele>
        <time>2022-11-30T11:22:46.000Z</time>
      </trkpt>
      <trkpt lat="43.5328" lon="5.51175">
        <ele>234.49873</ele>
        <time>2022-11-30T11:22:54.000Z</time>
      </trkpt>
      <trkpt lat="43.53285" lon="5.51182">
        <ele>236.21842</ele>
        <time>2022-11-30T11:23:02.000Z</time>
      </trkpt>
      <trkpt lat="43.53288" lon="5.51184">
        <ele>236.75462</ele>
        <time>2022-11-30T11:23:05.000Z</time>
      </trkpt>
      <trkpt lat="43.533" lon="5.51181">
        <ele>238.79178</ele>
        <time>2022-11-30T11:23:14.999Z</time>
      </trkpt>
      <trkpt lat="43.53305" lon="5.51179">
        <ele>239.6609</ele>
        <time>2022-11-30T11:23:19.999Z</time>
      </trkpt>
      <trkpt lat="43.5331" lon="5.51178">
        <ele>240.47828</ele>
        <time>2022-11-30T11:23:24.999Z</time>
      </trkpt>
      <trkpt lat="43.53316" lon="5.51181">
        <ele>241.62232</ele>
        <time>2022-11-30T11:23:31.998Z</time>
      </trkpt>
      <trkpt lat="43.53318" lon="5.51183">
        <ele>242.09351</ele>
        <time>2022-11-30T11:23:34.998Z</time>
      </trkpt>
      <trkpt lat="43.5332" lon="5.51188">
        <ele>242.7646</ele>
        <time>2022-11-30T11:23:39.998Z</time>
      </trkpt>
      <trkpt lat="43.53318" lon="5.51194">
        <ele>244.08233</ele>
        <time>2022-11-30T11:23:46.997Z</time>
      </trkpt>
      <trkpt lat="43.53312" lon="5.51203">
        <ele>245.87128</ele>
        <time>2022-11-30T11:23:56.997Z</time>
      </trkpt>
      <trkpt lat="43.5331" lon="5.51206">
        <ele>246.3093</ele>
        <time>2022-11-30T11:23:59.997Z</time>
      </trkpt>
      <trkpt lat="43.53308" lon="5.51212">
        <ele>246.77217</ele>
        <time>2022-11-30T11:24:04.997Z</time>
      </trkpt>
      <trkpt lat="43.53305" lon="5.51214">
        <ele>246.99805</ele>
        <time>2022-11-30T11:24:09.996Z</time>
      </trkpt>
      <trkpt lat="43.53305" lon="5.51218">
        <ele>247.04641</ele>
        <time>2022-11-30T11:24:12.996Z</time>
      </trkpt>
      <trkpt lat="43.53305" lon="5.51224">
        <ele>247.07238</ele>
        <time>2022-11-30T11:24:19.996Z</time>
      </trkpt>
      <trkpt lat="43.53304" lon="5.51226">
        <ele>247.0843</ele>
        <time>2022-11-30T11:24:22.996Z</time>
      </trkpt>
      <trkpt lat="43.53303" lon="5.51234">
        <ele>247.3269</ele>
        <time>2022-11-30T11:24:32.995Z</time>
      </trkpt>
      <trkpt lat="43.53302" lon="5.51236">
        <ele>247.48123</ele>
        <time>2022-11-30T11:24:37.995Z</time>
      </trkpt>
      <trkpt lat="43.53301" lon="5.5124">
        <ele>247.64451</ele>
        <time>2022-11-30T11:24:41.995Z</time>
      </trkpt>
      <trkpt lat="43.53298" lon="5.51249">
        <ele>248.13576</ele>
        <time>2022-11-30T11:24:49.994Z</time>
      </trkpt>
      <trkpt lat="43.53296" lon="5.51251">
        <ele>248.348</ele>
        <time>2022-11-30T11:24:53.000Z</time>
      </trkpt>
      <trkpt lat="43.53294" lon="5.51254">
        <ele>248.59984</ele>
        <time>2022-11-30T11:24:56.000Z</time>
      </trkpt>
      <trkpt lat="43.53292" lon="5.51255">
        <ele>248.71824</ele>
        <time>2022-11-30T11:24:59.000Z</time>
      </trkpt>
      <trkpt lat="43.5329" lon="5.51259">
        <ele>248.81763</ele>
        <time>2022-11-30T11:25:01.000Z</time>
      </trkpt>
      <trkpt lat="43.53286" lon="5.51263">
        <ele>248.87717</ele>
        <time>2022-11-30T11:25:08.000Z</time>
      </trkpt>
      <trkpt lat="43.53284" lon="5.51265">
        <ele>248.8582</ele>
        <time>2022-11-30T11:25:12.000Z</time>
      </trkpt>
      <trkpt lat="43.5328" lon="5.51269">
        <ele>248.78256</ele>
        <time>2022-11-30T11:25:17.999Z</time>
      </trkpt>
      <trkpt lat="43.5328" lon="5.51272">
        <ele>248.6862</ele>
        <time>2022-11-30T11:25:20.999Z</time>
      </trkpt>
      <trkpt lat="43.53281" lon="5.51276">
        <ele>248.65006</ele>
        <time>2022-11-30T11:25:25.999Z</time>
      </trkpt>
      <trkpt lat="43.53283" lon="5.51278">
        <ele>248.61255</ele>
        <time>2022-11-30T11:25:29.999Z</time>
      </trkpt>
      <trkpt lat="43.53284" lon="5.51281">
        <ele>248.60518</ele>
        <time>2022-11-30T11:25:32.999Z</time>
      </trkpt>
      <trkpt lat="43.53287" lon="5.51286">
        <ele>248.61814</ele>
        <time>2022-11-30T11:25:37.998Z</time>
      </trkpt>
      <trkpt lat="43.53288" lon="5.5129">
        <ele>248.66619</ele>
        <time>2022-11-30T11:25:40.998Z</time>
      </trkpt>
      <trkpt lat="43.53291" lon="5.51295">
        <ele>248.74276</ele>
        <time>2022-11-30T11:25:45.998Z</time>
      </trkpt>
      <trkpt lat="43.53292" lon="5.51299">
        <ele>248.84411</ele>
        <time>2022-11-30T11:25:48.998Z</time>
      </trkpt>
      <trkpt lat="43.53294" lon="5.51301">
        <ele>248.913</ele>
        <time>2022-11-30T11:25:51.998Z</time>
      </trkpt>
      <trkpt lat="43.53296" lon="5.51302">
        <ele>249.00305</ele>
        <time>2022-11-30T11:25:55.997Z</time>
      </trkpt>
      <trkpt lat="43.533" lon="5.51298">
        <ele>249.42061</ele>
        <time>2022-11-30T11:26:19.996Z</time>
      </trkpt>
      <trkpt lat="43.53302" lon="5.51299">
        <ele>249.68879</ele>
        <time>2022-11-30T11:26:25.996Z</time>
      </trkpt>
      <trkpt lat="43.53304" lon="5.51302">
        <ele>250.02252</ele>
        <time>2022-11-30T11:26:31.996Z</time>
      </trkpt>
      <trkpt lat="43.53307" lon="5.51302">
        <ele>250.43596</ele>
        <time>2022-11-30T11:26:35.995Z</time>
      </trkpt>
      <trkpt lat="43.53311" lon="5.51304">
        <ele>251.86302</ele>
        <time>2022-11-30T11:27:00.000Z</time>
      </trkpt>
      <trkpt lat="43.53313" lon="5.51305">
        <ele>252.3176</ele>
        <time>2022-11-30T11:27:05.000Z</time>
      </trkpt>
      <trkpt lat="43.53316" lon="5.51305">
        <ele>252.82738</ele>
        <time>2022-11-30T11:27:10.000Z</time>
      </trkpt>
      <trkpt lat="43.53319" lon="5.51306">
        <ele>253.33338</ele>
        <time>2022-11-30T11:27:14.000Z</time>
      </trkpt>
      <trkpt lat="43.53322" lon="5.51305">
        <ele>253.7968</ele>
        <time>2022-11-30T11:27:17.000Z</time>
      </trkpt>
      <trkpt lat="43.53324" lon="5.51306">
        <ele>254.22842</ele>
        <time>2022-11-30T11:27:19.000Z</time>
      </trkpt>
      <trkpt lat="43.53327" lon="5.51304">
        <ele>254.63051</ele>
        <time>2022-11-30T11:27:22.999Z</time>
      </trkpt>
      <trkpt lat="43.53331" lon="5.51306">
        <ele>255.03882</ele>
        <time>2022-11-30T11:27:25.999Z</time>
      </trkpt>
      <trkpt lat="43.53334" lon="5.51306">
        <ele>255.4133</ele>
        <time>2022-11-30T11:27:30.999Z</time>
      </trkpt>
      <trkpt lat="43.53336" lon="5.51306">
        <ele>255.80704</ele>
        <time>2022-11-30T11:27:33.999Z</time>
      </trkpt>
      <trkpt lat="43.53339" lon="5.51305">
        <ele>256.15387</ele>
        <time>2022-11-30T11:27:36.999Z</time>
      </trkpt>
      <trkpt lat="43.53341" lon="5.51306">
        <ele>256.47155</ele>
        <time>2022-11-30T11:27:37.999Z</time>
      </trkpt>
      <trkpt lat="43.5335" lon="5.51304">
        <ele>257.48145</ele>
        <time>2022-11-30T11:27:45.998Z</time>
      </trkpt>
      <trkpt lat="43.53355" lon="5.51301">
        <ele>258.16053</ele>
        <time>2022-11-30T11:27:49.998Z</time>
      </trkpt>
      <trkpt lat="43.53357" lon="5.513">
        <ele>258.45413</ele>
        <time>2022-11-30T11:27:51.998Z</time>
      </trkpt>
      <trkpt lat="43.5336" lon="5.51298">
        <ele>258.77138</ele>
        <time>2022-11-30T11:27:55.998Z</time>
      </trkpt>
      <trkpt lat="43.53363" lon="5.51296">
        <ele>259.06968</ele>
        <time>2022-11-30T11:27:59.998Z</time>
      </trkpt>
      <trkpt lat="43.53369" lon="5.51295">
        <ele>259.67526</ele>
        <time>2022-11-30T11:28:03.997Z</time>
      </trkpt>
      <trkpt lat="43.53378" lon="5.51294">
        <ele>260.60687</ele>
        <time>2022-11-30T11:28:11.997Z</time>
      </trkpt>
      <trkpt lat="43.53382" lon="5.51293">
        <ele>260.95033</ele>
        <time>2022-11-30T11:28:15.997Z</time>
      </trkpt>
      <trkpt lat="43.53384" lon="5.51293">
        <ele>261.32158</ele>
        <time>2022-11-30T11:28:20.997Z</time>
      </trkpt>
      <trkpt lat="43.53391" lon="5.51291">
        <ele>262.09085</ele>
        <time>2022-11-30T11:28:26.996Z</time>
      </trkpt>
      <trkpt lat="43.53394" lon="5.5129">
        <ele>262.44315</ele>
        <time>2022-11-30T11:28:29.996Z</time>
      </trkpt>
      <trkpt lat="43.53398" lon="5.51286">
        <ele>263.16526</ele>
        <time>2022-11-30T11:28:34.996Z</time>
      </trkpt>
      <trkpt lat="43.53401" lon="5.5128">
        <ele>263.77783</ele>
        <time>2022-11-30T11:28:39.996Z</time>
      </trkpt>
      <trkpt lat="43.53405" lon="5.51274">
        <ele>264.34337</ele>
        <time>2022-11-30T11:28:44.995Z</time>
      </trkpt>
      <trkpt lat="43.53407" lon="5.51263">
        <ele>265.06788</ele>
        <time>2022-11-30T11:28:51.995Z</time>
      </trkpt>
      <trkpt lat="43.53409" lon="5.51257">
        <ele>265.49791</ele>
        <time>2022-11-30T11:28:58.995Z</time>
      </trkpt>
      <trkpt lat="43.53414" lon="5.51247">
        <ele>266.05362</ele>
        <time>2022-11-30T11:29:08.000Z</time>
      </trkpt>
      <trkpt lat="43.53422" lon="5.51236">
        <ele>266.62465</ele>
        <time>2022-11-30T11:29:20.000Z</time>
      </trkpt>
      <trkpt lat="43.53427" lon="5.51233">
        <ele>266.82959</ele>
        <time>2022-11-30T11:29:26.000Z</time>
      </trkpt>
      <trkpt lat="43.5343" lon="5.51233">
        <ele>266.94881</ele>
        <time>2022-11-30T11:29:28.999Z</time>
      </trkpt>
      <trkpt lat="43.53432" lon="5.51235">
        <ele>267.07793</ele>
        <time>2022-11-30T11:29:30.999Z</time>
      </trkpt>
      <trkpt lat="43.53436" lon="5.5124">
        <ele>267.38932</ele>
        <time>2022-11-30T11:29:35.999Z</time>
      </trkpt>
      <trkpt lat="43.53438" lon="5.51245">
        <ele>267.57728</ele>
        <time>2022-11-30T11:29:39.999Z</time>
      </trkpt>
      <trkpt lat="43.53444" lon="5.51255">
        <ele>268.17805</ele>
        <time>2022-11-30T11:29:47.998Z</time>
      </trkpt>
      <trkpt lat="43.53448" lon="5.51259">
        <ele>268.63213</ele>
        <time>2022-11-30T11:29:53.998Z</time>
      </trkpt>
      <trkpt lat="43.53451" lon="5.51264">
        <ele>269.11816</ele>
        <time>2022-11-30T11:29:57.998Z</time>
      </trkpt>
      <trkpt lat="43.53455" lon="5.51269">
        <ele>269.68727</ele>
        <time>2022-11-30T11:30:01.998Z</time>
      </trkpt>
      <trkpt lat="43.5346" lon="5.51274">
        <ele>270.26254</ele>
        <time>2022-11-30T11:30:08.997Z</time>
      </trkpt>
      <trkpt lat="43.5346" lon="5.51278">
        <ele>270.56853</ele>
        <time>2022-11-30T11:30:11.997Z</time>
      </trkpt>
      <trkpt lat="43.53471" lon="5.51282">
        <ele>271.72472</ele>
        <time>2022-11-30T11:30:22.997Z</time>
      </trkpt>
      <trkpt lat="43.53473" lon="5.51284">
        <ele>271.97908</ele>
        <time>2022-11-30T11:30:24.997Z</time>
      </trkpt>
      <trkpt lat="43.53475" lon="5.51284">
        <ele>272.26736</ele>
        <time>2022-11-30T11:30:26.996Z</time>
      </trkpt>
      <trkpt lat="43.53478" lon="5.51285">
        <ele>272.52855</ele>
        <time>2022-11-30T11:30:29.996Z</time>
      </trkpt>
      <trkpt lat="43.53481" lon="5.51286">
        <ele>272.79516</ele>
        <time>2022-11-30T11:30:32.996Z</time>
      </trkpt>
      <trkpt lat="43.53487" lon="5.51288">
        <ele>273.23608</ele>
        <time>2022-11-30T11:30:38.996Z</time>
      </trkpt>
      <trkpt lat="43.53493" lon="5.51288">
        <ele>273.72416</ele>
        <time>2022-11-30T11:30:43.996Z</time>
      </trkpt>
      <trkpt lat="43.53498" lon="5.51286">
        <ele>274.16388</ele>
        <time>2022-11-30T11:30:48.995Z</time>
      </trkpt>
      <trkpt lat="43.53503" lon="5.51282">
        <ele>274.64923</ele>
        <time>2022-11-30T11:30:54.995Z</time>
      </trkpt>
      <trkpt lat="43.53504" lon="5.51279">
        <ele>274.92956</ele>
        <time>2022-11-30T11:30:56.995Z</time>
      </trkpt>
      <trkpt lat="43.53506" lon="5.51276">
        <ele>275.1744</ele>
        <time>2022-11-30T11:30:59.995Z</time>
      </trkpt>
      <trkpt lat="43.53508" lon="5.51274">
        <ele>275.43892</ele>
        <time>2022-11-30T11:31:01.995Z</time>
      </trkpt>
      <trkpt lat="43.5351" lon="5.51268">
        <ele>275.95634</ele>
        <time>2022-11-30T11:31:06.994Z</time>
      </trkpt>
      <trkpt lat="43.53513" lon="5.51265">
        <ele>276.20442</ele>
        <time>2022-11-30T11:31:10.000Z</time>
      </trkpt>
      <trkpt lat="43.53514" lon="5.51258">
        <ele>276.74086</ele>
        <time>2022-11-30T11:31:18.000Z</time>
      </trkpt>
      <trkpt lat="43.53514" lon="5.51248">
        <ele>277.24698</ele>
        <time>2022-11-30T11:31:24.000Z</time>
      </trkpt>
      <trkpt lat="43.53515" lon="5.51245">
        <ele>277.50058</ele>
        <time>2022-11-30T11:31:26.000Z</time>
      </trkpt>
      <trkpt lat="43.53514" lon="5.51236">
        <ele>278.10937</ele>
        <time>2022-11-30T11:31:32.000Z</time>
      </trkpt>
      <trkpt lat="43.53512" lon="5.51233">
        <ele>278.44337</ele>
        <time>2022-11-30T11:31:35.999Z</time>
      </trkpt>
      <trkpt lat="43.53507" lon="5.5123">
        <ele>279.01795</ele>
        <time>2022-11-30T11:31:41.999Z</time>
      </trkpt>
      <trkpt lat="43.53503" lon="5.51221">
        <ele>279.83176</ele>
        <time>2022-11-30T11:31:50.999Z</time>
      </trkpt>
      <trkpt lat="43.53502" lon="5.51218">
        <ele>280.09985</ele>
        <time>2022-11-30T11:31:52.999Z</time>
      </trkpt>
      <trkpt lat="43.53504" lon="5.51212">
        <ele>280.52716</ele>
        <time>2022-11-30T11:31:56.998Z</time>
      </trkpt>
      <trkpt lat="43.53509" lon="5.51206">
        <ele>281.04893</ele>
        <time>2022-11-30T11:32:03.998Z</time>
      </trkpt>
      <trkpt lat="43.53515" lon="5.51199">
        <ele>282.0281</ele>
        <time>2022-11-30T11:32:12.998Z</time>
      </trkpt>
      <trkpt lat="43.53517" lon="5.51197">
        <ele>282.42584</ele>
        <time>2022-11-30T11:32:15.997Z</time>
      </trkpt>
      <trkpt lat="43.53521" lon="5.51193">
        <ele>283.19545</ele>
        <time>2022-11-30T11:32:20.997Z</time>
      </trkpt>
      <trkpt lat="43.53523" lon="5.51184">
        <ele>284.00503</ele>
        <time>2022-11-30T11:32:26.997Z</time>
      </trkpt>
      <trkpt lat="43.53527" lon="5.51171">
        <ele>286.00994</ele>
        <time>2022-11-30T11:32:37.996Z</time>
      </trkpt>
      <trkpt lat="43.53528" lon="5.51168">
        <ele>286.54236</ele>
        <time>2022-11-30T11:32:39.996Z</time>
      </trkpt>
      <trkpt lat="43.53531" lon="5.51158">
        <ele>288.11762</ele>
        <time>2022-11-30T11:32:50.996Z</time>
      </trkpt>
      <trkpt lat="43.53537" lon="5.5115">
        <ele>289.59911</ele>
        <time>2022-11-30T11:32:58.995Z</time>
      </trkpt>
      <trkpt lat="43.53539" lon="5.51147">
        <ele>290.01237</ele>
        <time>2022-11-30T11:33:02.995Z</time>
      </trkpt>
      <trkpt lat="43.5354" lon="5.51143">
        <ele>290.42158</ele>
        <time>2022-11-30T11:33:05.995Z</time>
      </trkpt>
      <trkpt lat="43.53541" lon="5.5114">
        <ele>290.83242</ele>
        <time>2022-11-30T11:33:07.995Z</time>
      </trkpt>
      <trkpt lat="43.53544" lon="5.51133">
        <ele>291.65993</ele>
        <time>2022-11-30T11:33:13.995Z</time>
      </trkpt>
      <trkpt lat="43.53549" lon="5.51128">
        <ele>292.44859</ele>
        <time>2022-11-30T11:33:20.000Z</time>
      </trkpt>
      <trkpt lat="43.53551" lon="5.51126">
        <ele>292.79728</ele>
        <time>2022-11-30T11:33:23.000Z</time>
      </trkpt>
      <trkpt lat="43.53555" lon="5.51118">
        <ele>293.53782</ele>
        <time>2022-11-30T11:33:30.000Z</time>
      </trkpt>
      <trkpt lat="43.53557" lon="5.51116">
        <ele>293.96249</ele>
        <time>2022-11-30T11:33:34.000Z</time>
      </trkpt>
      <trkpt lat="43.53559" lon="5.51112">
        <ele>294.4411</ele>
        <time>2022-11-30T11:33:37.000Z</time>
      </trkpt>
      <trkpt lat="43.53561" lon="5.51112">
        <ele>294.90696</ele>
        <time>2022-11-30T11:33:38.999Z</time>
      </trkpt>
      <trkpt lat="43.53564" lon="5.51101">
        <ele>296.35935</ele>
        <time>2022-11-30T11:33:48.999Z</time>
      </trkpt>
      <trkpt lat="43.53567" lon="5.51099">
        <ele>296.95632</ele>
        <time>2022-11-30T11:33:54.999Z</time>
      </trkpt>
      <trkpt lat="43.53569" lon="5.51098">
        <ele>297.59185</ele>
        <time>2022-11-30T11:33:58.998Z</time>
      </trkpt>
      <trkpt lat="43.53574" lon="5.51093">
        <ele>299.01453</ele>
        <time>2022-11-30T11:34:04.998Z</time>
      </trkpt>
      <trkpt lat="43.53579" lon="5.51092">
        <ele>300.42402</ele>
        <time>2022-11-30T11:34:11.998Z</time>
      </trkpt>
      <trkpt lat="43.53579" lon="5.51088">
        <ele>301.16041</ele>
        <time>2022-11-30T11:34:16.998Z</time>
      </trkpt>
      <trkpt lat="43.53582" lon="5.51081">
        <ele>302.70279</ele>
        <time>2022-11-30T11:34:23.997Z</time>
      </trkpt>
      <trkpt lat="43.53584" lon="5.51076">
        <ele>304.46954</ele>
        <time>2022-11-30T11:34:30.997Z</time>
      </trkpt>
      <trkpt lat="43.53588" lon="5.51072">
        <ele>306.31117</ele>
        <time>2022-11-30T11:34:37.996Z</time>
      </trkpt>
      <trkpt lat="43.53591" lon="5.51071">
        <ele>307.0319</ele>
        <time>2022-11-30T11:34:39.996Z</time>
      </trkpt>
      <trkpt lat="43.53594" lon="5.51069">
        <ele>307.97743</ele>
        <time>2022-11-30T11:34:44.996Z</time>
      </trkpt>
      <trkpt lat="43.53596" lon="5.51068">
        <ele>308.95045</ele>
        <time>2022-11-30T11:34:48.996Z</time>
      </trkpt>
      <trkpt lat="43.53604" lon="5.51068">
        <ele>311.18318</ele>
        <time>2022-11-30T11:34:56.996Z</time>
      </trkpt>
      <trkpt lat="43.53612" lon="5.51065">
        <ele>312.83991</ele>
        <time>2022-11-30T11:35:07.995Z</time>
      </trkpt>
      <trkpt lat="43.53617" lon="5.51062">
        <ele>313.66489</ele>
        <time>2022-11-30T11:35:13.995Z</time>
      </trkpt>
      <trkpt lat="43.53619" lon="5.51062">
        <ele>314.07355</ele>
        <time>2022-11-30T11:35:16.995Z</time>
      </trkpt>
      <trkpt lat="43.53626" lon="5.51058">
        <ele>315.23561</ele>
        <time>2022-11-30T11:35:27.000Z</time>
      </trkpt>
      <trkpt lat="43.53631" lon="5.51057">
        <ele>316.19634</ele>
        <time>2022-11-30T11:35:34.000Z</time>
      </trkpt>
      <trkpt lat="43.53635" lon="5.51055">
        <ele>316.95847</ele>
        <time>2022-11-30T11:35:41.000Z</time>
      </trkpt>
      <trkpt lat="43.53637" lon="5.51058">
        <ele>317.33418</ele>
        <time>2022-11-30T11:35:43.000Z</time>
      </trkpt>
      <trkpt lat="43.5364" lon="5.51059">
        <ele>317.75055</ele>
        <time>2022-11-30T11:35:46.999Z</time>
      </trkpt>
      <trkpt lat="43.53644" lon="5.51059">
        <ele>318.42497</ele>
        <time>2022-11-30T11:35:52.999Z</time>
      </trkpt>
      <trkpt lat="43.5365" lon="5.51061">
        <ele>319.05227</ele>
        <time>2022-11-30T11:35:58.999Z</time>
      </trkpt>
      <trkpt lat="43.53653" lon="5.51063">
        <ele>319.34937</ele>
        <time>2022-11-30T11:36:02.999Z</time>
      </trkpt>
      <trkpt lat="43.53654" lon="5.51066">
        <ele>319.60849</ele>
        <time>2022-11-30T11:36:05.998Z</time>
      </trkpt>
      <trkpt lat="43.53655" lon="5.51069">
        <ele>319.73312</ele>
        <time>2022-11-30T11:36:10.998Z</time>
      </trkpt>
      <trkpt lat="43.53656" lon="5.51069">
        <ele>319.61355</ele>
        <time>2022-11-30T11:36:34.997Z</time>
      </trkpt>
      <trkpt lat="43.5366" lon="5.51069">
        <ele>319.60691</ele>
        <time>2022-11-30T11:36:37.997Z</time>
      </trkpt>
      <trkpt lat="43.53662" lon="5.5107">
        <ele>319.68364</ele>
        <time>2022-11-30T11:36:40.997Z</time>
      </trkpt>
      <trkpt lat="43.53664" lon="5.51073">
        <ele>319.74771</ele>
        <time>2022-11-30T11:36:43.996Z</time>
      </trkpt>
      <trkpt lat="43.53671" lon="5.51078">
        <ele>319.96928</ele>
        <time>2022-11-30T11:36:51.996Z</time>
      </trkpt>
      <trkpt lat="43.53674" lon="5.51079">
        <ele>320.05623</ele>
        <time>2022-11-30T11:36:53.996Z</time>
      </trkpt>
      <trkpt lat="43.53677" lon="5.51078">
        <ele>320.18664</ele>
        <time>2022-11-30T11:36:56.996Z</time>
      </trkpt>
      <trkpt lat="43.53679" lon="5.51076">
        <ele>320.2813</ele>
        <time>2022-11-30T11:36:59.996Z</time>
      </trkpt>
      <trkpt lat="43.53684" lon="5.51079">
        <ele>320.55256</ele>
        <time>2022-11-30T11:37:07.995Z</time>
      </trkpt>
      <trkpt lat="43.53687" lon="5.5108">
        <ele>320.71278</ele>
        <time>2022-11-30T11:37:10.995Z</time>
      </trkpt>
      <trkpt lat="43.53688" lon="5.51084">
        <ele>320.8374</ele>
        <time>2022-11-30T11:37:13.995Z</time>
      </trkpt>
      <trkpt lat="43.5369" lon="5.51086">
        <ele>320.9768</ele>
        <time>2022-11-30T11:37:16.995Z</time>
      </trkpt>
      <trkpt lat="43.53697" lon="5.51088">
        <ele>321.23925</ele>
        <time>2022-11-30T11:37:21.995Z</time>
      </trkpt>
      <trkpt lat="43.537" lon="5.51087">
        <ele>321.37703</ele>
        <time>2022-11-30T11:37:24.994Z</time>
      </trkpt>
      <trkpt lat="43.53702" lon="5.51089">
        <ele>321.52638</ele>
        <time>2022-11-30T11:37:28.000Z</time>
      </trkpt>
      <trkpt lat="43.53703" lon="5.51094">
        <ele>322.12013</ele>
        <time>2022-11-30T11:37:56.999Z</time>
      </trkpt>
      <trkpt lat="43.53703" lon="5.51091">
        <ele>322.56269</ele>
        <time>2022-11-30T11:40:23.998Z</time>
      </trkpt>
      <trkpt lat="43.53701" lon="5.51088">
        <ele>322.66755</ele>
        <time>2022-11-30T11:44:02.000Z</time>
      </trkpt>
      <trkpt lat="43.53699" lon="5.51087">
        <ele>322.75748</ele>
        <time>2022-11-30T11:44:08.000Z</time>
      </trkpt>
      <trkpt lat="43.53698" lon="5.51087">
        <ele>323.18761</ele>
        <time>2022-11-30T11:45:45.995Z</time>
      </trkpt>
      <trkpt lat="43.53705" lon="5.51091">
        <ele>323.2509</ele>
        <time>2022-11-30T11:48:54.998Z</time>
      </trkpt>
      <trkpt lat="43.5371" lon="5.511">
        <ele>323.44375</ele>
        <time>2022-11-30T11:49:02.997Z</time>
      </trkpt>
      <trkpt lat="43.53711" lon="5.51103">
        <ele>323.50705</ele>
        <time>2022-11-30T11:49:04.997Z</time>
      </trkpt>
      <trkpt lat="43.53716" lon="5.5111">
        <ele>323.62087</ele>
        <time>2022-11-30T11:49:08.997Z</time>
      </trkpt>
      <trkpt lat="43.53717" lon="5.51114">
        <ele>323.68915</ele>
        <time>2022-11-30T11:49:10.997Z</time>
      </trkpt>
      <trkpt lat="43.53722" lon="5.5112">
        <ele>323.80008</ele>
        <time>2022-11-30T11:49:14.997Z</time>
      </trkpt>
      <trkpt lat="43.53729" lon="5.51126">
        <ele>323.98151</ele>
        <time>2022-11-30T11:49:22.996Z</time>
      </trkpt>
      <trkpt lat="43.53731" lon="5.51128">
        <ele>324.0525</ele>
        <time>2022-11-30T11:49:25.996Z</time>
      </trkpt>
      <trkpt lat="43.53734" lon="5.51131">
        <ele>324.11456</ele>
        <time>2022-11-30T11:49:28.996Z</time>
      </trkpt>
      <trkpt lat="43.53736" lon="5.51132">
        <ele>324.18285</ele>
        <time>2022-11-30T11:49:30.996Z</time>
      </trkpt>
      <trkpt lat="43.53743" lon="5.5114">
        <ele>324.33042</ele>
        <time>2022-11-30T11:49:37.996Z</time>
      </trkpt>
      <trkpt lat="43.53744" lon="5.51143">
        <ele>324.38116</ele>
        <time>2022-11-30T11:49:39.996Z</time>
      </trkpt>
      <trkpt lat="43.53746" lon="5.51151">
        <ele>324.48588</ele>
        <time>2022-11-30T11:49:44.995Z</time>
      </trkpt>
      <trkpt lat="43.53741" lon="5.51162">
        <ele>324.59012</ele>
        <time>2022-11-30T11:49:50.995Z</time>
      </trkpt>
      <trkpt lat="43.53738" lon="5.51173">
        <ele>324.67315</ele>
        <time>2022-11-30T11:49:56.995Z</time>
      </trkpt>
      <trkpt lat="43.53736" lon="5.51177">
        <ele>324.68849</ele>
        <time>2022-11-30T11:49:58.995Z</time>
      </trkpt>
      <trkpt lat="43.53734" lon="5.51179">
        <ele>324.71315</ele>
        <time>2022-11-30T11:50:00.994Z</time>
      </trkpt>
      <trkpt lat="43.5373" lon="5.5118">
        <ele>324.72665</ele>
        <time>2022-11-30T11:50:04.000Z</time>
      </trkpt>
      <trkpt lat="43.53728" lon="5.51183">
        <ele>324.73535</ele>
        <time>2022-11-30T11:50:08.000Z</time>
      </trkpt>
      <trkpt lat="43.53723" lon="5.51185">
        <ele>324.72292</ele>
        <time>2022-11-30T11:50:11.000Z</time>
      </trkpt>
      <trkpt lat="43.53717" lon="5.51186">
        <ele>324.72976</ele>
        <time>2022-11-30T11:50:16.000Z</time>
      </trkpt>
      <trkpt lat="43.53714" lon="5.51188">
        <ele>324.71942</ele>
        <time>2022-11-30T11:50:19.000Z</time>
      </trkpt>
      <trkpt lat="43.53708" lon="5.51191">
        <ele>324.6929</ele>
        <time>2022-11-30T11:50:27.000Z</time>
      </trkpt>
      <trkpt lat="43.53703" lon="5.51196">
        <ele>324.64418</ele>
        <time>2022-11-30T11:50:30.999Z</time>
      </trkpt>
      <trkpt lat="43.53701" lon="5.512">
        <ele>324.62007</ele>
        <time>2022-11-30T11:50:32.999Z</time>
      </trkpt>
      <trkpt lat="43.53698" lon="5.51201">
        <ele>324.59369</ele>
        <time>2022-11-30T11:50:35.999Z</time>
      </trkpt>
      <trkpt lat="43.53692" lon="5.51208">
        <ele>324.50633</ele>
        <time>2022-11-30T11:50:41.999Z</time>
      </trkpt>
      <trkpt lat="43.5369" lon="5.5121">
        <ele>324.47155</ele>
        <time>2022-11-30T11:50:43.999Z</time>
      </trkpt>
      <trkpt lat="43.53686" lon="5.51216">
        <ele>324.42705</ele>
        <time>2022-11-30T11:50:48.998Z</time>
      </trkpt>
      <trkpt lat="43.53685" lon="5.5122">
        <ele>324.396</ele>
        <time>2022-11-30T11:50:51.998Z</time>
      </trkpt>
      <trkpt lat="43.53683" lon="5.51223">
        <ele>324.37514</ele>
        <time>2022-11-30T11:50:53.998Z</time>
      </trkpt>
      <trkpt lat="43.53682" lon="5.51232">
        <ele>324.33302</ele>
        <time>2022-11-30T11:51:00.998Z</time>
      </trkpt>
      <trkpt lat="43.53677" lon="5.51246">
        <ele>324.18569</ele>
        <time>2022-11-30T11:51:10.997Z</time>
      </trkpt>
      <trkpt lat="43.53675" lon="5.51254">
        <ele>324.07576</ele>
        <time>2022-11-30T11:51:16.997Z</time>
      </trkpt>
      <trkpt lat="43.53673" lon="5.51265">
        <ele>323.80331</ele>
        <time>2022-11-30T11:51:22.997Z</time>
      </trkpt>
      <trkpt lat="43.53673" lon="5.51287">
        <ele>323.20729</ele>
        <time>2022-11-30T11:51:34.996Z</time>
      </trkpt>
      <trkpt lat="43.53674" lon="5.5129">
        <ele>323.10282</ele>
        <time>2022-11-30T11:51:37.996Z</time>
      </trkpt>
      <trkpt lat="43.53672" lon="5.51296">
        <ele>323.00798</ele>
        <time>2022-11-30T11:51:40.996Z</time>
      </trkpt>
      <trkpt lat="43.53672" lon="5.513">
        <ele>322.91945</ele>
        <time>2022-11-30T11:51:42.996Z</time>
      </trkpt>
      <trkpt lat="43.53676" lon="5.51311">
        <ele>322.74708</ele>
        <time>2022-11-30T11:51:48.995Z</time>
      </trkpt>
      <trkpt lat="43.53676" lon="5.51315">
        <ele>322.73166</ele>
        <time>2022-11-30T11:51:52.995Z</time>
      </trkpt>
      <trkpt lat="43.5368" lon="5.51326">
        <ele>322.73838</ele>
        <time>2022-11-30T11:52:00.995Z</time>
      </trkpt>
      <trkpt lat="43.5368" lon="5.51331">
        <ele>322.75714</ele>
        <time>2022-11-30T11:52:03.995Z</time>
      </trkpt>
      <trkpt lat="43.53682" lon="5.51336">
        <ele>322.75818</ele>
        <time>2022-11-30T11:52:06.994Z</time>
      </trkpt>
      <trkpt lat="43.53683" lon="5.51338">
        <ele>322.7768</ele>
        <time>2022-11-30T11:52:09.000Z</time>
      </trkpt>
      <trkpt lat="43.53693" lon="5.5135">
        <ele>323.00033</ele>
        <time>2022-11-30T11:52:18.000Z</time>
      </trkpt>
      <trkpt lat="43.53698" lon="5.51356">
        <ele>323.26089</ele>
        <time>2022-11-30T11:52:24.000Z</time>
      </trkpt>
      <trkpt lat="43.53701" lon="5.51357">
        <ele>323.41416</ele>
        <time>2022-11-30T11:52:26.000Z</time>
      </trkpt>
      <trkpt lat="43.53703" lon="5.51357">
        <ele>323.60167</ele>
        <time>2022-11-30T11:52:29.000Z</time>
      </trkpt>
      <trkpt lat="43.53706" lon="5.51359">
        <ele>323.79772</ele>
        <time>2022-11-30T11:52:32.000Z</time>
      </trkpt>
      <trkpt lat="43.53712" lon="5.51363">
        <ele>324.19198</ele>
        <time>2022-11-30T11:52:35.999Z</time>
      </trkpt>
      <trkpt lat="43.53714" lon="5.51366">
        <ele>324.41487</ele>
        <time>2022-11-30T11:52:37.999Z</time>
      </trkpt>
      <trkpt lat="43.5372" lon="5.51368">
        <ele>324.89338</ele>
        <time>2022-11-30T11:52:41.999Z</time>
      </trkpt>
      <trkpt lat="43.53725" lon="5.51375">
        <ele>325.41039</ele>
        <time>2022-11-30T11:52:47.999Z</time>
      </trkpt>
      <trkpt lat="43.53728" lon="5.51375">
        <ele>325.68119</ele>
        <time>2022-11-30T11:52:49.999Z</time>
      </trkpt>
      <trkpt lat="43.53728" lon="5.51379">
        <ele>325.95177</ele>
        <time>2022-11-30T11:52:58.998Z</time>
      </trkpt>
      <trkpt lat="43.5373" lon="5.51384">
        <ele>326.36432</ele>
        <time>2022-11-30T11:53:09.998Z</time>
      </trkpt>
      <trkpt lat="43.53733" lon="5.51388">
        <ele>326.56368</ele>
        <time>2022-11-30T11:53:12.997Z</time>
      </trkpt>
      <trkpt lat="43.53738" lon="5.51398">
        <ele>327.1703</ele>
        <time>2022-11-30T11:53:19.997Z</time>
      </trkpt>
      <trkpt lat="43.53741" lon="5.51407">
        <ele>327.46545</ele>
        <time>2022-11-30T11:53:24.997Z</time>
      </trkpt>
      <trkpt lat="43.53743" lon="5.51411">
        <ele>327.70628</ele>
        <time>2022-11-30T11:53:26.997Z</time>
      </trkpt>
      <trkpt lat="43.53739" lon="5.51419">
        <ele>328.03132</ele>
        <time>2022-11-30T11:53:31.997Z</time>
      </trkpt>
      <trkpt lat="43.53733" lon="5.51421">
        <ele>328.31319</ele>
        <time>2022-11-30T11:53:35.996Z</time>
      </trkpt>
      <trkpt lat="43.53725" lon="5.51426">
        <ele>328.53359</ele>
        <time>2022-11-30T11:53:42.996Z</time>
      </trkpt>
      <trkpt lat="43.53723" lon="5.5143">
        <ele>328.63348</ele>
        <time>2022-11-30T11:53:44.996Z</time>
      </trkpt>
      <trkpt lat="43.53717" lon="5.51437">
        <ele>328.70435</ele>
        <time>2022-11-30T11:53:49.996Z</time>
      </trkpt>
      <trkpt lat="43.53714" lon="5.51444">
        <ele>328.68508</ele>
        <time>2022-11-30T11:53:54.995Z</time>
      </trkpt>
      <trkpt lat="43.5371" lon="5.51451">
        <ele>328.71415</ele>
        <time>2022-11-30T11:54:00.995Z</time>
      </trkpt>
      <trkpt lat="43.5371" lon="5.51455">
        <ele>328.68207</ele>
        <time>2022-11-30T11:54:03.995Z</time>
      </trkpt>
      <trkpt lat="43.53712" lon="5.51459">
        <ele>328.64319</ele>
        <time>2022-11-30T11:54:06.995Z</time>
      </trkpt>
      <trkpt lat="43.53713" lon="5.51464">
        <ele>328.59412</ele>
        <time>2022-11-30T11:54:08.995Z</time>
      </trkpt>
      <trkpt lat="43.53714" lon="5.51467">
        <ele>328.57437</ele>
        <time>2022-11-30T11:54:11.995Z</time>
      </trkpt>
      <trkpt lat="43.53714" lon="5.5147">
        <ele>328.54415</ele>
        <time>2022-11-30T11:54:25.000Z</time>
      </trkpt>
      <trkpt lat="43.53717" lon="5.51481">
        <ele>328.48567</ele>
        <time>2022-11-30T11:54:34.000Z</time>
      </trkpt>
      <trkpt lat="43.5372" lon="5.51485">
        <ele>328.45313</ele>
        <time>2022-11-30T11:54:37.999Z</time>
      </trkpt>
      <trkpt lat="43.53724" lon="5.51494">
        <ele>328.44187</ele>
        <time>2022-11-30T11:54:42.999Z</time>
      </trkpt>
      <trkpt lat="43.53727" lon="5.51499">
        <ele>328.43701</ele>
        <time>2022-11-30T11:54:47.999Z</time>
      </trkpt>
      <trkpt lat="43.5373" lon="5.51508">
        <ele>328.41436</ele>
        <time>2022-11-30T11:54:53.999Z</time>
      </trkpt>
      <trkpt lat="43.53733" lon="5.51511">
        <ele>328.40037</ele>
        <time>2022-11-30T11:54:56.999Z</time>
      </trkpt>
      <trkpt lat="43.53739" lon="5.51526">
        <ele>328.38418</ele>
        <time>2022-11-30T11:55:08.998Z</time>
      </trkpt>
      <trkpt lat="43.53746" lon="5.51539">
        <ele>328.37108</ele>
        <time>2022-11-30T11:55:18.997Z</time>
      </trkpt>
      <trkpt lat="43.53748" lon="5.51545">
        <ele>328.35938</ele>
        <time>2022-11-30T11:55:23.997Z</time>
      </trkpt>
      <trkpt lat="43.53751" lon="5.51547">
        <ele>328.35961</ele>
        <time>2022-11-30T11:55:25.997Z</time>
      </trkpt>
      <trkpt lat="43.53753" lon="5.5155">
        <ele>328.35651</ele>
        <time>2022-11-30T11:55:27.997Z</time>
      </trkpt>
      <trkpt lat="43.53754" lon="5.51554">
        <ele>328.35256</ele>
        <time>2022-11-30T11:55:29.997Z</time>
      </trkpt>
      <trkpt lat="43.53762" lon="5.51563">
        <ele>328.35066</ele>
        <time>2022-11-30T11:55:37.996Z</time>
      </trkpt>
      <trkpt lat="43.53765" lon="5.51568">
        <ele>328.36081</ele>
        <time>2022-11-30T11:55:43.996Z</time>
      </trkpt>
      <trkpt lat="43.53768" lon="5.51569">
        <ele>328.37114</ele>
        <time>2022-11-30T11:55:45.996Z</time>
      </trkpt>
      <trkpt lat="43.53775" lon="5.51579">
        <ele>328.44871</ele>
        <time>2022-11-30T11:55:54.996Z</time>
      </trkpt>
      <trkpt lat="43.53777" lon="5.51581">
        <ele>328.48778</ele>
        <time>2022-11-30T11:55:56.996Z</time>
      </trkpt>
      <trkpt lat="43.53783" lon="5.51587">
        <ele>328.62808</ele>
        <time>2022-11-30T11:56:02.995Z</time>
      </trkpt>
      <trkpt lat="43.53786" lon="5.51593">
        <ele>328.87277</ele>
        <time>2022-11-30T11:56:06.995Z</time>
      </trkpt>
      <trkpt lat="43.53791" lon="5.51608">
        <ele>329.41563</ele>
        <time>2022-11-30T11:56:16.994Z</time>
      </trkpt>
      <trkpt lat="43.53794" lon="5.51619">
        <ele>329.70703</ele>
        <time>2022-11-30T11:56:24.000Z</time>
      </trkpt>
      <trkpt lat="43.53795" lon="5.51622">
        <ele>329.776</ele>
        <time>2022-11-30T11:56:27.000Z</time>
      </trkpt>
      <trkpt lat="43.53797" lon="5.5163">
        <ele>329.90847</ele>
        <time>2022-11-30T11:56:32.000Z</time>
      </trkpt>
      <trkpt lat="43.53797" lon="5.51634">
        <ele>329.95334</ele>
        <time>2022-11-30T11:56:34.000Z</time>
      </trkpt>
      <trkpt lat="43.53796" lon="5.51639">
        <ele>330.00286</ele>
        <time>2022-11-30T11:56:37.000Z</time>
      </trkpt>
      <trkpt lat="43.53797" lon="5.51643">
        <ele>330.02398</ele>
        <time>2022-11-30T11:56:40.000Z</time>
      </trkpt>
      <trkpt lat="43.53797" lon="5.51652">
        <ele>330.04195</ele>
        <time>2022-11-30T11:56:44.999Z</time>
      </trkpt>
      <trkpt lat="43.53798" lon="5.51656">
        <ele>330.0382</ele>
        <time>2022-11-30T11:56:47.999Z</time>
      </trkpt>
      <trkpt lat="43.53804" lon="5.51664">
        <ele>330.11168</ele>
        <time>2022-11-30T11:56:54.999Z</time>
      </trkpt>
      <trkpt lat="43.53808" lon="5.51668">
        <ele>330.20221</ele>
        <time>2022-11-30T11:56:58.999Z</time>
      </trkpt>
      <trkpt lat="43.53813" lon="5.51671">
        <ele>330.32235</ele>
        <time>2022-11-30T11:57:02.999Z</time>
      </trkpt>
      <trkpt lat="43.53821" lon="5.51674">
        <ele>330.53983</ele>
        <time>2022-11-30T11:57:09.998Z</time>
      </trkpt>
      <trkpt lat="43.53824" lon="5.51674">
        <ele>330.62238</ele>
        <time>2022-11-30T11:57:12.998Z</time>
      </trkpt>
      <trkpt lat="43.53827" lon="5.51676">
        <ele>330.70826</ele>
        <time>2022-11-30T11:57:15.998Z</time>
      </trkpt>
      <trkpt lat="43.5383" lon="5.51676">
        <ele>330.80183</ele>
        <time>2022-11-30T11:57:17.998Z</time>
      </trkpt>
      <trkpt lat="43.53839" lon="5.51683">
        <ele>331.13615</ele>
        <time>2022-11-30T11:57:25.997Z</time>
      </trkpt>
      <trkpt lat="43.53845" lon="5.51683">
        <ele>331.44128</ele>
        <time>2022-11-30T11:57:29.997Z</time>
      </trkpt>
      <trkpt lat="43.53851" lon="5.51685">
        <ele>331.77861</ele>
        <time>2022-11-30T11:57:33.997Z</time>
      </trkpt>
      <trkpt lat="43.53856" lon="5.51688">
        <ele>332.20615</ele>
        <time>2022-11-30T11:57:39.997Z</time>
      </trkpt>
      <trkpt lat="43.5386" lon="5.51693">
        <ele>332.59937</ele>
        <time>2022-11-30T11:57:45.996Z</time>
      </trkpt>
      <trkpt lat="43.53863" lon="5.51695">
        <ele>332.80419</ele>
        <time>2022-11-30T11:57:49.996Z</time>
      </trkpt>
      <trkpt lat="43.53868" lon="5.517">
        <ele>333.12799</ele>
        <time>2022-11-30T11:57:54.996Z</time>
      </trkpt>
      <trkpt lat="43.53875" lon="5.51702">
        <ele>333.50627</ele>
        <time>2022-11-30T11:58:00.996Z</time>
      </trkpt>
      <trkpt lat="43.5388" lon="5.51706">
        <ele>333.73017</ele>
        <time>2022-11-30T11:58:04.995Z</time>
      </trkpt>
      <trkpt lat="43.5389" lon="5.5171">
        <ele>334.04229</ele>
        <time>2022-11-30T11:58:13.995Z</time>
      </trkpt>
      <trkpt lat="43.53895" lon="5.51712">
        <ele>334.22512</ele>
        <time>2022-11-30T11:58:19.995Z</time>
      </trkpt>
      <trkpt lat="43.539" lon="5.51711">
        <ele>334.40787</ele>
        <time>2022-11-30T11:58:24.994Z</time>
      </trkpt>
      <trkpt lat="43.53906" lon="5.51715">
        <ele>334.56274</ele>
        <time>2022-11-30T11:58:30.000Z</time>
      </trkpt>
      <trkpt lat="43.53915" lon="5.51719">
        <ele>334.81545</ele>
        <time>2022-11-30T11:58:38.000Z</time>
      </trkpt>
      <trkpt lat="43.53921" lon="5.51723">
        <ele>334.95642</ele>
        <time>2022-11-30T11:58:43.000Z</time>
      </trkpt>
      <trkpt lat="43.53925" lon="5.51732">
        <ele>335.1375</ele>
        <time>2022-11-30T11:58:49.000Z</time>
      </trkpt>
      <trkpt lat="43.53928" lon="5.51737">
        <ele>335.22625</ele>
        <time>2022-11-30T11:58:53.999Z</time>
      </trkpt>
      <trkpt lat="43.53934" lon="5.51748">
        <ele>335.28766</ele>
        <time>2022-11-30T11:59:01.999Z</time>
      </trkpt>
      <trkpt lat="43.53938" lon="5.51753">
        <ele>335.26936</ele>
        <time>2022-11-30T11:59:06.999Z</time>
      </trkpt>
      <trkpt lat="43.53945" lon="5.51766">
        <ele>335.15363</ele>
        <time>2022-11-30T11:59:14.998Z</time>
      </trkpt>
      <trkpt lat="43.5395" lon="5.51776">
        <ele>335.01439</ele>
        <time>2022-11-30T11:59:23.998Z</time>
      </trkpt>
      <trkpt lat="43.53951" lon="5.51783">
        <ele>334.87653</ele>
        <time>2022-11-30T11:59:28.998Z</time>
      </trkpt>
      <trkpt lat="43.53953" lon="5.51786">
        <ele>334.79458</ele>
        <time>2022-11-30T11:59:32.997Z</time>
      </trkpt>
      <trkpt lat="43.53953" lon="5.51797">
        <ele>334.47337</ele>
        <time>2022-11-30T11:59:40.997Z</time>
      </trkpt>
      <trkpt lat="43.53955" lon="5.51808">
        <ele>334.05352</ele>
        <time>2022-11-30T11:59:48.997Z</time>
      </trkpt>
      <trkpt lat="43.53956" lon="5.51812">
        <ele>333.88755</ele>
        <time>2022-11-30T11:59:51.996Z</time>
      </trkpt>
      <trkpt lat="43.53961" lon="5.51822">
        <ele>333.43012</ele>
        <time>2022-11-30T11:59:58.996Z</time>
      </trkpt>
      <trkpt lat="43.53964" lon="5.51826">
        <ele>333.23398</ele>
        <time>2022-11-30T12:00:02.996Z</time>
      </trkpt>
      <trkpt lat="43.53967" lon="5.51827">
        <ele>333.1993</ele>
        <time>2022-11-30T12:00:05.996Z</time>
      </trkpt>
      <trkpt lat="43.53969" lon="5.5183">
        <ele>333.22383</ele>
        <time>2022-11-30T12:00:08.996Z</time>
      </trkpt>
      <trkpt lat="43.53979" lon="5.51838">
        <ele>333.51654</ele>
        <time>2022-11-30T12:00:16.995Z</time>
      </trkpt>
      <trkpt lat="43.53985" lon="5.51844">
        <ele>333.81367</ele>
        <time>2022-11-30T12:00:23.995Z</time>
      </trkpt>
      <trkpt lat="43.53988" lon="5.51844">
        <ele>333.93656</ele>
        <time>2022-11-30T12:00:25.995Z</time>
      </trkpt>
      <trkpt lat="43.53991" lon="5.51846">
        <ele>334.04564</ele>
        <time>2022-11-30T12:00:28.995Z</time>
      </trkpt>
      <trkpt lat="43.53993" lon="5.51846">
        <ele>334.15518</ele>
        <time>2022-11-30T12:00:30.994Z</time>
      </trkpt>
      <trkpt lat="43.53996" lon="5.51846">
        <ele>334.25694</ele>
        <time>2022-11-30T12:00:34.000Z</time>
      </trkpt>
      <trkpt lat="43.54" lon="5.51849">
        <ele>334.47631</ele>
        <time>2022-11-30T12:00:38.000Z</time>
      </trkpt>
      <trkpt lat="43.54006" lon="5.5185">
        <ele>334.67352</ele>
        <time>2022-11-30T12:00:43.000Z</time>
      </trkpt>
      <trkpt lat="43.54012" lon="5.51849">
        <ele>334.92605</ele>
        <time>2022-11-30T12:00:48.000Z</time>
      </trkpt>
      <trkpt lat="43.54022" lon="5.51847">
        <ele>335.61825</ele>
        <time>2022-11-30T12:00:56.000Z</time>
      </trkpt>
      <trkpt lat="43.54029" lon="5.5185">
        <ele>335.92946</ele>
        <time>2022-11-30T12:00:59.999Z</time>
      </trkpt>
      <trkpt lat="43.54036" lon="5.51855">
        <ele>336.55861</ele>
        <time>2022-11-30T12:01:05.999Z</time>
      </trkpt>
      <trkpt lat="43.54039" lon="5.51861">
        <ele>336.88776</ele>
        <time>2022-11-30T12:01:09.999Z</time>
      </trkpt>
      <trkpt lat="43.54048" lon="5.51883">
        <ele>337.31518</ele>
        <time>2022-11-30T12:01:21.998Z</time>
      </trkpt>
      <trkpt lat="43.5405" lon="5.51886">
        <ele>337.34468</ele>
        <time>2022-11-30T12:01:23.998Z</time>
      </trkpt>
      <trkpt lat="43.54049" lon="5.51889">
        <ele>337.37208</ele>
        <time>2022-11-30T12:01:28.998Z</time>
      </trkpt>
      <trkpt lat="43.54042" lon="5.51899">
        <ele>337.3551</ele>
        <time>2022-11-30T12:01:37.997Z</time>
      </trkpt>
      <trkpt lat="43.54038" lon="5.51905">
        <ele>337.36137</ele>
        <time>2022-11-30T12:01:43.997Z</time>
      </trkpt>
      <trkpt lat="43.54032" lon="5.5192">
        <ele>337.42002</ele>
        <time>2022-11-30T12:01:52.997Z</time>
      </trkpt>
      <trkpt lat="43.54029" lon="5.51929">
        <ele>337.45898</ele>
        <time>2022-11-30T12:01:58.997Z</time>
      </trkpt>
      <trkpt lat="43.54027" lon="5.51932">
        <ele>337.48062</ele>
        <time>2022-11-30T12:02:01.996Z</time>
      </trkpt>
      <trkpt lat="43.54025" lon="5.51935">
        <ele>337.51479</ele>
        <time>2022-11-30T12:02:04.996Z</time>
      </trkpt>
      <trkpt lat="43.54022" lon="5.51935">
        <ele>337.57898</ele>
        <time>2022-11-30T12:02:07.996Z</time>
      </trkpt>
      <trkpt lat="43.54019" lon="5.51938">
        <ele>337.64692</ele>
        <time>2022-11-30T12:02:11.996Z</time>
      </trkpt>
      <trkpt lat="43.54017" lon="5.51942">
        <ele>337.71186</ele>
        <time>2022-11-30T12:02:13.996Z</time>
      </trkpt>
      <trkpt lat="43.54014" lon="5.51943">
        <ele>337.79213</ele>
        <time>2022-11-30T12:02:16.996Z</time>
      </trkpt>
      <trkpt lat="43.54012" lon="5.51947">
        <ele>337.88983</ele>
        <time>2022-11-30T12:02:18.996Z</time>
      </trkpt>
      <trkpt lat="43.5401" lon="5.51949">
        <ele>338.01455</ele>
        <time>2022-11-30T12:02:20.995Z</time>
      </trkpt>
      <trkpt lat="43.54007" lon="5.51951">
        <ele>338.15986</ele>
        <time>2022-11-30T12:02:22.995Z</time>
      </trkpt>
      <trkpt lat="43.54002" lon="5.51954">
        <ele>338.52223</ele>
        <time>2022-11-30T12:02:28.995Z</time>
      </trkpt>
      <trkpt lat="43.53999" lon="5.51955">
        <ele>338.72948</ele>
        <time>2022-11-30T12:02:30.995Z</time>
      </trkpt>
      <trkpt lat="43.53996" lon="5.51957">
        <ele>338.96056</ele>
        <time>2022-11-30T12:02:32.995Z</time>
      </trkpt>
      <trkpt lat="43.53989" lon="5.51957">
        <ele>339.38735</ele>
        <time>2022-11-30T12:02:37.995Z</time>
      </trkpt>
      <trkpt lat="43.53986" lon="5.51958">
        <ele>339.53851</ele>
        <time>2022-11-30T12:02:40.000Z</time>
      </trkpt>
      <trkpt lat="43.53984" lon="5.5196">
        <ele>339.66379</ele>
        <time>2022-11-30T12:02:43.000Z</time>
      </trkpt>
      <trkpt lat="43.5398" lon="5.5196">
        <ele>339.78891</ele>
        <time>2022-11-30T12:02:45.000Z</time>
      </trkpt>
      <trkpt lat="43.53977" lon="5.51962">
        <ele>339.88437</ele>
        <time>2022-11-30T12:02:48.000Z</time>
      </trkpt>
      <trkpt lat="43.53969" lon="5.51968">
        <ele>340.12721</ele>
        <time>2022-11-30T12:02:55.000Z</time>
      </trkpt>
      <trkpt lat="43.53964" lon="5.51971">
        <ele>340.30672</ele>
        <time>2022-11-30T12:03:00.000Z</time>
      </trkpt>
      <trkpt lat="43.53959" lon="5.51974">
        <ele>340.54654</ele>
        <time>2022-11-30T12:03:04.999Z</time>
      </trkpt>
      <trkpt lat="43.53956" lon="5.51975">
        <ele>340.64948</ele>
        <time>2022-11-30T12:03:06.999Z</time>
      </trkpt>
      <trkpt lat="43.53951" lon="5.51982">
        <ele>340.91251</ele>
        <time>2022-11-30T12:03:10.999Z</time>
      </trkpt>
      <trkpt lat="43.5395" lon="5.51985">
        <ele>341.04508</ele>
        <time>2022-11-30T12:03:12.999Z</time>
      </trkpt>
      <trkpt lat="43.53947" lon="5.51987">
        <ele>341.19139</ele>
        <time>2022-11-30T12:03:14.999Z</time>
      </trkpt>
      <trkpt lat="43.53944" lon="5.51987">
        <ele>341.33207</ele>
        <time>2022-11-30T12:03:16.999Z</time>
      </trkpt>
      <trkpt lat="43.53935" lon="5.51992">
        <ele>341.72494</ele>
        <time>2022-11-30T12:03:22.999Z</time>
      </trkpt>
      <trkpt lat="43.53931" lon="5.51993">
        <ele>341.8615</ele>
        <time>2022-11-30T12:03:24.998Z</time>
      </trkpt>
      <trkpt lat="43.53929" lon="5.51995">
        <ele>341.98945</ele>
        <time>2022-11-30T12:03:26.998Z</time>
      </trkpt>
      <trkpt lat="43.53924" lon="5.52004">
        <ele>342.33163</ele>
        <time>2022-11-30T12:03:32.998Z</time>
      </trkpt>
      <trkpt lat="43.53922" lon="5.52011">
        <ele>342.44642</ele>
        <time>2022-11-30T12:03:36.998Z</time>
      </trkpt>
      <trkpt lat="43.53924" lon="5.52026">
        <ele>342.54731</ele>
        <time>2022-11-30T12:03:44.997Z</time>
      </trkpt>
      <trkpt lat="43.5393" lon="5.52037">
        <ele>342.64478</ele>
        <time>2022-11-30T12:03:53.997Z</time>
      </trkpt>
      <trkpt lat="43.53938" lon="5.52043">
        <ele>342.81061</ele>
        <time>2022-11-30T12:03:59.997Z</time>
      </trkpt>
      <trkpt lat="43.53944" lon="5.52053">
        <ele>343.02025</ele>
        <time>2022-11-30T12:04:05.996Z</time>
      </trkpt>
      <trkpt lat="43.53946" lon="5.52055">
        <ele>343.10285</ele>
        <time>2022-11-30T12:04:07.996Z</time>
      </trkpt>
      <trkpt lat="43.53949" lon="5.52065">
        <ele>343.35839</ele>
        <time>2022-11-30T12:04:13.996Z</time>
      </trkpt>
      <trkpt lat="43.53953" lon="5.52074">
        <ele>343.48671</ele>
        <time>2022-11-30T12:04:21.996Z</time>
      </trkpt>
      <trkpt lat="43.53959" lon="5.52081">
        <ele>343.58509</ele>
        <time>2022-11-30T12:04:27.995Z</time>
      </trkpt>
      <trkpt lat="43.53962" lon="5.52083">
        <ele>343.5983</ele>
        <time>2022-11-30T12:04:29.995Z</time>
      </trkpt>
      <trkpt lat="43.53965" lon="5.52086">
        <ele>343.61695</ele>
        <time>2022-11-30T12:04:32.995Z</time>
      </trkpt>
      <trkpt lat="43.53968" lon="5.52087">
        <ele>343.6453</ele>
        <time>2022-11-30T12:04:34.995Z</time>
      </trkpt>
      <trkpt lat="43.53972" lon="5.52094">
        <ele>343.66597</ele>
        <time>2022-11-30T12:04:38.995Z</time>
      </trkpt>
      <trkpt lat="43.53971" lon="5.52106">
        <ele>343.64551</ele>
        <time>2022-11-30T12:04:50.000Z</time>
      </trkpt>
      <trkpt lat="43.5397" lon="5.52112">
        <ele>343.6317</ele>
        <time>2022-11-30T12:04:57.000Z</time>
      </trkpt>
      <trkpt lat="43.53966" lon="5.52119">
        <ele>343.5745</ele>
        <time>2022-11-30T12:05:04.000Z</time>
      </trkpt>
      <trkpt lat="43.53965" lon="5.52123">
        <ele>343.54252</ele>
        <time>2022-11-30T12:05:06.000Z</time>
      </trkpt>
      <trkpt lat="43.53961" lon="5.5213">
        <ele>343.47519</ele>
        <time>2022-11-30T12:05:10.999Z</time>
      </trkpt>
      <trkpt lat="43.53955" lon="5.52133">
        <ele>343.35218</ele>
        <time>2022-11-30T12:05:15.999Z</time>
      </trkpt>
      <trkpt lat="43.53952" lon="5.52133">
        <ele>343.24961</ele>
        <time>2022-11-30T12:05:17.999Z</time>
      </trkpt>
      <trkpt lat="43.5395" lon="5.52132">
        <ele>343.12368</ele>
        <time>2022-11-30T12:05:19.999Z</time>
      </trkpt>
      <trkpt lat="43.53947" lon="5.52134">
        <ele>342.96228</ele>
        <time>2022-11-30T12:05:21.999Z</time>
      </trkpt>
      <trkpt lat="43.53944" lon="5.52142">
        <ele>342.53688</ele>
        <time>2022-11-30T12:05:26.999Z</time>
      </trkpt>
      <trkpt lat="43.53944" lon="5.52145">
        <ele>342.28526</ele>
        <time>2022-11-30T12:05:28.999Z</time>
      </trkpt>
      <trkpt lat="43.53942" lon="5.52148">
        <ele>342.06286</ele>
        <time>2022-11-30T12:05:31.998Z</time>
      </trkpt>
      <trkpt lat="43.53931" lon="5.52153">
        <ele>341.14695</ele>
        <time>2022-11-30T12:05:39.998Z</time>
      </trkpt>
      <trkpt lat="43.53926" lon="5.52159">
        <ele>340.77361</ele>
        <time>2022-11-30T12:05:43.998Z</time>
      </trkpt>
      <trkpt lat="43.53921" lon="5.52159">
        <ele>340.53831</ele>
        <time>2022-11-30T12:05:47.998Z</time>
      </trkpt>
      <trkpt lat="43.53913" lon="5.52164">
        <ele>340.24222</ele>
        <time>2022-11-30T12:05:52.997Z</time>
      </trkpt>
      <trkpt lat="43.53904" lon="5.52167">
        <ele>340.01585</ele>
        <time>2022-11-30T12:05:58.997Z</time>
      </trkpt>
      <trkpt lat="43.53901" lon="5.52168">
        <ele>339.97496</ele>
        <time>2022-11-30T12:06:01.997Z</time>
      </trkpt>
      <trkpt lat="43.53894" lon="5.52174">
        <ele>339.96001</ele>
        <time>2022-11-30T12:06:10.996Z</time>
      </trkpt>
      <trkpt lat="43.53892" lon="5.52178">
        <ele>339.93654</ele>
        <time>2022-11-30T12:06:13.996Z</time>
      </trkpt>
      <trkpt lat="43.53882" lon="5.52178">
        <ele>340.00999</ele>
        <time>2022-11-30T12:06:20.996Z</time>
      </trkpt>
      <trkpt lat="43.53876" lon="5.52176">
        <ele>340.12095</ele>
        <time>2022-11-30T12:06:24.996Z</time>
      </trkpt>
      <trkpt lat="43.53873" lon="5.52176">
        <ele>340.15575</ele>
        <time>2022-11-30T12:06:26.996Z</time>
      </trkpt>
      <trkpt lat="43.53871" lon="5.52176">
        <ele>340.20571</ele>
        <time>2022-11-30T12:06:28.995Z</time>
      </trkpt>
      <trkpt lat="43.53864" lon="5.52171">
        <ele>340.30299</ele>
        <time>2022-11-30T12:06:35.995Z</time>
      </trkpt>
      <trkpt lat="43.53855" lon="5.52167">
        <ele>340.33019</ele>
        <time>2022-11-30T12:06:42.995Z</time>
      </trkpt>
      <trkpt lat="43.53849" lon="5.52159">
        <ele>340.298</ele>
        <time>2022-11-30T12:06:49.994Z</time>
      </trkpt>
      <trkpt lat="43.53847" lon="5.52156">
        <ele>340.29016</ele>
        <time>2022-11-30T12:06:52.000Z</time>
      </trkpt>
      <trkpt lat="43.53845" lon="5.52153">
        <ele>340.27572</ele>
        <time>2022-11-30T12:06:55.000Z</time>
      </trkpt>
      <trkpt lat="43.53838" lon="5.52146">
        <ele>340.18179</ele>
        <time>2022-11-30T12:07:35.998Z</time>
      </trkpt>
      <trkpt lat="43.53836" lon="5.52146">
        <ele>340.15461</ele>
        <time>2022-11-30T12:07:37.998Z</time>
      </trkpt>
      <trkpt lat="43.5383" lon="5.52148">
        <ele>340.09815</ele>
        <time>2022-11-30T12:07:42.998Z</time>
      </trkpt>
      <trkpt lat="43.53819" lon="5.52152">
        <ele>339.99528</ele>
        <time>2022-11-30T12:07:50.998Z</time>
      </trkpt>
      <trkpt lat="43.53808" lon="5.52159">
        <ele>339.84517</ele>
        <time>2022-11-30T12:08:01.997Z</time>
      </trkpt>
      <trkpt lat="43.53801" lon="5.52166">
        <ele>339.61234</ele>
        <time>2022-11-30T12:08:08.997Z</time>
      </trkpt>
      <trkpt lat="43.53798" lon="5.52173">
        <ele>339.2691</ele>
        <time>2022-11-30T12:08:14.997Z</time>
      </trkpt>
      <trkpt lat="43.53796" lon="5.52185">
        <ele>338.32643</ele>
        <time>2022-11-30T12:08:21.996Z</time>
      </trkpt>
      <trkpt lat="43.538" lon="5.52196">
        <ele>337.86261</ele>
        <time>2022-11-30T12:08:28.996Z</time>
      </trkpt>
      <trkpt lat="43.53803" lon="5.52203">
        <ele>337.75075</ele>
        <time>2022-11-30T12:08:32.996Z</time>
      </trkpt>
      <trkpt lat="43.53806" lon="5.52211">
        <ele>337.75301</ele>
        <time>2022-11-30T12:08:37.995Z</time>
      </trkpt>
      <trkpt lat="43.53806" lon="5.52216">
        <ele>337.79837</ele>
        <time>2022-11-30T12:08:39.995Z</time>
      </trkpt>
      <trkpt lat="43.53808" lon="5.52223">
        <ele>337.87287</ele>
        <time>2022-11-30T12:08:44.995Z</time>
      </trkpt>
      <trkpt lat="43.53814" lon="5.5223">
        <ele>338.08618</ele>
        <time>2022-11-30T12:08:50.995Z</time>
      </trkpt>
      <trkpt lat="43.53822" lon="5.52248">
        <ele>338.47954</ele>
        <time>2022-11-30T12:09:03.000Z</time>
      </trkpt>
      <trkpt lat="43.53824" lon="5.5225">
        <ele>338.53473</ele>
        <time>2022-11-30T12:09:05.000Z</time>
      </trkpt>
      <trkpt lat="43.5383" lon="5.52252">
        <ele>338.65337</ele>
        <time>2022-11-30T12:09:09.000Z</time>
      </trkpt>
      <trkpt lat="43.53837" lon="5.52259">
        <ele>338.86113</ele>
        <time>2022-11-30T12:09:16.000Z</time>
      </trkpt>
      <trkpt lat="43.5384" lon="5.5226">
        <ele>338.92265</ele>
        <time>2022-11-30T12:09:18.000Z</time>
      </trkpt>
      <trkpt lat="43.53844" lon="5.52268">
        <ele>339.05546</ele>
        <time>2022-11-30T12:09:23.999Z</time>
      </trkpt>
      <trkpt lat="43.53852" lon="5.5228">
        <ele>339.22929</ele>
        <time>2022-11-30T12:09:31.999Z</time>
      </trkpt>
      <trkpt lat="43.53855" lon="5.52282">
        <ele>339.2413</ele>
        <time>2022-11-30T12:09:34.999Z</time>
      </trkpt>
      <trkpt lat="43.53862" lon="5.52294">
        <ele>339.36958</ele>
        <time>2022-11-30T12:09:44.998Z</time>
      </trkpt>
      <trkpt lat="43.53865" lon="5.523">
        <ele>339.45028</ele>
        <time>2022-11-30T12:09:49.998Z</time>
      </trkpt>
      <trkpt lat="43.53866" lon="5.52305">
        <ele>339.49209</ele>
        <time>2022-11-30T12:09:52.998Z</time>
      </trkpt>
      <trkpt lat="43.53868" lon="5.52307">
        <ele>339.55849</ele>
        <time>2022-11-30T12:09:54.998Z</time>
      </trkpt>
      <trkpt lat="43.53871" lon="5.52307">
        <ele>339.64545</ele>
        <time>2022-11-30T12:09:58.998Z</time>
      </trkpt>
      <trkpt lat="43.53873" lon="5.52309">
        <ele>339.73328</ele>
        <time>2022-11-30T12:10:00.997Z</time>
      </trkpt>
      <trkpt lat="43.53875" lon="5.5231">
        <ele>339.8455</ele>
        <time>2022-11-30T12:10:02.997Z</time>
      </trkpt>
      <trkpt lat="43.53875" lon="5.52319">
        <ele>340.17847</ele>
        <time>2022-11-30T12:10:06.997Z</time>
      </trkpt>
      <trkpt lat="43.53875" lon="5.52322">
        <ele>340.32611</ele>
        <time>2022-11-30T12:10:08.997Z</time>
      </trkpt>
      <trkpt lat="43.53876" lon="5.52329">
        <ele>340.57485</ele>
        <time>2022-11-30T12:10:13.997Z</time>
      </trkpt>
      <trkpt lat="43.53877" lon="5.52338">
        <ele>340.77688</ele>
        <time>2022-11-30T12:10:18.997Z</time>
      </trkpt>
      <trkpt lat="43.5388" lon="5.52345">
        <ele>340.83049</ele>
        <time>2022-11-30T12:10:22.996Z</time>
      </trkpt>
      <trkpt lat="43.53886" lon="5.52354">
        <ele>341.00963</ele>
        <time>2022-11-30T12:10:28.996Z</time>
      </trkpt>
      <trkpt lat="43.53884" lon="5.52358">
        <ele>341.05723</ele>
        <time>2022-11-30T12:10:31.996Z</time>
      </trkpt>
      <trkpt lat="43.53885" lon="5.52363">
        <ele>341.08887</ele>
        <time>2022-11-30T12:10:34.996Z</time>
      </trkpt>
      <trkpt lat="43.53884" lon="5.52367">
        <ele>341.08929</ele>
        <time>2022-11-30T12:10:36.996Z</time>
      </trkpt>
      <trkpt lat="43.53882" lon="5.52374">
        <ele>341.10282</ele>
        <time>2022-11-30T12:10:41.995Z</time>
      </trkpt>
      <trkpt lat="43.53883" lon="5.52377">
        <ele>341.08136</ele>
        <time>2022-11-30T12:10:43.995Z</time>
      </trkpt>
      <trkpt lat="43.53885" lon="5.52381">
        <ele>341.06086</ele>
        <time>2022-11-30T12:10:46.995Z</time>
      </trkpt>
      <trkpt lat="43.53887" lon="5.52402">
        <ele>341.00673</ele>
        <time>2022-11-30T12:10:56.995Z</time>
      </trkpt>
      <trkpt lat="43.53888" lon="5.52407">
        <ele>341.0042</ele>
        <time>2022-11-30T12:10:58.995Z</time>
      </trkpt>
      <trkpt lat="43.53892" lon="5.52415">
        <ele>340.98111</ele>
        <time>2022-11-30T12:11:04.000Z</time>
      </trkpt>
      <trkpt lat="43.53893" lon="5.52421">
        <ele>340.98755</ele>
        <time>2022-11-30T12:11:07.000Z</time>
      </trkpt>
      <trkpt lat="43.53893" lon="5.52428">
        <ele>340.98938</ele>
        <time>2022-11-30T12:11:11.000Z</time>
      </trkpt>
      <trkpt lat="43.53894" lon="5.52436">
        <ele>341.01935</ele>
        <time>2022-11-30T12:11:15.000Z</time>
      </trkpt>
      <trkpt lat="43.53895" lon="5.52444">
        <ele>341.02805</ele>
        <time>2022-11-30T12:11:19.000Z</time>
      </trkpt>
      <trkpt lat="43.53896" lon="5.52448">
        <ele>341.04102</ele>
        <time>2022-11-30T12:11:21.000Z</time>
      </trkpt>
      <trkpt lat="43.53899" lon="5.5245">
        <ele>341.05337</ele>
        <time>2022-11-30T12:11:23.000Z</time>
      </trkpt>
      <trkpt lat="43.53901" lon="5.52452">
        <ele>341.07391</ele>
        <time>2022-11-30T12:11:25.000Z</time>
      </trkpt>
      <trkpt lat="43.53906" lon="5.52462">
        <ele>341.15599</ele>
        <time>2022-11-30T12:11:30.999Z</time>
      </trkpt>
      <trkpt lat="43.53908" lon="5.52465">
        <ele>341.19824</ele>
        <time>2022-11-30T12:11:32.999Z</time>
      </trkpt>
      <trkpt lat="43.53912" lon="5.52472">
        <ele>341.35683</ele>
        <time>2022-11-30T12:11:36.999Z</time>
      </trkpt>
      <trkpt lat="43.53919" lon="5.52479">
        <ele>341.81402</ele>
        <time>2022-11-30T12:11:42.999Z</time>
      </trkpt>
      <trkpt lat="43.53923" lon="5.52482">
        <ele>342.4618</ele>
        <time>2022-11-30T12:11:46.998Z</time>
      </trkpt>
      <trkpt lat="43.53929" lon="5.52482">
        <ele>343.34369</ele>
        <time>2022-11-30T12:11:51.998Z</time>
      </trkpt>
      <trkpt lat="43.53933" lon="5.52485">
        <ele>344.21035</ele>
        <time>2022-11-30T12:11:55.998Z</time>
      </trkpt>
      <trkpt lat="43.53942" lon="5.52495">
        <ele>345.66089</ele>
        <time>2022-11-30T12:12:03.998Z</time>
      </trkpt>
      <trkpt lat="43.53944" lon="5.52498">
        <ele>345.87503</ele>
        <time>2022-11-30T12:12:05.997Z</time>
      </trkpt>
      <trkpt lat="43.53946" lon="5.525">
        <ele>346.0713</ele>
        <time>2022-11-30T12:12:07.997Z</time>
      </trkpt>
      <trkpt lat="43.53946" lon="5.52504">
        <ele>346.27307</ele>
        <time>2022-11-30T12:12:09.997Z</time>
      </trkpt>
      <trkpt lat="43.53948" lon="5.52508">
        <ele>346.39231</ele>
        <time>2022-11-30T12:12:11.997Z</time>
      </trkpt>
      <trkpt lat="43.53949" lon="5.52531">
        <ele>346.41685</ele>
        <time>2022-11-30T12:12:23.997Z</time>
      </trkpt>
      <trkpt lat="43.53948" lon="5.52535">
        <ele>346.30831</ele>
        <time>2022-11-30T12:12:25.996Z</time>
      </trkpt>
      <trkpt lat="43.53945" lon="5.52547">
        <ele>345.61791</ele>
        <time>2022-11-30T12:12:31.996Z</time>
      </trkpt>
      <trkpt lat="43.53948" lon="5.52556">
        <ele>344.90969</ele>
        <time>2022-11-30T12:12:35.996Z</time>
      </trkpt>
      <trkpt lat="43.53951" lon="5.52563">
        <ele>343.99008</ele>
        <time>2022-11-30T12:12:39.996Z</time>
      </trkpt>
      <trkpt lat="43.53954" lon="5.52573">
        <ele>342.1289</ele>
        <time>2022-11-30T12:12:45.995Z</time>
      </trkpt>
      <trkpt lat="43.53955" lon="5.52582">
        <ele>340.88033</ele>
        <time>2022-11-30T12:12:49.995Z</time>
      </trkpt>
      <trkpt lat="43.53958" lon="5.5259">
        <ele>339.85584</ele>
        <time>2022-11-30T12:12:53.995Z</time>
      </trkpt>
      <trkpt lat="43.53959" lon="5.52601">
        <ele>338.84523</ele>
        <time>2022-11-30T12:12:59.995Z</time>
      </trkpt>
      <trkpt lat="43.53956" lon="5.52598">
        <ele>337.0521</ele>
        <time>2022-11-30T12:13:54.998Z</time>
      </trkpt>
      <trkpt lat="43.53957" lon="5.52589">
        <ele>336.57684</ele>
        <time>2022-11-30T12:14:02.998Z</time>
      </trkpt>
      <trkpt lat="43.53954" lon="5.52575">
        <ele>336.19342</ele>
        <time>2022-11-30T12:14:13.997Z</time>
      </trkpt>
      <trkpt lat="43.53953" lon="5.52571">
        <ele>336.19033</ele>
        <time>2022-11-30T12:14:16.997Z</time>
      </trkpt>
      <trkpt lat="43.53951" lon="5.52567">
        <ele>336.15005</ele>
        <time>2022-11-30T12:14:18.997Z</time>
      </trkpt>
      <trkpt lat="43.5395" lon="5.52562">
        <ele>336.1163</ele>
        <time>2022-11-30T12:14:21.997Z</time>
      </trkpt>
      <trkpt lat="43.53949" lon="5.52552">
        <ele>336.21685</ele>
        <time>2022-11-30T12:14:32.997Z</time>
      </trkpt>
      <trkpt lat="43.53951" lon="5.52548">
        <ele>336.37224</ele>
        <time>2022-11-30T12:14:35.996Z</time>
      </trkpt>
      <trkpt lat="43.53951" lon="5.52545">
        <ele>336.54358</ele>
        <time>2022-11-30T12:14:39.996Z</time>
      </trkpt>
      <trkpt lat="43.53953" lon="5.52541">
        <ele>336.77339</ele>
        <time>2022-11-30T12:14:42.996Z</time>
      </trkpt>
      <trkpt lat="43.53954" lon="5.52535">
        <ele>337.31086</ele>
        <time>2022-11-30T12:14:46.996Z</time>
      </trkpt>
      <trkpt lat="43.53954" lon="5.52531">
        <ele>337.67882</ele>
        <time>2022-11-30T12:14:49.996Z</time>
      </trkpt>
      <trkpt lat="43.53954" lon="5.52528">
        <ele>338.14807</ele>
        <time>2022-11-30T12:14:51.996Z</time>
      </trkpt>
      <trkpt lat="43.53956" lon="5.52526">
        <ele>338.77234</ele>
        <time>2022-11-30T12:14:56.995Z</time>
      </trkpt>
      <trkpt lat="43.53954" lon="5.5253">
        <ele>345.09988</ele>
        <time>2022-11-30T13:08:28.999Z</time>
      </trkpt>
      <trkpt lat="43.53954" lon="5.52539">
        <ele>345.02774</ele>
        <time>2022-11-30T13:08:34.999Z</time>
      </trkpt>
      <trkpt lat="43.5395" lon="5.5255">
        <ele>344.59324</ele>
        <time>2022-11-30T13:08:44.998Z</time>
      </trkpt>
      <trkpt lat="43.53952" lon="5.52557">
        <ele>344.16026</ele>
        <time>2022-11-30T13:08:49.998Z</time>
      </trkpt>
      <trkpt lat="43.53955" lon="5.52559">
        <ele>343.84773</ele>
        <time>2022-11-30T13:08:52.998Z</time>
      </trkpt>
      <trkpt lat="43.53957" lon="5.52567">
        <ele>343.13844</ele>
        <time>2022-11-30T13:08:58.997Z</time>
      </trkpt>
      <trkpt lat="43.5396" lon="5.52578">
        <ele>342.26156</ele>
        <time>2022-11-30T13:09:04.997Z</time>
      </trkpt>
      <trkpt lat="43.53961" lon="5.5259">
        <ele>341.32954</ele>
        <time>2022-11-30T13:09:13.997Z</time>
      </trkpt>
      <trkpt lat="43.53965" lon="5.52603">
        <ele>340.41469</ele>
        <time>2022-11-30T13:09:25.996Z</time>
      </trkpt>
      <trkpt lat="43.53967" lon="5.52606">
        <ele>340.30794</ele>
        <time>2022-11-30T13:09:30.996Z</time>
      </trkpt>
      <trkpt lat="43.5397" lon="5.52617">
        <ele>340.11545</ele>
        <time>2022-11-30T13:09:38.996Z</time>
      </trkpt>
      <trkpt lat="43.53971" lon="5.52629">
        <ele>340.11049</ele>
        <time>2022-11-30T13:09:46.995Z</time>
      </trkpt>
      <trkpt lat="43.53969" lon="5.52639">
        <ele>340.05737</ele>
        <time>2022-11-30T13:09:56.000Z</time>
      </trkpt>
      <trkpt lat="43.53969" lon="5.52644">
        <ele>339.9908</ele>
        <time>2022-11-30T13:09:59.000Z</time>
      </trkpt>
      <trkpt lat="43.53969" lon="5.52655">
        <ele>339.65484</ele>
        <time>2022-11-30T13:10:07.000Z</time>
      </trkpt>
      <trkpt lat="43.53973" lon="5.52664">
        <ele>339.27353</ele>
        <time>2022-11-30T13:10:14.000Z</time>
      </trkpt>
      <trkpt lat="43.53975" lon="5.52671">
        <ele>339.06737</ele>
        <time>2022-11-30T13:10:21.000Z</time>
      </trkpt>
      <trkpt lat="43.53977" lon="5.52677">
        <ele>338.94059</ele>
        <time>2022-11-30T13:10:25.999Z</time>
      </trkpt>
      <trkpt lat="43.53982" lon="5.52687">
        <ele>338.91279</ele>
        <time>2022-11-30T13:10:33.999Z</time>
      </trkpt>
      <trkpt lat="43.53985" lon="5.52703">
        <ele>339.17756</ele>
        <time>2022-11-30T13:10:45.998Z</time>
      </trkpt>
      <trkpt lat="43.53986" lon="5.5271">
        <ele>339.37181</ele>
        <time>2022-11-30T13:10:50.998Z</time>
      </trkpt>
      <trkpt lat="43.53987" lon="5.52713">
        <ele>339.47615</ele>
        <time>2022-11-30T13:10:52.998Z</time>
      </trkpt>
      <trkpt lat="43.53988" lon="5.52717">
        <ele>339.6004</ele>
        <time>2022-11-30T13:10:55.998Z</time>
      </trkpt>
      <trkpt lat="43.53988" lon="5.52724">
        <ele>339.8525</ele>
        <time>2022-11-30T13:11:00.998Z</time>
      </trkpt>
      <trkpt lat="43.53987" lon="5.52728">
        <ele>339.96698</ele>
        <time>2022-11-30T13:11:02.998Z</time>
      </trkpt>
      <trkpt lat="43.53989" lon="5.52742">
        <ele>340.45771</ele>
        <time>2022-11-30T13:11:14.997Z</time>
      </trkpt>
      <trkpt lat="43.5399" lon="5.52748">
        <ele>340.76583</ele>
        <time>2022-11-30T13:11:20.997Z</time>
      </trkpt>
      <trkpt lat="43.53989" lon="5.52751">
        <ele>340.92184</ele>
        <time>2022-11-30T13:11:23.997Z</time>
      </trkpt>
      <trkpt lat="43.53989" lon="5.52754">
        <ele>341.07334</ele>
        <time>2022-11-30T13:11:25.996Z</time>
      </trkpt>
      <trkpt lat="43.53988" lon="5.52761">
        <ele>341.41082</ele>
        <time>2022-11-30T13:11:30.996Z</time>
      </trkpt>
      <trkpt lat="43.53989" lon="5.52764">
        <ele>341.61159</ele>
        <time>2022-11-30T13:11:33.996Z</time>
      </trkpt>
      <trkpt lat="43.53989" lon="5.52767">
        <ele>341.85424</ele>
        <time>2022-11-30T13:11:36.996Z</time>
      </trkpt>
      <trkpt lat="43.5399" lon="5.52776">
        <ele>342.41533</ele>
        <time>2022-11-30T13:11:42.996Z</time>
      </trkpt>
      <trkpt lat="43.53989" lon="5.5278">
        <ele>342.70677</ele>
        <time>2022-11-30T13:11:44.996Z</time>
      </trkpt>
      <trkpt lat="43.5399" lon="5.52792">
        <ele>343.5366</ele>
        <time>2022-11-30T13:11:52.995Z</time>
      </trkpt>
      <trkpt lat="43.53991" lon="5.52795">
        <ele>343.77959</ele>
        <time>2022-11-30T13:11:55.995Z</time>
      </trkpt>
      <trkpt lat="43.5399" lon="5.52798">
        <ele>344.0104</ele>
        <time>2022-11-30T13:11:59.000Z</time>
      </trkpt>
      <trkpt lat="43.53991" lon="5.52802">
        <ele>344.2114</ele>
        <time>2022-11-30T13:12:01.000Z</time>
      </trkpt>
      <trkpt lat="43.53992" lon="5.5281">
        <ele>344.6043</ele>
        <time>2022-11-30T13:12:06.000Z</time>
      </trkpt>
      <trkpt lat="43.53994" lon="5.52816">
        <ele>345.00241</ele>
        <time>2022-11-30T13:12:11.000Z</time>
      </trkpt>
      <trkpt lat="43.54001" lon="5.5282">
        <ele>345.69569</ele>
        <time>2022-11-30T13:12:20.000Z</time>
      </trkpt>
      <trkpt lat="43.54006" lon="5.52821">
        <ele>346.2001</ele>
        <time>2022-11-30T13:12:24.000Z</time>
      </trkpt>
      <trkpt lat="43.54008" lon="5.52822">
        <ele>346.46225</ele>
        <time>2022-11-30T13:12:26.000Z</time>
      </trkpt>
      <trkpt lat="43.5401" lon="5.52826">
        <ele>346.72825</ele>
        <time>2022-11-30T13:12:28.999Z</time>
      </trkpt>
      <trkpt lat="43.54016" lon="5.52831">
        <ele>347.50468</ele>
        <time>2022-11-30T13:12:34.999Z</time>
      </trkpt>
      <trkpt lat="43.54018" lon="5.52833">
        <ele>347.73754</ele>
        <time>2022-11-30T13:12:37.999Z</time>
      </trkpt>
      <trkpt lat="43.54028" lon="5.5284">
        <ele>348.61971</ele>
        <time>2022-11-30T13:12:46.999Z</time>
      </trkpt>
      <trkpt lat="43.5403" lon="5.52842">
        <ele>348.79356</ele>
        <time>2022-11-30T13:12:48.998Z</time>
      </trkpt>
      <trkpt lat="43.54035" lon="5.52856">
        <ele>349.43478</ele>
        <time>2022-11-30T13:12:59.998Z</time>
      </trkpt>
      <trkpt lat="43.54039" lon="5.52861">
        <ele>349.58406</ele>
        <time>2022-11-30T13:13:05.998Z</time>
      </trkpt>
      <trkpt lat="43.54045" lon="5.52867">
        <ele>349.77168</ele>
        <time>2022-11-30T13:13:13.997Z</time>
      </trkpt>
      <trkpt lat="43.54049" lon="5.52871">
        <ele>349.83791</ele>
        <time>2022-11-30T13:13:18.997Z</time>
      </trkpt>
      <trkpt lat="43.54052" lon="5.52872">
        <ele>349.84622</ele>
        <time>2022-11-30T13:13:21.997Z</time>
      </trkpt>
      <trkpt lat="43.54055" lon="5.52875">
        <ele>349.88027</ele>
        <time>2022-11-30T13:13:23.997Z</time>
      </trkpt>
      <trkpt lat="43.54061" lon="5.52877">
        <ele>349.94886</ele>
        <time>2022-11-30T13:13:27.997Z</time>
      </trkpt>
      <trkpt lat="43.54064" lon="5.5288">
        <ele>349.96986</ele>
        <time>2022-11-30T13:13:29.997Z</time>
      </trkpt>
      <trkpt lat="43.54064" lon="5.52885">
        <ele>349.9922</ele>
        <time>2022-11-30T13:13:32.996Z</time>
      </trkpt>
      <trkpt lat="43.54067" lon="5.52888">
        <ele>350.03026</ele>
        <time>2022-11-30T13:13:35.996Z</time>
      </trkpt>
      <trkpt lat="43.54072" lon="5.52904">
        <ele>350.13939</ele>
        <time>2022-11-30T13:13:44.996Z</time>
      </trkpt>
      <trkpt lat="43.54074" lon="5.52909">
        <ele>350.16676</ele>
        <time>2022-11-30T13:13:47.996Z</time>
      </trkpt>
      <trkpt lat="43.54074" lon="5.52912">
        <ele>350.23768</ele>
        <time>2022-11-30T13:13:49.996Z</time>
      </trkpt>
      <trkpt lat="43.54076" lon="5.52914">
        <ele>350.26601</ele>
        <time>2022-11-30T13:13:51.996Z</time>
      </trkpt>
      <trkpt lat="43.54079" lon="5.52919">
        <ele>350.35077</ele>
        <time>2022-11-30T13:13:55.995Z</time>
      </trkpt>
      <trkpt lat="43.54081" lon="5.52926">
        <ele>350.4469</ele>
        <time>2022-11-30T13:13:59.995Z</time>
      </trkpt>
      <trkpt lat="43.54084" lon="5.52931">
        <ele>350.51139</ele>
        <time>2022-11-30T13:14:03.995Z</time>
      </trkpt>
      <trkpt lat="43.54086" lon="5.52933">
        <ele>350.53067</ele>
        <time>2022-11-30T13:14:08.000Z</time>
      </trkpt>
      <trkpt lat="43.54087" lon="5.52937">
        <ele>350.5435</ele>
        <time>2022-11-30T13:14:10.000Z</time>
      </trkpt>
      <trkpt lat="43.54091" lon="5.52943">
        <ele>350.59029</ele>
        <time>2022-11-30T13:14:15.000Z</time>
      </trkpt>
      <trkpt lat="43.54093" lon="5.52947">
        <ele>350.59726</ele>
        <time>2022-11-30T13:14:17.000Z</time>
      </trkpt>
      <trkpt lat="43.54097" lon="5.52953">
        <ele>350.62402</ele>
        <time>2022-11-30T13:14:22.000Z</time>
      </trkpt>
      <trkpt lat="43.54103" lon="5.52957">
        <ele>350.66188</ele>
        <time>2022-11-30T13:14:26.000Z</time>
      </trkpt>
      <trkpt lat="43.54111" lon="5.52964">
        <ele>350.74383</ele>
        <time>2022-11-30T13:14:34.000Z</time>
      </trkpt>
      <trkpt lat="43.54112" lon="5.52967">
        <ele>350.79002</ele>
        <time>2022-11-30T13:14:35.999Z</time>
      </trkpt>
      <trkpt lat="43.54114" lon="5.52968">
        <ele>350.83326</ele>
        <time>2022-11-30T13:14:38.999Z</time>
      </trkpt>
      <trkpt lat="43.54123" lon="5.52976">
        <ele>350.97643</ele>
        <time>2022-11-30T13:14:46.999Z</time>
      </trkpt>
      <trkpt lat="43.54129" lon="5.52983">
        <ele>351.20951</ele>
        <time>2022-11-30T13:14:54.999Z</time>
      </trkpt>
      <trkpt lat="43.5413" lon="5.52987">
        <ele>351.31299</ele>
        <time>2022-11-30T13:14:57.998Z</time>
      </trkpt>
      <trkpt lat="43.54132" lon="5.5299">
        <ele>351.42881</ele>
        <time>2022-11-30T13:15:00.998Z</time>
      </trkpt>
      <trkpt lat="43.54133" lon="5.53">
        <ele>351.68258</ele>
        <time>2022-11-30T13:15:05.998Z</time>
      </trkpt>
      <trkpt lat="43.54135" lon="5.53004">
        <ele>351.85115</ele>
        <time>2022-11-30T13:15:08.998Z</time>
      </trkpt>
      <trkpt lat="43.54136" lon="5.53007">
        <ele>352.02097</ele>
        <time>2022-11-30T13:15:10.998Z</time>
      </trkpt>
      <trkpt lat="43.54134" lon="5.53011">
        <ele>352.17316</ele>
        <time>2022-11-30T13:15:12.998Z</time>
      </trkpt>
      <trkpt lat="43.54133" lon="5.53022">
        <ele>352.70599</ele>
        <time>2022-11-30T13:15:19.997Z</time>
      </trkpt>
      <trkpt lat="43.5413" lon="5.53028">
        <ele>353.08964</ele>
        <time>2022-11-30T13:15:23.997Z</time>
      </trkpt>
      <trkpt lat="43.54124" lon="5.53034">
        <ele>353.44658</ele>
        <time>2022-11-30T13:15:27.997Z</time>
      </trkpt>
      <trkpt lat="43.5412" lon="5.53041">
        <ele>353.82683</ele>
        <time>2022-11-30T13:15:33.997Z</time>
      </trkpt>
      <trkpt lat="43.54117" lon="5.53042">
        <ele>353.93761</ele>
        <time>2022-11-30T13:15:35.997Z</time>
      </trkpt>
      <trkpt lat="43.54115" lon="5.53049">
        <ele>354.19023</ele>
        <time>2022-11-30T13:15:40.996Z</time>
      </trkpt>
      <trkpt lat="43.54106" lon="5.53062">
        <ele>354.6335</ele>
        <time>2022-11-30T13:15:51.996Z</time>
      </trkpt>
      <trkpt lat="43.54105" lon="5.53066">
        <ele>354.70202</ele>
        <time>2022-11-30T13:15:55.996Z</time>
      </trkpt>
      <trkpt lat="43.54104" lon="5.53069">
        <ele>354.75206</ele>
        <time>2022-11-30T13:15:57.996Z</time>
      </trkpt>
      <trkpt lat="43.54099" lon="5.53082">
        <ele>354.94473</ele>
        <time>2022-11-30T13:16:08.995Z</time>
      </trkpt>
      <trkpt lat="43.54097" lon="5.53099">
        <ele>355.07201</ele>
        <time>2022-11-30T13:16:20.000Z</time>
      </trkpt>
      <trkpt lat="43.54095" lon="5.53105">
        <ele>355.12088</ele>
        <time>2022-11-30T13:16:24.000Z</time>
      </trkpt>
      <trkpt lat="43.54096" lon="5.53113">
        <ele>355.15751</ele>
        <time>2022-11-30T13:16:29.000Z</time>
      </trkpt>
      <trkpt lat="43.54095" lon="5.53116">
        <ele>355.17439</ele>
        <time>2022-11-30T13:16:31.000Z</time>
      </trkpt>
      <trkpt lat="43.54095" lon="5.53119">
        <ele>355.1879</ele>
        <time>2022-11-30T13:16:34.000Z</time>
      </trkpt>
      <trkpt lat="43.54097" lon="5.53122">
        <ele>355.19323</ele>
        <time>2022-11-30T13:16:37.000Z</time>
      </trkpt>
      <trkpt lat="43.54098" lon="5.53132">
        <ele>355.21578</ele>
        <time>2022-11-30T13:16:42.999Z</time>
      </trkpt>
      <trkpt lat="43.54101" lon="5.53142">
        <ele>355.25289</ele>
        <time>2022-11-30T13:16:48.999Z</time>
      </trkpt>
      <trkpt lat="43.54104" lon="5.53148">
        <ele>355.28252</ele>
        <time>2022-11-30T13:16:53.999Z</time>
      </trkpt>
      <trkpt lat="43.54106" lon="5.53154">
        <ele>355.31184</ele>
        <time>2022-11-30T13:16:58.999Z</time>
      </trkpt>
      <trkpt lat="43.54114" lon="5.53166">
        <ele>355.37098</ele>
        <time>2022-11-30T13:17:08.998Z</time>
      </trkpt>
      <trkpt lat="43.54117" lon="5.53175">
        <ele>355.39644</ele>
        <time>2022-11-30T13:17:15.998Z</time>
      </trkpt>
      <trkpt lat="43.5412" lon="5.53176">
        <ele>355.40224</ele>
        <time>2022-11-30T13:17:18.998Z</time>
      </trkpt>
      <trkpt lat="43.54123" lon="5.53182">
        <ele>355.40996</ele>
        <time>2022-11-30T13:17:22.997Z</time>
      </trkpt>
      <trkpt lat="43.54126" lon="5.53194">
        <ele>355.40956</ele>
        <time>2022-11-30T13:17:29.997Z</time>
      </trkpt>
      <trkpt lat="43.5413" lon="5.53199">
        <ele>355.39907</ele>
        <time>2022-11-30T13:17:33.997Z</time>
      </trkpt>
      <trkpt lat="43.54132" lon="5.53201">
        <ele>355.37956</ele>
        <time>2022-11-30T13:17:38.997Z</time>
      </trkpt>
      <trkpt lat="43.54133" lon="5.53204">
        <ele>355.37106</ele>
        <time>2022-11-30T13:17:41.997Z</time>
      </trkpt>
      <trkpt lat="43.54136" lon="5.53211">
        <ele>355.3396</ele>
        <time>2022-11-30T13:17:46.996Z</time>
      </trkpt>
      <trkpt lat="43.54141" lon="5.5322">
        <ele>355.28269</ele>
        <time>2022-11-30T13:17:54.996Z</time>
      </trkpt>
      <trkpt lat="43.54143" lon="5.53227">
        <ele>355.23066</ele>
        <time>2022-11-30T13:17:59.996Z</time>
      </trkpt>
      <trkpt lat="43.54145" lon="5.53233">
        <ele>355.15387</ele>
        <time>2022-11-30T13:18:03.996Z</time>
      </trkpt>
      <trkpt lat="43.54152" lon="5.53245">
        <ele>354.97431</ele>
        <time>2022-11-30T13:18:12.995Z</time>
      </trkpt>
      <trkpt lat="43.54153" lon="5.53248">
        <ele>354.93011</ele>
        <time>2022-11-30T13:18:14.995Z</time>
      </trkpt>
      <trkpt lat="43.54156" lon="5.53264">
        <ele>354.72699</ele>
        <time>2022-11-30T13:18:25.000Z</time>
      </trkpt>
      <trkpt lat="43.54159" lon="5.5327">
        <ele>354.60353</ele>
        <time>2022-11-30T13:18:29.000Z</time>
      </trkpt>
      <trkpt lat="43.54159" lon="5.53274">
        <ele>354.52565</ele>
        <time>2022-11-30T13:18:32.000Z</time>
      </trkpt>
      <trkpt lat="43.5416" lon="5.53277">
        <ele>354.45847</ele>
        <time>2022-11-30T13:18:35.000Z</time>
      </trkpt>
      <trkpt lat="43.54162" lon="5.53279">
        <ele>354.37305</ele>
        <time>2022-11-30T13:18:38.000Z</time>
      </trkpt>
      <trkpt lat="43.54164" lon="5.53291">
        <ele>354.09518</ele>
        <time>2022-11-30T13:18:46.999Z</time>
      </trkpt>
      <trkpt lat="43.54167" lon="5.53295">
        <ele>354.02181</ele>
        <time>2022-11-30T13:18:49.999Z</time>
      </trkpt>
      <trkpt lat="43.54168" lon="5.53304">
        <ele>353.90755</ele>
        <time>2022-11-30T13:18:53.999Z</time>
      </trkpt>
      <trkpt lat="43.54168" lon="5.53308">
        <ele>353.85534</ele>
        <time>2022-11-30T13:18:56.999Z</time>
      </trkpt>
      <trkpt lat="43.54167" lon="5.53311">
        <ele>353.8323</ele>
        <time>2022-11-30T13:18:58.999Z</time>
      </trkpt>
      <trkpt lat="43.54166" lon="5.53314">
        <ele>353.80144</ele>
        <time>2022-11-30T13:19:01.999Z</time>
      </trkpt>
      <trkpt lat="43.54165" lon="5.53331">
        <ele>353.68236</ele>
        <time>2022-11-30T13:19:12.998Z</time>
      </trkpt>
      <trkpt lat="43.54166" lon="5.53336">
        <ele>353.65816</ele>
        <time>2022-11-30T13:19:15.998Z</time>
      </trkpt>
      <trkpt lat="43.54166" lon="5.53341">
        <ele>353.63748</ele>
        <time>2022-11-30T13:19:17.998Z</time>
      </trkpt>
      <trkpt lat="43.54168" lon="5.53344">
        <ele>353.60675</ele>
        <time>2022-11-30T13:19:19.998Z</time>
      </trkpt>
      <trkpt lat="43.5417" lon="5.53349">
        <ele>353.57772</ele>
        <time>2022-11-30T13:19:21.998Z</time>
      </trkpt>
      <trkpt lat="43.54172" lon="5.5336">
        <ele>353.55178</ele>
        <time>2022-11-30T13:19:27.997Z</time>
      </trkpt>
      <trkpt lat="43.54173" lon="5.53366">
        <ele>353.55539</ele>
        <time>2022-11-30T13:19:36.997Z</time>
      </trkpt>
      <trkpt lat="43.54173" lon="5.53369">
        <ele>353.55872</ele>
        <time>2022-11-30T13:19:39.997Z</time>
      </trkpt>
      <trkpt lat="43.54171" lon="5.53372">
        <ele>353.56157</ele>
        <time>2022-11-30T13:19:43.997Z</time>
      </trkpt>
      <trkpt lat="43.5417" lon="5.53377">
        <ele>353.55986</ele>
        <time>2022-11-30T13:19:46.997Z</time>
      </trkpt>
      <trkpt lat="43.54168" lon="5.53385">
        <ele>353.55558</ele>
        <time>2022-11-30T13:19:50.996Z</time>
      </trkpt>
      <trkpt lat="43.54165" lon="5.53388">
        <ele>353.54604</ele>
        <time>2022-11-30T13:19:53.996Z</time>
      </trkpt>
      <trkpt lat="43.54164" lon="5.53395">
        <ele>353.51535</ele>
        <time>2022-11-30T13:19:59.996Z</time>
      </trkpt>
      <trkpt lat="43.54157" lon="5.53406">
        <ele>353.41324</ele>
        <time>2022-11-30T13:20:07.996Z</time>
      </trkpt>
      <trkpt lat="43.54153" lon="5.53419">
        <ele>353.17625</ele>
        <time>2022-11-30T13:20:15.995Z</time>
      </trkpt>
      <trkpt lat="43.54148" lon="5.53425">
        <ele>352.80469</ele>
        <time>2022-11-30T13:20:21.995Z</time>
      </trkpt>
      <trkpt lat="43.54146" lon="5.53426">
        <ele>352.45943</ele>
        <time>2022-11-30T13:20:26.000Z</time>
      </trkpt>
      <trkpt lat="43.5414" lon="5.53431">
        <ele>351.53236</ele>
        <time>2022-11-30T13:20:32.000Z</time>
      </trkpt>
      <trkpt lat="43.54134" lon="5.53442">
        <ele>348.30696</ele>
        <time>2022-11-30T13:20:42.000Z</time>
      </trkpt>
      <trkpt lat="43.5413" lon="5.53449">
        <ele>346.46815</ele>
        <time>2022-11-30T13:20:47.000Z</time>
      </trkpt>
      <trkpt lat="43.54128" lon="5.53451">
        <ele>345.57481</ele>
        <time>2022-11-30T13:20:49.000Z</time>
      </trkpt>
      <trkpt lat="43.54125" lon="5.53451">
        <ele>342.00243</ele>
        <time>2022-11-30T13:21:08.999Z</time>
      </trkpt>
      <trkpt lat="43.54129" lon="5.53458">
        <ele>338.98805</ele>
        <time>2022-11-30T13:21:40.997Z</time>
      </trkpt>
      <trkpt lat="43.54136" lon="5.53463">
        <ele>338.68726</ele>
        <time>2022-11-30T13:21:45.997Z</time>
      </trkpt>
      <trkpt lat="43.5414" lon="5.53473">
        <ele>339.27241</ele>
        <time>2022-11-30T13:21:54.996Z</time>
      </trkpt>
      <trkpt lat="43.54141" lon="5.53476">
        <ele>339.5975</ele>
        <time>2022-11-30T13:21:57.996Z</time>
      </trkpt>
      <trkpt lat="43.54144" lon="5.53482">
        <ele>340.03312</ele>
        <time>2022-11-30T13:22:03.996Z</time>
      </trkpt>
      <trkpt lat="43.54146" lon="5.53494">
        <ele>340.34887</ele>
        <time>2022-11-30T13:22:10.996Z</time>
      </trkpt>
      <trkpt lat="43.54149" lon="5.53501">
        <ele>340.43235</ele>
        <time>2022-11-30T13:22:15.995Z</time>
      </trkpt>
      <trkpt lat="43.5415" lon="5.53508">
        <ele>340.40995</ele>
        <time>2022-11-30T13:22:19.995Z</time>
      </trkpt>
      <trkpt lat="43.54151" lon="5.53511">
        <ele>340.36848</ele>
        <time>2022-11-30T13:22:21.995Z</time>
      </trkpt>
      <trkpt lat="43.54153" lon="5.53514">
        <ele>340.25899</ele>
        <time>2022-11-30T13:22:24.995Z</time>
      </trkpt>
      <trkpt lat="43.54154" lon="5.53517">
        <ele>340.16065</ele>
        <time>2022-11-30T13:22:27.995Z</time>
      </trkpt>
      <trkpt lat="43.54155" lon="5.53521">
        <ele>340.08626</ele>
        <time>2022-11-30T13:22:31.000Z</time>
      </trkpt>
      <trkpt lat="43.54155" lon="5.53529">
        <ele>339.86584</ele>
        <time>2022-11-30T13:22:37.000Z</time>
      </trkpt>
      <trkpt lat="43.54153" lon="5.53536">
        <ele>339.5521</ele>
        <time>2022-11-30T13:22:42.000Z</time>
      </trkpt>
      <trkpt lat="43.54153" lon="5.5354">
        <ele>339.26827</ele>
        <time>2022-11-30T13:22:46.000Z</time>
      </trkpt>
      <trkpt lat="43.54152" lon="5.53558">
        <ele>337.45383</ele>
        <time>2022-11-30T13:22:56.999Z</time>
      </trkpt>
      <trkpt lat="43.54152" lon="5.53562">
        <ele>336.77956</ele>
        <time>2022-11-30T13:22:59.999Z</time>
      </trkpt>
      <trkpt lat="43.54145" lon="5.5357">
        <ele>334.38192</ele>
        <time>2022-11-30T13:23:07.999Z</time>
      </trkpt>
      <trkpt lat="43.54142" lon="5.53576">
        <ele>332.13915</ele>
        <time>2022-11-30T13:23:13.999Z</time>
      </trkpt>
      <trkpt lat="43.54132" lon="5.53586">
        <ele>328.47103</ele>
        <time>2022-11-30T13:23:24.998Z</time>
      </trkpt>
      <trkpt lat="43.54129" lon="5.53592">
        <ele>325.64859</ele>
        <time>2022-11-30T13:23:31.998Z</time>
      </trkpt>
      <trkpt lat="43.54119" lon="5.53607">
        <ele>321.58168</ele>
        <time>2022-11-30T13:23:42.997Z</time>
      </trkpt>
      <trkpt lat="43.54117" lon="5.53607">
        <ele>319.79314</ele>
        <time>2022-11-30T13:23:47.997Z</time>
      </trkpt>
      <trkpt lat="43.54114" lon="5.5361">
        <ele>318.37645</ele>
        <time>2022-11-30T13:23:49.997Z</time>
      </trkpt>
      <trkpt lat="43.54114" lon="5.53618">
        <ele>315.35345</ele>
        <time>2022-11-30T13:23:55.997Z</time>
      </trkpt>
      <trkpt lat="43.54115" lon="5.53621">
        <ele>312.89593</ele>
        <time>2022-11-30T13:23:56.996Z</time>
      </trkpt>
      <trkpt lat="43.54113" lon="5.53625">
        <ele>311.10266</ele>
        <time>2022-11-30T13:23:57.996Z</time>
      </trkpt>
      <trkpt lat="43.54112" lon="5.53628">
        <ele>309.8388</ele>
        <time>2022-11-30T13:23:59.996Z</time>
      </trkpt>
      <trkpt lat="43.5411" lon="5.53631">
        <ele>308.72628</ele>
        <time>2022-11-30T13:24:04.996Z</time>
      </trkpt>
      <trkpt lat="43.54104" lon="5.53637">
        <ele>307.4521</ele>
        <time>2022-11-30T13:24:27.995Z</time>
      </trkpt>
      <trkpt lat="43.54104" lon="5.53633">
        <ele>306.67132</ele>
        <time>2022-11-30T13:24:28.995Z</time>
      </trkpt>
      <trkpt lat="43.54105" lon="5.5363">
        <ele>306.13615</ele>
        <time>2022-11-30T13:24:29.995Z</time>
      </trkpt>
      <trkpt lat="43.54098" lon="5.53635">
        <ele>303.64382</ele>
        <time>2022-11-30T13:26:00.997Z</time>
      </trkpt>
      <trkpt lat="43.54095" lon="5.53637">
        <ele>303.11429</ele>
        <time>2022-11-30T13:26:03.996Z</time>
      </trkpt>
      <trkpt lat="43.54093" lon="5.53638">
        <ele>302.50469</ele>
        <time>2022-11-30T13:26:06.996Z</time>
      </trkpt>
      <trkpt lat="43.5409" lon="5.5364">
        <ele>301.91133</ele>
        <time>2022-11-30T13:26:09.996Z</time>
      </trkpt>
      <trkpt lat="43.54074" lon="5.53646">
        <ele>298.92528</ele>
        <time>2022-11-30T13:26:23.995Z</time>
      </trkpt>
      <trkpt lat="43.54069" lon="5.53647">
        <ele>298.50672</ele>
        <time>2022-11-30T13:26:27.995Z</time>
      </trkpt>
      <trkpt lat="43.54061" lon="5.53651">
        <ele>298.35751</ele>
        <time>2022-11-30T13:26:33.995Z</time>
      </trkpt>
      <trkpt lat="43.54056" lon="5.53652">
        <ele>298.59981</ele>
        <time>2022-11-30T13:26:38.995Z</time>
      </trkpt>
      <trkpt lat="43.54037" lon="5.53652">
        <ele>299.74095</ele>
        <time>2022-11-30T13:26:54.000Z</time>
      </trkpt>
      <trkpt lat="43.54029" lon="5.53652">
        <ele>300.17693</ele>
        <time>2022-11-30T13:27:00.999Z</time>
      </trkpt>
      <trkpt lat="43.54026" lon="5.53652">
        <ele>300.27121</ele>
        <time>2022-11-30T13:27:03.999Z</time>
      </trkpt>
      <trkpt lat="43.54023" lon="5.53652">
        <ele>300.41626</ele>
        <time>2022-11-30T13:27:07.999Z</time>
      </trkpt>
      <trkpt lat="43.5402" lon="5.5365">
        <ele>300.49901</ele>
        <time>2022-11-30T13:27:20.999Z</time>
      </trkpt>
      <trkpt lat="43.54019" lon="5.53647">
        <ele>300.65573</ele>
        <time>2022-11-30T13:27:24.998Z</time>
      </trkpt>
      <trkpt lat="43.54015" lon="5.53643">
        <ele>300.93483</ele>
        <time>2022-11-30T13:27:29.998Z</time>
      </trkpt>
      <trkpt lat="43.54011" lon="5.53645">
        <ele>301.08438</ele>
        <time>2022-11-30T13:27:46.997Z</time>
      </trkpt>
      <trkpt lat="43.53995" lon="5.53631">
        <ele>301.61984</ele>
        <time>2022-11-30T13:28:01.997Z</time>
      </trkpt>
      <trkpt lat="43.53979" lon="5.53622">
        <ele>303.7905</ele>
        <time>2022-11-30T13:28:13.996Z</time>
      </trkpt>
      <trkpt lat="43.53978" lon="5.53622">
        <ele>307.46065</ele>
        <time>2022-11-30T13:28:33.995Z</time>
      </trkpt>
      <trkpt lat="43.53976" lon="5.53624">
        <ele>316.74323</ele>
        <time>2022-11-30T13:29:01.999Z</time>
      </trkpt>
      <trkpt lat="43.53974" lon="5.53626">
        <ele>318.90678</ele>
        <time>2022-11-30T13:29:15.999Z</time>
      </trkpt>
      <trkpt lat="43.53971" lon="5.53625">
        <ele>325.15752</ele>
        <time>2022-11-30T13:30:47.995Z</time>
      </trkpt>
      <trkpt lat="43.53963" lon="5.53621">
        <ele>327.88918</ele>
        <time>2022-11-30T13:30:57.999Z</time>
      </trkpt>
      <trkpt lat="43.53958" lon="5.53617">
        <ele>330.62039</ele>
        <time>2022-11-30T13:31:07.999Z</time>
      </trkpt>
      <trkpt lat="43.53957" lon="5.53614">
        <ele>332.05283</ele>
        <time>2022-11-30T13:31:12.999Z</time>
      </trkpt>
      <trkpt lat="43.53953" lon="5.5361">
        <ele>334.72998</ele>
        <time>2022-11-30T13:32:04.997Z</time>
      </trkpt>
      <trkpt lat="43.5395" lon="5.53609">
        <ele>335.7512</ele>
        <time>2022-11-30T13:32:07.997Z</time>
      </trkpt>
      <trkpt lat="43.53948" lon="5.53607">
        <ele>336.66606</ele>
        <time>2022-11-30T13:32:10.997Z</time>
      </trkpt>
      <trkpt lat="43.53952" lon="5.53611">
        <ele>339.62122</ele>
        <time>2022-11-30T13:32:31.996Z</time>
      </trkpt>
      <trkpt lat="43.53955" lon="5.53612">
        <ele>340.10891</ele>
        <time>2022-11-30T13:32:37.996Z</time>
      </trkpt>
      <trkpt lat="43.53957" lon="5.53615">
        <ele>340.23359</ele>
        <time>2022-11-30T13:32:43.995Z</time>
      </trkpt>
      <trkpt lat="43.53959" lon="5.53616">
        <ele>340.1181</ele>
        <time>2022-11-30T13:32:49.995Z</time>
      </trkpt>
      <trkpt lat="43.53961" lon="5.53615">
        <ele>340.49753</ele>
        <time>2022-11-30T13:33:12.000Z</time>
      </trkpt>
      <trkpt lat="43.5395" lon="5.53608">
        <ele>342.04747</ele>
        <time>2022-11-30T13:34:23.997Z</time>
      </trkpt>
      <trkpt lat="43.53948" lon="5.5361">
        <ele>343.25721</ele>
        <time>2022-11-30T13:34:26.997Z</time>
      </trkpt>
      <trkpt lat="43.53945" lon="5.53608">
        <ele>345.30504</ele>
        <time>2022-11-30T13:34:53.996Z</time>
      </trkpt>
      <trkpt lat="43.53944" lon="5.53605">
        <ele>346.07032</ele>
        <time>2022-11-30T13:34:57.995Z</time>
      </trkpt>
      <trkpt lat="43.53943" lon="5.53603">
        <ele>346.2317</ele>
        <time>2022-11-30T13:35:01.995Z</time>
      </trkpt>
      <trkpt lat="43.53941" lon="5.536">
        <ele>346.26231</ele>
        <time>2022-11-30T13:35:07.000Z</time>
      </trkpt>
      <trkpt lat="43.53941" lon="5.53603">
        <ele>346.44009</ele>
        <time>2022-11-30T13:35:59.998Z</time>
      </trkpt>
      <trkpt lat="43.53946" lon="5.53607">
        <ele>346.3948</ele>
        <time>2022-11-30T13:36:08.998Z</time>
      </trkpt>
      <trkpt lat="43.53943" lon="5.53604">
        <ele>345.91364</ele>
        <time>2022-11-30T13:36:26.997Z</time>
      </trkpt>
      <trkpt lat="43.53932" lon="5.53595">
        <ele>346.12635</ele>
        <time>2022-11-30T13:36:42.996Z</time>
      </trkpt>
      <trkpt lat="43.5393" lon="5.53592">
        <ele>346.28694</ele>
        <time>2022-11-30T13:36:45.996Z</time>
      </trkpt>
      <trkpt lat="43.53923" lon="5.5358">
        <ele>347.09767</ele>
        <time>2022-11-30T13:36:57.996Z</time>
      </trkpt>
      <trkpt lat="43.5392" lon="5.53575">
        <ele>347.5591</ele>
        <time>2022-11-30T13:37:03.996Z</time>
      </trkpt>
      <trkpt lat="43.53918" lon="5.53567">
        <ele>348.09224</ele>
        <time>2022-11-30T13:37:11.001Z</time>
      </trkpt>
      <trkpt lat="43.53916" lon="5.53565">
        <ele>348.37206</ele>
        <time>2022-11-30T13:37:14.001Z</time>
      </trkpt>
      <trkpt lat="43.53908" lon="5.53559">
        <ele>349.3639</ele>
        <time>2022-11-30T13:37:28.000Z</time>
      </trkpt>
      <trkpt lat="43.53902" lon="5.5356">
        <ele>350.13924</ele>
        <time>2022-11-30T13:37:34.000Z</time>
      </trkpt>
      <trkpt lat="43.53892" lon="5.53566">
        <ele>352.05115</ele>
        <time>2022-11-30T13:37:44.999Z</time>
      </trkpt>
      <trkpt lat="43.53881" lon="5.53574">
        <ele>354.36736</ele>
        <time>2022-11-30T13:37:56.999Z</time>
      </trkpt>
      <trkpt lat="43.53879" lon="5.53577">
        <ele>355.40879</ele>
        <time>2022-11-30T13:37:59.999Z</time>
      </trkpt>
      <trkpt lat="43.53867" lon="5.53584">
        <ele>357.71852</ele>
        <time>2022-11-30T13:38:13.998Z</time>
      </trkpt>
      <trkpt lat="43.53861" lon="5.53586">
        <ele>358.52924</ele>
        <time>2022-11-30T13:38:20.998Z</time>
      </trkpt>
      <trkpt lat="43.53856" lon="5.5359">
        <ele>359.27036</ele>
        <time>2022-11-30T13:38:26.997Z</time>
      </trkpt>
      <trkpt lat="43.53851" lon="5.53592">
        <ele>359.98671</ele>
        <time>2022-11-30T13:38:32.997Z</time>
      </trkpt>
      <trkpt lat="43.53845" lon="5.53591">
        <ele>360.63672</ele>
        <time>2022-11-30T13:38:37.997Z</time>
      </trkpt>
      <trkpt lat="43.53837" lon="5.53587">
        <ele>361.50772</ele>
        <time>2022-11-30T13:38:45.997Z</time>
      </trkpt>
      <trkpt lat="43.53821" lon="5.53572">
        <ele>363.42881</ele>
        <time>2022-11-30T13:39:04.996Z</time>
      </trkpt>
      <trkpt lat="43.53812" lon="5.53564">
        <ele>364.55447</ele>
        <time>2022-11-30T13:39:16.001Z</time>
      </trkpt>
      <trkpt lat="43.53807" lon="5.53561">
        <ele>365.12848</ele>
        <time>2022-11-30T13:39:20.001Z</time>
      </trkpt>
      <trkpt lat="43.53803" lon="5.53555">
        <ele>365.65407</ele>
        <time>2022-11-30T13:39:26.001Z</time>
      </trkpt>
      <trkpt lat="43.53791" lon="5.53545">
        <ele>366.66888</ele>
        <time>2022-11-30T13:39:38.000Z</time>
      </trkpt>
      <trkpt lat="43.53777" lon="5.53536">
        <ele>367.2984</ele>
        <time>2022-11-30T13:39:51.999Z</time>
      </trkpt>
      <trkpt lat="43.5377" lon="5.53531">
        <ele>367.50258</ele>
        <time>2022-11-30T13:39:58.999Z</time>
      </trkpt>
      <trkpt lat="43.53763" lon="5.53525">
        <ele>367.68775</ele>
        <time>2022-11-30T13:40:06.999Z</time>
      </trkpt>
      <trkpt lat="43.53761" lon="5.53524">
        <ele>367.72567</ele>
        <time>2022-11-30T13:40:08.999Z</time>
      </trkpt>
      <trkpt lat="43.53753" lon="5.5352">
        <ele>367.76933</ele>
        <time>2022-11-30T13:40:16.998Z</time>
      </trkpt>
      <trkpt lat="43.5374" lon="5.53519">
        <ele>367.83779</ele>
        <time>2022-11-30T13:40:28.998Z</time>
      </trkpt>
      <trkpt lat="43.53728" lon="5.53523">
        <ele>367.84733</ele>
        <time>2022-11-30T13:40:40.997Z</time>
      </trkpt>
      <trkpt lat="43.53723" lon="5.53526">
        <ele>367.85976</ele>
        <time>2022-11-30T13:40:45.997Z</time>
      </trkpt>
      <trkpt lat="43.5371" lon="5.53535">
        <ele>367.91544</ele>
        <time>2022-11-30T13:40:58.996Z</time>
      </trkpt>
      <trkpt lat="43.53702" lon="5.53545">
        <ele>368.02465</ele>
        <time>2022-11-30T13:41:08.996Z</time>
      </trkpt>
      <trkpt lat="43.53698" lon="5.5355">
        <ele>368.10892</ele>
        <time>2022-11-30T13:41:13.996Z</time>
      </trkpt>
      <trkpt lat="43.53691" lon="5.53558">
        <ele>368.2606</ele>
        <time>2022-11-30T13:41:23.001Z</time>
      </trkpt>
      <trkpt lat="43.53685" lon="5.53565">
        <ele>368.43276</ele>
        <time>2022-11-30T13:41:30.001Z</time>
      </trkpt>
      <trkpt lat="43.53679" lon="5.5357">
        <ele>368.52655</ele>
        <time>2022-11-30T13:41:36.000Z</time>
      </trkpt>
      <trkpt lat="43.53677" lon="5.53573">
        <ele>368.57637</ele>
        <time>2022-11-30T13:41:39.000Z</time>
      </trkpt>
      <trkpt lat="43.53667" lon="5.53581">
        <ele>368.74311</ele>
        <time>2022-11-30T13:41:50.000Z</time>
      </trkpt>
      <trkpt lat="43.53654" lon="5.53592">
        <ele>369.00288</ele>
        <time>2022-11-30T13:42:02.999Z</time>
      </trkpt>
      <trkpt lat="43.53649" lon="5.53595">
        <ele>369.12236</ele>
        <time>2022-11-30T13:42:07.999Z</time>
      </trkpt>
      <trkpt lat="43.53645" lon="5.53598">
        <ele>369.2417</ele>
        <time>2022-11-30T13:42:12.999Z</time>
      </trkpt>
      <trkpt lat="43.53635" lon="5.53606">
        <ele>369.47916</ele>
        <time>2022-11-30T13:42:22.998Z</time>
      </trkpt>
      <trkpt lat="43.53629" lon="5.53608">
        <ele>369.58633</ele>
        <time>2022-11-30T13:42:28.998Z</time>
      </trkpt>
      <trkpt lat="43.53624" lon="5.5361">
        <ele>369.68105</ele>
        <time>2022-11-30T13:42:32.998Z</time>
      </trkpt>
      <trkpt lat="43.5361" lon="5.53613">
        <ele>369.88791</ele>
        <time>2022-11-30T13:42:44.997Z</time>
      </trkpt>
      <trkpt lat="43.53607" lon="5.53613">
        <ele>369.92881</ele>
        <time>2022-11-30T13:42:46.997Z</time>
      </trkpt>
      <trkpt lat="43.53594" lon="5.53612">
        <ele>370.1299</ele>
        <time>2022-11-30T13:42:58.996Z</time>
      </trkpt>
      <trkpt lat="43.53581" lon="5.5361">
        <ele>370.2749</ele>
        <time>2022-11-30T13:43:11.996Z</time>
      </trkpt>
      <trkpt lat="43.53575" lon="5.53609">
        <ele>370.32147</ele>
        <time>2022-11-30T13:43:16.995Z</time>
      </trkpt>
      <trkpt lat="43.53566" lon="5.53605">
        <ele>370.38708</ele>
        <time>2022-11-30T13:43:25.995Z</time>
      </trkpt>
      <trkpt lat="43.53564" lon="5.53603">
        <ele>370.40624</ele>
        <time>2022-11-30T13:43:28.001Z</time>
      </trkpt>
      <trkpt lat="43.53556" lon="5.536">
        <ele>370.45956</ele>
        <time>2022-11-30T13:43:36.001Z</time>
      </trkpt>
      <trkpt lat="43.5355" lon="5.53593">
        <ele>370.51123</ele>
        <time>2022-11-30T13:43:44.000Z</time>
      </trkpt>
      <trkpt lat="43.53548" lon="5.53592">
        <ele>370.5266</ele>
        <time>2022-11-30T13:43:46.000Z</time>
      </trkpt>
      <trkpt lat="43.53543" lon="5.53587">
        <ele>370.5578</ele>
        <time>2022-11-30T13:43:51.000Z</time>
      </trkpt>
      <trkpt lat="43.53536" lon="5.53577">
        <ele>370.61591</ele>
        <time>2022-11-30T13:43:59.999Z</time>
      </trkpt>
      <trkpt lat="43.53528" lon="5.53566">
        <ele>370.67183</ele>
        <time>2022-11-30T13:44:09.999Z</time>
      </trkpt>
      <trkpt lat="43.53522" lon="5.5355">
        <ele>370.72275</ele>
        <time>2022-11-30T13:44:21.998Z</time>
      </trkpt>
      <trkpt lat="43.53513" lon="5.5353">
        <ele>370.73852</ele>
        <time>2022-11-30T13:44:37.998Z</time>
      </trkpt>
      <trkpt lat="43.5351" lon="5.53522">
        <ele>370.73279</ele>
        <time>2022-11-30T13:44:43.997Z</time>
      </trkpt>
      <trkpt lat="43.5351" lon="5.53515">
        <ele>370.72209</ele>
        <time>2022-11-30T13:44:47.997Z</time>
      </trkpt>
      <trkpt lat="43.53508" lon="5.53491">
        <ele>370.61054</ele>
        <time>2022-11-30T13:45:01.996Z</time>
      </trkpt>
      <trkpt lat="43.53508" lon="5.53472">
        <ele>370.38463</ele>
        <time>2022-11-30T13:45:13.996Z</time>
      </trkpt>
      <trkpt lat="43.53509" lon="5.5346">
        <ele>370.21238</ele>
        <time>2022-11-30T13:45:21.995Z</time>
      </trkpt>
      <trkpt lat="43.53508" lon="5.53457">
        <ele>370.16428</ele>
        <time>2022-11-30T13:45:24.995Z</time>
      </trkpt>
      <trkpt lat="43.53507" lon="5.53439">
        <ele>370.01029</ele>
        <time>2022-11-30T13:45:36.000Z</time>
      </trkpt>
      <trkpt lat="43.53502" lon="5.53417">
        <ele>369.90924</ele>
        <time>2022-11-30T13:45:51.000Z</time>
      </trkpt>
      <trkpt lat="43.53496" lon="5.53402">
        <ele>369.82917</ele>
        <time>2022-11-30T13:46:02.000Z</time>
      </trkpt>
      <trkpt lat="43.53495" lon="5.53399">
        <ele>369.80146</ele>
        <time>2022-11-30T13:46:04.000Z</time>
      </trkpt>
      <trkpt lat="43.53487" lon="5.53389">
        <ele>369.60413</ele>
        <time>2022-11-30T13:46:12.999Z</time>
      </trkpt>
      <trkpt lat="43.53482" lon="5.5338">
        <ele>369.3541</ele>
        <time>2022-11-30T13:46:19.999Z</time>
      </trkpt>
      <trkpt lat="43.53476" lon="5.53372">
        <ele>368.9753</ele>
        <time>2022-11-30T13:46:26.998Z</time>
      </trkpt>
      <trkpt lat="43.53471" lon="5.53368">
        <ele>368.65012</ele>
        <time>2022-11-30T13:46:31.998Z</time>
      </trkpt>
      <trkpt lat="43.53467" lon="5.53364">
        <ele>368.26438</ele>
        <time>2022-11-30T13:46:35.998Z</time>
      </trkpt>
      <trkpt lat="43.53456" lon="5.53349">
        <ele>366.89941</ele>
        <time>2022-11-30T13:46:49.997Z</time>
      </trkpt>
      <trkpt lat="43.53442" lon="5.53336">
        <ele>365.25657</ele>
        <time>2022-11-30T13:47:03.997Z</time>
      </trkpt>
      <trkpt lat="43.53439" lon="5.53335">
        <ele>365.02209</ele>
        <time>2022-11-30T13:47:05.996Z</time>
      </trkpt>
      <trkpt lat="43.53427" lon="5.53324">
        <ele>364.22136</ele>
        <time>2022-11-30T13:47:17.996Z</time>
      </trkpt>
      <trkpt lat="43.53424" lon="5.53322">
        <ele>364.16837</ele>
        <time>2022-11-30T13:47:20.996Z</time>
      </trkpt>
      <trkpt lat="43.53416" lon="5.53313">
        <ele>364.11246</ele>
        <time>2022-11-30T13:47:28.995Z</time>
      </trkpt>
      <trkpt lat="43.53412" lon="5.53308">
        <ele>364.15497</ele>
        <time>2022-11-30T13:47:32.995Z</time>
      </trkpt>
      <trkpt lat="43.53396" lon="5.53293">
        <ele>364.64498</ele>
        <time>2022-11-30T13:47:49.000Z</time>
      </trkpt>
      <trkpt lat="43.53388" lon="5.53285">
        <ele>364.99509</ele>
        <time>2022-11-30T13:47:57.000Z</time>
      </trkpt>
      <trkpt lat="43.53383" lon="5.5328">
        <ele>365.40942</ele>
        <time>2022-11-30T13:48:02.000Z</time>
      </trkpt>
      <trkpt lat="43.53374" lon="5.53271">
        <ele>365.94022</ele>
        <time>2022-11-30T13:48:11.999Z</time>
      </trkpt>
      <trkpt lat="43.53366" lon="5.53265">
        <ele>366.34208</ele>
        <time>2022-11-30T13:48:19.999Z</time>
      </trkpt>
      <trkpt lat="43.53359" lon="5.53258">
        <ele>366.63536</ele>
        <time>2022-11-30T13:48:26.999Z</time>
      </trkpt>
      <trkpt lat="43.53347" lon="5.53249">
        <ele>366.93395</ele>
        <time>2022-11-30T13:48:37.998Z</time>
      </trkpt>
      <trkpt lat="43.53339" lon="5.53242">
        <ele>367.08565</ele>
        <time>2022-11-30T13:48:45.998Z</time>
      </trkpt>
      <trkpt lat="43.53337" lon="5.5324">
        <ele>367.14007</ele>
        <time>2022-11-30T13:48:47.998Z</time>
      </trkpt>
      <trkpt lat="43.53327" lon="5.53233">
        <ele>367.27379</ele>
        <time>2022-11-30T13:48:57.997Z</time>
      </trkpt>
      <trkpt lat="43.53317" lon="5.53229">
        <ele>367.38309</ele>
        <time>2022-11-30T13:49:06.997Z</time>
      </trkpt>
      <trkpt lat="43.53315" lon="5.53227">
        <ele>367.40911</ele>
        <time>2022-11-30T13:49:08.997Z</time>
      </trkpt>
      <trkpt lat="43.53309" lon="5.53223">
        <ele>367.45842</ele>
        <time>2022-11-30T13:49:14.996Z</time>
      </trkpt>
      <trkpt lat="43.53306" lon="5.53222">
        <ele>367.46522</ele>
        <time>2022-11-30T13:49:16.996Z</time>
      </trkpt>
      <trkpt lat="43.53301" lon="5.53219">
        <ele>367.47456</ele>
        <time>2022-11-30T13:49:21.996Z</time>
      </trkpt>
      <trkpt lat="43.53296" lon="5.53214">
        <ele>367.45503</ele>
        <time>2022-11-30T13:49:27.996Z</time>
      </trkpt>
      <trkpt lat="43.53285" lon="5.53206">
        <ele>367.26717</ele>
        <time>2022-11-30T13:49:39.995Z</time>
      </trkpt>
      <trkpt lat="43.53275" lon="5.53198">
        <ele>366.85882</ele>
        <time>2022-11-30T13:49:51.000Z</time>
      </trkpt>
      <trkpt lat="43.53268" lon="5.53193">
        <ele>366.23275</ele>
        <time>2022-11-30T13:49:58.000Z</time>
      </trkpt>
      <trkpt lat="43.53265" lon="5.53193">
        <ele>365.92176</ele>
        <time>2022-11-30T13:50:01.000Z</time>
      </trkpt>
      <trkpt lat="43.53261" lon="5.5319">
        <ele>365.5719</ele>
        <time>2022-11-30T13:50:04.000Z</time>
      </trkpt>
      <trkpt lat="43.53259" lon="5.53189">
        <ele>365.19183</ele>
        <time>2022-11-30T13:50:06.000Z</time>
      </trkpt>
      <trkpt lat="43.53246" lon="5.53181">
        <ele>362.68224</ele>
        <time>2022-11-30T13:50:17.999Z</time>
      </trkpt>
      <trkpt lat="43.5323" lon="5.53174">
        <ele>359.11057</ele>
        <time>2022-11-30T13:50:31.999Z</time>
      </trkpt>
      <trkpt lat="43.53214" lon="5.53166">
        <ele>355.53497</ele>
        <time>2022-11-30T13:50:45.998Z</time>
      </trkpt>
      <trkpt lat="43.53204" lon="5.53161">
        <ele>354.04804</ele>
        <time>2022-11-30T13:50:54.997Z</time>
      </trkpt>
      <trkpt lat="43.53199" lon="5.53159">
        <ele>353.45877</ele>
        <time>2022-11-30T13:50:59.997Z</time>
      </trkpt>
      <trkpt lat="43.53186" lon="5.53152">
        <ele>352.28359</ele>
        <time>2022-11-30T13:51:10.997Z</time>
      </trkpt>
      <trkpt lat="43.5317" lon="5.5314">
        <ele>351.264</ele>
        <time>2022-11-30T13:51:25.996Z</time>
      </trkpt>
      <trkpt lat="43.53156" lon="5.5313">
        <ele>350.63705</ele>
        <time>2022-11-30T13:51:37.995Z</time>
      </trkpt>
      <trkpt lat="43.53145" lon="5.53112">
        <ele>350.56718</ele>
        <time>2022-11-30T13:51:49.995Z</time>
      </trkpt>
      <trkpt lat="43.53134" lon="5.53095">
        <ele>350.8811</ele>
        <time>2022-11-30T13:52:03.000Z</time>
      </trkpt>
      <trkpt lat="43.5313" lon="5.53082">
        <ele>351.08681</ele>
        <time>2022-11-30T13:52:11.000Z</time>
      </trkpt>
      <trkpt lat="43.53128" lon="5.53075">
        <ele>351.17754</ele>
        <time>2022-11-30T13:52:15.000Z</time>
      </trkpt>
      <trkpt lat="43.53128" lon="5.53067">
        <ele>351.29427</ele>
        <time>2022-11-30T13:52:19.999Z</time>
      </trkpt>
      <trkpt lat="43.53125" lon="5.53059">
        <ele>351.45826</ele>
        <time>2022-11-30T13:52:25.999Z</time>
      </trkpt>
      <trkpt lat="43.53121" lon="5.53038">
        <ele>352.21252</ele>
        <time>2022-11-30T13:52:39.998Z</time>
      </trkpt>
      <trkpt lat="43.53119" lon="5.53024">
        <ele>352.78099</ele>
        <time>2022-11-30T13:52:47.998Z</time>
      </trkpt>
      <trkpt lat="43.53116" lon="5.5301">
        <ele>353.35436</ele>
        <time>2022-11-30T13:52:56.997Z</time>
      </trkpt>
      <trkpt lat="43.53113" lon="5.53003">
        <ele>353.61362</ele>
        <time>2022-11-30T13:53:01.997Z</time>
      </trkpt>
      <trkpt lat="43.53102" lon="5.52985">
        <ele>354.22209</ele>
        <time>2022-11-30T13:53:15.997Z</time>
      </trkpt>
      <trkpt lat="43.53099" lon="5.52976">
        <ele>354.51162</ele>
        <time>2022-11-30T13:53:21.996Z</time>
      </trkpt>
      <trkpt lat="43.53096" lon="5.52971">
        <ele>354.75681</ele>
        <time>2022-11-30T13:53:25.996Z</time>
      </trkpt>
      <trkpt lat="43.53087" lon="5.52954">
        <ele>355.95513</ele>
        <time>2022-11-30T13:53:37.995Z</time>
      </trkpt>
      <trkpt lat="43.53083" lon="5.52949">
        <ele>356.36131</ele>
        <time>2022-11-30T13:53:41.995Z</time>
      </trkpt>
      <trkpt lat="43.5308" lon="5.52939">
        <ele>357.09545</ele>
        <time>2022-11-30T13:53:47.995Z</time>
      </trkpt>
      <trkpt lat="43.53076" lon="5.52933">
        <ele>357.60933</ele>
        <time>2022-11-30T13:53:51.995Z</time>
      </trkpt>
      <trkpt lat="43.53073" lon="5.52925">
        <ele>358.06348</ele>
        <time>2022-11-30T13:53:57.000Z</time>
      </trkpt>
      <trkpt lat="43.53062" lon="5.52905">
        <ele>359.44086</ele>
        <time>2022-11-30T13:54:11.000Z</time>
      </trkpt>
      <trkpt lat="43.53059" lon="5.52899">
        <ele>359.69174</ele>
        <time>2022-11-30T13:54:15.000Z</time>
      </trkpt>
      <trkpt lat="43.53049" lon="5.52883">
        <ele>360.30727</ele>
        <time>2022-11-30T13:54:26.999Z</time>
      </trkpt>
      <trkpt lat="43.53046" lon="5.52877">
        <ele>360.46146</ele>
        <time>2022-11-30T13:54:30.999Z</time>
      </trkpt>
      <trkpt lat="43.53043" lon="5.52872">
        <ele>360.61486</ele>
        <time>2022-11-30T13:54:34.999Z</time>
      </trkpt>
      <trkpt lat="43.53038" lon="5.52869">
        <ele>360.72223</ele>
        <time>2022-11-30T13:54:38.999Z</time>
      </trkpt>
      <trkpt lat="43.53032" lon="5.5286">
        <ele>360.84876</ele>
        <time>2022-11-30T13:54:46.998Z</time>
      </trkpt>
      <trkpt lat="43.53025" lon="5.52852">
        <ele>361.07625</ele>
        <time>2022-11-30T13:57:58.995Z</time>
      </trkpt>
      <trkpt lat="43.53023" lon="5.52849">
        <ele>361.09992</ele>
        <time>2022-11-30T13:58:02.995Z</time>
      </trkpt>
      <trkpt lat="43.53022" lon="5.52846">
        <ele>361.12249</ele>
        <time>2022-11-30T13:58:09.000Z</time>
      </trkpt>
      <trkpt lat="43.53025" lon="5.52841">
        <ele>361.17062</ele>
        <time>2022-11-30T13:58:21.000Z</time>
      </trkpt>
      <trkpt lat="43.53019" lon="5.5284">
        <ele>361.23533</ele>
        <time>2022-11-30T13:59:00.998Z</time>
      </trkpt>
      <trkpt lat="43.53016" lon="5.52838">
        <ele>361.24022</ele>
        <time>2022-11-30T13:59:03.998Z</time>
      </trkpt>
      <trkpt lat="43.53012" lon="5.52832">
        <ele>361.24818</ele>
        <time>2022-11-30T13:59:09.998Z</time>
      </trkpt>
      <trkpt lat="43.53007" lon="5.52828">
        <ele>361.26065</ele>
        <time>2022-11-30T13:59:14.997Z</time>
      </trkpt>
      <trkpt lat="43.52993" lon="5.52815">
        <ele>361.30821</ele>
        <time>2022-11-30T13:59:29.997Z</time>
      </trkpt>
      <trkpt lat="43.52989" lon="5.5281">
        <ele>361.31294</ele>
        <time>2022-11-30T13:59:35.996Z</time>
      </trkpt>
      <trkpt lat="43.52977" lon="5.528">
        <ele>361.32357</ele>
        <time>2022-11-30T13:59:47.996Z</time>
      </trkpt>
      <trkpt lat="43.52971" lon="5.52795">
        <ele>361.31785</ele>
        <time>2022-11-30T13:59:54.995Z</time>
      </trkpt>
      <trkpt lat="43.52968" lon="5.52791">
        <ele>361.31422</ele>
        <time>2022-11-30T13:59:58.995Z</time>
      </trkpt>
      <trkpt lat="43.52958" lon="5.52785">
        <ele>361.28046</ele>
        <time>2022-11-30T14:00:08.995Z</time>
      </trkpt>
      <trkpt lat="43.52949" lon="5.52772">
        <ele>361.19502</ele>
        <time>2022-11-30T14:00:21.000Z</time>
      </trkpt>
      <trkpt lat="43.52949" lon="5.52768">
        <ele>361.14422</ele>
        <time>2022-11-30T14:00:24.000Z</time>
      </trkpt>
      <trkpt lat="43.52957" lon="5.52753">
        <ele>360.45478</ele>
        <time>2022-11-30T14:00:36.999Z</time>
      </trkpt>
      <trkpt lat="43.5296" lon="5.52743">
        <ele>358.78321</ele>
        <time>2022-11-30T14:00:45.999Z</time>
      </trkpt>
      <trkpt lat="43.52958" lon="5.52742">
        <ele>358.3367</ele>
        <time>2022-11-30T14:00:49.999Z</time>
      </trkpt>
      <trkpt lat="43.52958" lon="5.52738">
        <ele>357.85127</ele>
        <time>2022-11-30T14:01:05.998Z</time>
      </trkpt>
      <trkpt lat="43.52963" lon="5.52725">
        <ele>355.73814</ele>
        <time>2022-11-30T14:01:32.997Z</time>
      </trkpt>
      <trkpt lat="43.52971" lon="5.52714">
        <ele>352.99843</ele>
        <time>2022-11-30T14:01:47.996Z</time>
      </trkpt>
      <trkpt lat="43.52971" lon="5.5271">
        <ele>352.36416</ele>
        <time>2022-11-30T14:01:50.996Z</time>
      </trkpt>
      <trkpt lat="43.52975" lon="5.527">
        <ele>350.51151</ele>
        <time>2022-11-30T14:01:59.995Z</time>
      </trkpt>
      <trkpt lat="43.52981" lon="5.52687">
        <ele>347.9178</ele>
        <time>2022-11-30T14:02:12.995Z</time>
      </trkpt>
      <trkpt lat="43.52983" lon="5.52684">
        <ele>347.30459</ele>
        <time>2022-11-30T14:02:15.995Z</time>
      </trkpt>
      <trkpt lat="43.52988" lon="5.52676">
        <ele>345.35287</ele>
        <time>2022-11-30T14:02:22.999Z</time>
      </trkpt>
      <trkpt lat="43.52991" lon="5.5267">
        <ele>343.96265</ele>
        <time>2022-11-30T14:02:28.999Z</time>
      </trkpt>
      <trkpt lat="43.52996" lon="5.52663">
        <ele>341.50282</ele>
        <time>2022-11-30T14:02:37.999Z</time>
      </trkpt>
      <trkpt lat="43.53002" lon="5.52656">
        <ele>339.08868</ele>
        <time>2022-11-30T14:02:46.999Z</time>
      </trkpt>
      <trkpt lat="43.53003" lon="5.52653">
        <ele>338.28537</ele>
        <time>2022-11-30T14:02:49.999Z</time>
      </trkpt>
      <trkpt lat="43.53005" lon="5.5265">
        <ele>337.51873</ele>
        <time>2022-11-30T14:02:53.999Z</time>
      </trkpt>
      <trkpt lat="43.53005" lon="5.52647">
        <ele>336.29978</ele>
        <time>2022-11-30T14:02:56.999Z</time>
      </trkpt>
      <trkpt lat="43.53004" lon="5.5264">
        <ele>335.0398</ele>
        <time>2022-11-30T14:03:02.998Z</time>
      </trkpt>
      <trkpt lat="43.52996" lon="5.52624">
        <ele>332.22701</ele>
        <time>2022-11-30T14:03:14.998Z</time>
      </trkpt>
      <trkpt lat="43.52992" lon="5.52619">
        <ele>330.96534</ele>
        <time>2022-11-30T14:03:18.998Z</time>
      </trkpt>
      <trkpt lat="43.52989" lon="5.52618">
        <ele>330.21841</ele>
        <time>2022-11-30T14:03:21.997Z</time>
      </trkpt>
      <trkpt lat="43.52979" lon="5.52615">
        <ele>327.56689</ele>
        <time>2022-11-30T14:03:30.997Z</time>
      </trkpt>
      <trkpt lat="43.52974" lon="5.52615">
        <ele>326.58381</ele>
        <time>2022-11-30T14:03:34.997Z</time>
      </trkpt>
      <trkpt lat="43.52971" lon="5.52614">
        <ele>326.31026</ele>
        <time>2022-11-30T14:03:37.997Z</time>
      </trkpt>
      <trkpt lat="43.52968" lon="5.52613">
        <ele>326.06288</ele>
        <time>2022-11-30T14:03:39.997Z</time>
      </trkpt>
      <trkpt lat="43.52964" lon="5.5261">
        <ele>325.58966</ele>
        <time>2022-11-30T14:03:45.996Z</time>
      </trkpt>
      <trkpt lat="43.52951" lon="5.52602">
        <ele>325.0102</ele>
        <time>2022-11-30T14:03:59.996Z</time>
      </trkpt>
      <trkpt lat="43.52946" lon="5.526">
        <ele>324.80223</ele>
        <time>2022-11-30T14:04:03.995Z</time>
      </trkpt>
      <trkpt lat="43.52942" lon="5.52597">
        <ele>324.59036</ele>
        <time>2022-11-30T14:04:07.995Z</time>
      </trkpt>
      <trkpt lat="43.52939" lon="5.52596">
        <ele>324.54906</ele>
        <time>2022-11-30T14:04:10.995Z</time>
      </trkpt>
      <trkpt lat="43.52934" lon="5.52595">
        <ele>324.45322</ele>
        <time>2022-11-30T14:04:15.995Z</time>
      </trkpt>
      <trkpt lat="43.52924" lon="5.52588">
        <ele>324.34352</ele>
        <time>2022-11-30T14:04:26.999Z</time>
      </trkpt>
      <trkpt lat="43.52923" lon="5.52583">
        <ele>324.3303</ele>
        <time>2022-11-30T14:04:28.999Z</time>
      </trkpt>
      <trkpt lat="43.5291" lon="5.52563">
        <ele>323.95606</ele>
        <time>2022-11-30T14:04:45.999Z</time>
      </trkpt>
      <trkpt lat="43.52907" lon="5.52558">
        <ele>323.82936</ele>
        <time>2022-11-30T14:04:50.999Z</time>
      </trkpt>
      <trkpt lat="43.52901" lon="5.52542">
        <ele>323.3718</ele>
        <time>2022-11-30T14:05:01.999Z</time>
      </trkpt>
      <trkpt lat="43.52896" lon="5.52532">
        <ele>322.83992</ele>
        <time>2022-11-30T14:05:08.998Z</time>
      </trkpt>
      <trkpt lat="43.52891" lon="5.52528">
        <ele>322.39502</ele>
        <time>2022-11-30T14:05:13.998Z</time>
      </trkpt>
      <trkpt lat="43.5289" lon="5.52524">
        <ele>322.19915</ele>
        <time>2022-11-30T14:05:15.998Z</time>
      </trkpt>
      <trkpt lat="43.52882" lon="5.52514">
        <ele>321.59327</ele>
        <time>2022-11-30T14:05:25.998Z</time>
      </trkpt>
      <trkpt lat="43.52877" lon="5.52504">
        <ele>321.48596</ele>
        <time>2022-11-30T14:05:33.997Z</time>
      </trkpt>
      <trkpt lat="43.52867" lon="5.52494">
        <ele>321.35865</ele>
        <time>2022-11-30T14:05:41.997Z</time>
      </trkpt>
      <trkpt lat="43.52862" lon="5.52489">
        <ele>321.29505</ele>
        <time>2022-11-30T14:05:46.997Z</time>
      </trkpt>
      <trkpt lat="43.52861" lon="5.52486">
        <ele>321.26214</ele>
        <time>2022-11-30T14:05:49.996Z</time>
      </trkpt>
      <trkpt lat="43.52852" lon="5.5248">
        <ele>321.13494</ele>
        <time>2022-11-30T14:05:57.996Z</time>
      </trkpt>
      <trkpt lat="43.52848" lon="5.52478">
        <ele>320.97481</ele>
        <time>2022-11-30T14:06:02.996Z</time>
      </trkpt>
      <trkpt lat="43.52843" lon="5.52474">
        <ele>320.70794</ele>
        <time>2022-11-30T14:06:07.996Z</time>
      </trkpt>
      <trkpt lat="43.52835" lon="5.52473">
        <ele>319.7291</ele>
        <time>2022-11-30T14:06:16.995Z</time>
      </trkpt>
      <trkpt lat="43.5283" lon="5.52468">
        <ele>318.82256</ele>
        <time>2022-11-30T14:06:22.995Z</time>
      </trkpt>
      <trkpt lat="43.52827" lon="5.52462">
        <ele>317.87368</ele>
        <time>2022-11-30T14:06:27.995Z</time>
      </trkpt>
      <trkpt lat="43.52823" lon="5.52459">
        <ele>316.8882</ele>
        <time>2022-11-30T14:06:33.999Z</time>
      </trkpt>
      <trkpt lat="43.52821" lon="5.52456">
        <ele>316.40251</ele>
        <time>2022-11-30T14:06:36.999Z</time>
      </trkpt>
      <trkpt lat="43.52814" lon="5.52451">
        <ele>315.11637</ele>
        <time>2022-11-30T14:06:45.999Z</time>
      </trkpt>
      <trkpt lat="43.52815" lon="5.52454">
        <ele>314.79094</ele>
        <time>2022-11-30T14:06:54.999Z</time>
      </trkpt>
      <trkpt lat="43.52813" lon="5.52458">
        <ele>314.52929</ele>
        <time>2022-11-30T14:06:59.999Z</time>
      </trkpt>
      <trkpt lat="43.52809" lon="5.52458">
        <ele>313.31946</ele>
        <time>2022-11-30T14:09:29.998Z</time>
      </trkpt>
      <trkpt lat="43.52807" lon="5.52456">
        <ele>313.19176</ele>
        <time>2022-11-30T14:09:32.998Z</time>
      </trkpt>
      <trkpt lat="43.528" lon="5.52444">
        <ele>312.35525</ele>
        <time>2022-11-30T14:09:43.998Z</time>
      </trkpt>
      <trkpt lat="43.52796" lon="5.52439">
        <ele>311.98048</ele>
        <time>2022-11-30T14:09:48.997Z</time>
      </trkpt>
      <trkpt lat="43.52795" lon="5.52436">
        <ele>311.80811</ele>
        <time>2022-11-30T14:09:51.997Z</time>
      </trkpt>
      <trkpt lat="43.52792" lon="5.5243">
        <ele>311.48627</ele>
        <time>2022-11-30T14:09:55.997Z</time>
      </trkpt>
      <trkpt lat="43.52788" lon="5.52425">
        <ele>311.17678</ele>
        <time>2022-11-30T14:09:59.997Z</time>
      </trkpt>
      <trkpt lat="43.52785" lon="5.52424">
        <ele>310.99831</ele>
        <time>2022-11-30T14:10:01.997Z</time>
      </trkpt>
      <trkpt lat="43.52779" lon="5.52417">
        <ele>310.1461</ele>
        <time>2022-11-30T14:10:10.997Z</time>
      </trkpt>
      <trkpt lat="43.52769" lon="5.52405">
        <ele>308.08295</ele>
        <time>2022-11-30T14:10:22.996Z</time>
      </trkpt>
      <trkpt lat="43.52765" lon="5.52399">
        <ele>307.15025</ele>
        <time>2022-11-30T14:10:27.996Z</time>
      </trkpt>
      <trkpt lat="43.52761" lon="5.52393">
        <ele>306.29021</ele>
        <time>2022-11-30T14:10:31.996Z</time>
      </trkpt>
      <trkpt lat="43.52753" lon="5.52384">
        <ele>304.87387</ele>
        <time>2022-11-30T14:10:44.000Z</time>
      </trkpt>
      <trkpt lat="43.52749" lon="5.52379">
        <ele>304.33948</ele>
        <time>2022-11-30T14:10:49.000Z</time>
      </trkpt>
      <trkpt lat="43.52739" lon="5.52371">
        <ele>303.31959</ele>
        <time>2022-11-30T14:10:58.000Z</time>
      </trkpt>
      <trkpt lat="43.52733" lon="5.5237">
        <ele>302.83122</ele>
        <time>2022-11-30T14:11:02.000Z</time>
      </trkpt>
      <trkpt lat="43.52727" lon="5.52367">
        <ele>302.24806</ele>
        <time>2022-11-30T14:11:06.000Z</time>
      </trkpt>
      <trkpt lat="43.52719" lon="5.52369">
        <ele>301.26217</ele>
        <time>2022-11-30T14:11:12.999Z</time>
      </trkpt>
      <trkpt lat="43.52716" lon="5.5237">
        <ele>300.94205</ele>
        <time>2022-11-30T14:11:14.999Z</time>
      </trkpt>
      <trkpt lat="43.52713" lon="5.5237">
        <ele>300.56426</ele>
        <time>2022-11-30T14:11:17.999Z</time>
      </trkpt>
      <trkpt lat="43.5271" lon="5.52372">
        <ele>300.07911</ele>
        <time>2022-11-30T14:11:20.999Z</time>
      </trkpt>
      <trkpt lat="43.52708" lon="5.52373">
        <ele>299.55186</ele>
        <time>2022-11-30T14:11:23.999Z</time>
      </trkpt>
      <trkpt lat="43.52705" lon="5.52376">
        <ele>299.04195</ele>
        <time>2022-11-30T14:11:26.999Z</time>
      </trkpt>
      <trkpt lat="43.52694" lon="5.52379">
        <ele>296.58481</ele>
        <time>2022-11-30T14:11:37.998Z</time>
      </trkpt>
      <trkpt lat="43.52689" lon="5.52378">
        <ele>295.50132</ele>
        <time>2022-11-30T14:11:42.998Z</time>
      </trkpt>
      <trkpt lat="43.52686" lon="5.52379">
        <ele>294.91821</ele>
        <time>2022-11-30T14:11:44.998Z</time>
      </trkpt>
      <trkpt lat="43.52674" lon="5.52378">
        <ele>292.92462</ele>
        <time>2022-11-30T14:11:54.998Z</time>
      </trkpt>
      <trkpt lat="43.52669" lon="5.52376">
        <ele>291.98601</ele>
        <time>2022-11-30T14:11:58.997Z</time>
      </trkpt>
      <trkpt lat="43.52665" lon="5.52375">
        <ele>291.59107</ele>
        <time>2022-11-30T14:12:01.997Z</time>
      </trkpt>
      <trkpt lat="43.52658" lon="5.52376">
        <ele>290.39522</ele>
        <time>2022-11-30T14:12:08.997Z</time>
      </trkpt>
      <trkpt lat="43.52656" lon="5.52374">
        <ele>289.96828</ele>
        <time>2022-11-30T14:12:10.997Z</time>
      </trkpt>
      <trkpt lat="43.52653" lon="5.52373">
        <ele>289.63434</ele>
        <time>2022-11-30T14:12:13.997Z</time>
      </trkpt>
      <trkpt lat="43.5265" lon="5.52375">
        <ele>289.37406</ele>
        <time>2022-11-30T14:12:15.997Z</time>
      </trkpt>
      <trkpt lat="43.52647" lon="5.52375">
        <ele>289.03541</ele>
        <time>2022-11-30T14:12:18.997Z</time>
      </trkpt>
      <trkpt lat="43.52645" lon="5.52372">
        <ele>288.64807</ele>
        <time>2022-11-30T14:12:22.996Z</time>
      </trkpt>
      <trkpt lat="43.52643" lon="5.5237">
        <ele>288.28703</ele>
        <time>2022-11-30T14:12:24.996Z</time>
      </trkpt>
      <trkpt lat="43.5264" lon="5.52372">
        <ele>287.95683</ele>
        <time>2022-11-30T14:12:28.996Z</time>
      </trkpt>
      <trkpt lat="43.52631" lon="5.52372">
        <ele>287.02673</ele>
        <time>2022-11-30T14:12:35.996Z</time>
      </trkpt>
      <trkpt lat="43.52625" lon="5.52374">
        <ele>286.44123</ele>
        <time>2022-11-30T14:12:40.996Z</time>
      </trkpt>
      <trkpt lat="43.52616" lon="5.52376">
        <ele>285.48465</ele>
        <time>2022-11-30T14:12:47.995Z</time>
      </trkpt>
      <trkpt lat="43.5261" lon="5.52379">
        <ele>284.87554</ele>
        <time>2022-11-30T14:12:52.000Z</time>
      </trkpt>
      <trkpt lat="43.52601" lon="5.5238">
        <ele>283.87745</ele>
        <time>2022-11-30T14:12:59.000Z</time>
      </trkpt>
      <trkpt lat="43.52596" lon="5.52383">
        <ele>283.17816</ele>
        <time>2022-11-30T14:13:04.000Z</time>
      </trkpt>
      <trkpt lat="43.52594" lon="5.52385">
        <ele>282.79569</ele>
        <time>2022-11-30T14:13:06.000Z</time>
      </trkpt>
      <trkpt lat="43.5259" lon="5.52386">
        <ele>282.43952</ele>
        <time>2022-11-30T14:13:09.000Z</time>
      </trkpt>
      <trkpt lat="43.52587" lon="5.52383">
        <ele>282.08966</ele>
        <time>2022-11-30T14:13:11.000Z</time>
      </trkpt>
      <trkpt lat="43.52584" lon="5.52383">
        <ele>281.75595</ele>
        <time>2022-11-30T14:13:14.000Z</time>
      </trkpt>
      <trkpt lat="43.52583" lon="5.52377">
        <ele>281.20267</ele>
        <time>2022-11-30T14:13:22.000Z</time>
      </trkpt>
      <trkpt lat="43.52581" lon="5.52369">
        <ele>280.63696</ele>
        <time>2022-11-30T14:13:28.999Z</time>
      </trkpt>
      <trkpt lat="43.52582" lon="5.52366">
        <ele>280.43305</ele>
        <time>2022-11-30T14:13:30.999Z</time>
      </trkpt>
      <trkpt lat="43.52583" lon="5.52362">
        <ele>280.28857</ele>
        <time>2022-11-30T14:13:33.999Z</time>
      </trkpt>
      <trkpt lat="43.52586" lon="5.52361">
        <ele>280.17207</ele>
        <time>2022-11-30T14:13:36.999Z</time>
      </trkpt>
      <trkpt lat="43.52593" lon="5.5235">
        <ele>280.019</ele>
        <time>2022-11-30T14:13:46.998Z</time>
      </trkpt>
      <trkpt lat="43.52595" lon="5.52347">
        <ele>280.03632</ele>
        <time>2022-11-30T14:13:48.998Z</time>
      </trkpt>
      <trkpt lat="43.52597" lon="5.52333">
        <ele>280.31681</ele>
        <time>2022-11-30T14:13:58.998Z</time>
      </trkpt>
      <trkpt lat="43.52602" lon="5.52322">
        <ele>280.59792</ele>
        <time>2022-11-30T14:14:05.998Z</time>
      </trkpt>
      <trkpt lat="43.52605" lon="5.52308">
        <ele>280.97865</ele>
        <time>2022-11-30T14:14:15.997Z</time>
      </trkpt>
      <trkpt lat="43.52604" lon="5.52304">
        <ele>281.10993</ele>
        <time>2022-11-30T14:14:18.997Z</time>
      </trkpt>
      <trkpt lat="43.52605" lon="5.523">
        <ele>281.2312</ele>
        <time>2022-11-30T14:14:21.997Z</time>
      </trkpt>
      <trkpt lat="43.52604" lon="5.52296">
        <ele>281.38152</ele>
        <time>2022-11-30T14:14:23.997Z</time>
      </trkpt>
      <trkpt lat="43.52606" lon="5.52285">
        <ele>281.83126</ele>
        <time>2022-11-30T14:14:31.996Z</time>
      </trkpt>
      <trkpt lat="43.52604" lon="5.52271">
        <ele>282.4853</ele>
        <time>2022-11-30T14:14:39.996Z</time>
      </trkpt>
      <trkpt lat="43.52603" lon="5.52267">
        <ele>282.65479</ele>
        <time>2022-11-30T14:14:42.996Z</time>
      </trkpt>
      <trkpt lat="43.52603" lon="5.52258">
        <ele>283.04219</ele>
        <time>2022-11-30T14:14:46.996Z</time>
      </trkpt>
      <trkpt lat="43.52602" lon="5.52254">
        <ele>283.2475</ele>
        <time>2022-11-30T14:14:48.996Z</time>
      </trkpt>
      <trkpt lat="43.52602" lon="5.52251">
        <ele>283.47669</ele>
        <time>2022-11-30T14:14:50.996Z</time>
      </trkpt>
      <trkpt lat="43.52597" lon="5.52236">
        <ele>284.32576</ele>
        <time>2022-11-30T14:14:58.001Z</time>
      </trkpt>
      <trkpt lat="43.52591" lon="5.52219">
        <ele>285.26965</ele>
        <time>2022-11-30T14:15:06.001Z</time>
      </trkpt>
      <trkpt lat="43.52585" lon="5.52211">
        <ele>286.15064</ele>
        <time>2022-11-30T14:15:17.000Z</time>
      </trkpt>
      <trkpt lat="43.52583" lon="5.52208">
        <ele>286.42854</ele>
        <time>2022-11-30T14:15:19.000Z</time>
      </trkpt>
      <trkpt lat="43.52581" lon="5.52188">
        <ele>287.73758</ele>
        <time>2022-11-30T14:15:29.000Z</time>
      </trkpt>
      <trkpt lat="43.52582" lon="5.52179">
        <ele>288.45256</ele>
        <time>2022-11-30T14:15:34.999Z</time>
      </trkpt>
      <trkpt lat="43.52583" lon="5.52171">
        <ele>289.02124</ele>
        <time>2022-11-30T14:15:39.999Z</time>
      </trkpt>
      <trkpt lat="43.52586" lon="5.52164">
        <ele>289.44788</ele>
        <time>2022-11-30T14:15:44.999Z</time>
      </trkpt>
      <trkpt lat="43.52589" lon="5.52143">
        <ele>290.56497</ele>
        <time>2022-11-30T14:15:58.998Z</time>
      </trkpt>
      <trkpt lat="43.52592" lon="5.52129">
        <ele>291.55289</ele>
        <time>2022-11-30T14:16:07.998Z</time>
      </trkpt>
      <trkpt lat="43.52592" lon="5.52124">
        <ele>291.76126</ele>
        <time>2022-11-30T14:16:10.998Z</time>
      </trkpt>
      <trkpt lat="43.52591" lon="5.52117">
        <ele>292.16506</ele>
        <time>2022-11-30T14:16:15.997Z</time>
      </trkpt>
      <trkpt lat="43.52592" lon="5.52111">
        <ele>292.49849</ele>
        <time>2022-11-30T14:16:19.997Z</time>
      </trkpt>
      <trkpt lat="43.52595" lon="5.52094">
        <ele>293.27202</ele>
        <time>2022-11-30T14:16:30.997Z</time>
      </trkpt>
      <trkpt lat="43.52598" lon="5.52088">
        <ele>293.60045</ele>
        <time>2022-11-30T14:16:34.997Z</time>
      </trkpt>
      <trkpt lat="43.526" lon="5.5208">
        <ele>293.92171</ele>
        <time>2022-11-30T14:16:38.996Z</time>
      </trkpt>
      <trkpt lat="43.52603" lon="5.52074">
        <ele>294.30539</ele>
        <time>2022-11-30T14:16:42.996Z</time>
      </trkpt>
      <trkpt lat="43.52605" lon="5.52063">
        <ele>294.85462</ele>
        <time>2022-11-30T14:16:48.996Z</time>
      </trkpt>
      <trkpt lat="43.52608" lon="5.52058">
        <ele>295.20165</ele>
        <time>2022-11-30T14:16:51.996Z</time>
      </trkpt>
      <trkpt lat="43.52609" lon="5.52055">
        <ele>295.35131</ele>
        <time>2022-11-30T14:16:53.996Z</time>
      </trkpt>
      <trkpt lat="43.52607" lon="5.52041">
        <ele>295.7043</ele>
        <time>2022-11-30T14:17:02.001Z</time>
      </trkpt>
      <trkpt lat="43.52608" lon="5.52037">
        <ele>295.7875</ele>
        <time>2022-11-30T14:17:05.001Z</time>
      </trkpt>
      <trkpt lat="43.52608" lon="5.5202">
        <ele>296.05294</ele>
        <time>2022-11-30T14:17:16.001Z</time>
      </trkpt>
      <trkpt lat="43.52607" lon="5.52012">
        <ele>296.1105</ele>
        <time>2022-11-30T14:17:20.001Z</time>
      </trkpt>
      <trkpt lat="43.526" lon="5.51995">
        <ele>296.32323</ele>
        <time>2022-11-30T14:17:32.000Z</time>
      </trkpt>
      <trkpt lat="43.52596" lon="5.51985">
        <ele>296.34908</ele>
        <time>2022-11-30T14:17:38.999Z</time>
      </trkpt>
      <trkpt lat="43.52593" lon="5.51974">
        <ele>296.22575</ele>
        <time>2022-11-30T14:17:47.999Z</time>
      </trkpt>
      <trkpt lat="43.52592" lon="5.51973">
        <ele>296.10725</ele>
        <time>2022-11-30T14:17:55.999Z</time>
      </trkpt>
      <trkpt lat="43.52588" lon="5.51975">
        <ele>296.06701</ele>
        <time>2022-11-30T14:18:02.998Z</time>
      </trkpt>
      <trkpt lat="43.52585" lon="5.51976">
        <ele>296.03944</ele>
        <time>2022-11-30T14:18:08.998Z</time>
      </trkpt>
      <trkpt lat="43.52581" lon="5.51979">
        <ele>296.01402</ele>
        <time>2022-11-30T14:18:23.997Z</time>
      </trkpt>
      <trkpt lat="43.52586" lon="5.51981">
        <ele>295.9625</ele>
        <time>2022-11-30T14:18:40.997Z</time>
      </trkpt>
      <trkpt lat="43.52586" lon="5.51977">
        <ele>295.93778</ele>
        <time>2022-11-30T14:18:42.997Z</time>
      </trkpt>
      <trkpt lat="43.52588" lon="5.51974">
        <ele>295.90006</ele>
        <time>2022-11-30T14:18:45.996Z</time>
      </trkpt>
      <trkpt lat="43.52587" lon="5.51977">
        <ele>295.70474</ele>
        <time>2022-11-30T14:19:42.000Z</time>
      </trkpt>
      <trkpt lat="43.52593" lon="5.51979">
        <ele>295.69414</ele>
        <time>2022-11-30T14:19:46.999Z</time>
      </trkpt>
      <trkpt lat="43.52589" lon="5.51981">
        <ele>295.67602</ele>
        <time>2022-11-30T14:20:06.998Z</time>
      </trkpt>
      <trkpt lat="43.52578" lon="5.51981">
        <ele>295.6732</ele>
        <time>2022-11-30T14:20:28.997Z</time>
      </trkpt>
      <trkpt lat="43.52583" lon="5.51972">
        <ele>295.61202</ele>
        <time>2022-11-30T14:21:06.996Z</time>
      </trkpt>
      <trkpt lat="43.52585" lon="5.51965">
        <ele>295.54158</ele>
        <time>2022-11-30T14:21:11.995Z</time>
      </trkpt>
      <trkpt lat="43.52588" lon="5.51964">
        <ele>295.5061</ele>
        <time>2022-11-30T14:21:14.001Z</time>
      </trkpt>
      <trkpt lat="43.52589" lon="5.5196">
        <ele>295.4528</ele>
        <time>2022-11-30T14:21:17.001Z</time>
      </trkpt>
      <trkpt lat="43.5259" lon="5.51957">
        <ele>295.3967</ele>
        <time>2022-11-30T14:21:20.001Z</time>
      </trkpt>
      <trkpt lat="43.5259" lon="5.51953">
        <ele>295.31754</ele>
        <time>2022-11-30T14:21:24.001Z</time>
      </trkpt>
      <trkpt lat="43.52592" lon="5.51948">
        <ele>295.21179</ele>
        <time>2022-11-30T14:21:26.001Z</time>
      </trkpt>
      <trkpt lat="43.52593" lon="5.51937">
        <ele>294.60708</ele>
        <time>2022-11-30T14:21:33.000Z</time>
      </trkpt>
      <trkpt lat="43.52589" lon="5.51925">
        <ele>293.74789</ele>
        <time>2022-11-30T14:21:41.000Z</time>
      </trkpt>
      <trkpt lat="43.52589" lon="5.51922">
        <ele>293.31745</ele>
        <time>2022-11-30T14:21:44.000Z</time>
      </trkpt>
      <trkpt lat="43.52586" lon="5.51916">
        <ele>292.12052</ele>
        <time>2022-11-30T14:21:48.999Z</time>
      </trkpt>
      <trkpt lat="43.52587" lon="5.51912">
        <ele>291.44556</ele>
        <time>2022-11-30T14:21:51.999Z</time>
      </trkpt>
      <trkpt lat="43.52586" lon="5.51909">
        <ele>290.68478</ele>
        <time>2022-11-30T14:21:53.999Z</time>
      </trkpt>
      <trkpt lat="43.52585" lon="5.519">
        <ele>289.09986</ele>
        <time>2022-11-30T14:21:57.999Z</time>
      </trkpt>
      <trkpt lat="43.52583" lon="5.51894">
        <ele>287.42666</ele>
        <time>2022-11-30T14:22:01.999Z</time>
      </trkpt>
      <trkpt lat="43.52581" lon="5.51881">
        <ele>284.63292</ele>
        <time>2022-11-30T14:22:09.998Z</time>
      </trkpt>
      <trkpt lat="43.52577" lon="5.51875">
        <ele>283.29173</ele>
        <time>2022-11-30T14:22:13.998Z</time>
      </trkpt>
      <trkpt lat="43.52575" lon="5.51872">
        <ele>282.67143</ele>
        <time>2022-11-30T14:22:15.998Z</time>
      </trkpt>
      <trkpt lat="43.52573" lon="5.51866">
        <ele>281.48676</ele>
        <time>2022-11-30T14:22:19.998Z</time>
      </trkpt>
      <trkpt lat="43.52572" lon="5.51862">
        <ele>280.84461</ele>
        <time>2022-11-30T14:22:22.998Z</time>
      </trkpt>
      <trkpt lat="43.52572" lon="5.51859">
        <ele>280.21574</ele>
        <time>2022-11-30T14:22:26.998Z</time>
      </trkpt>
      <trkpt lat="43.52571" lon="5.51856">
        <ele>279.63638</ele>
        <time>2022-11-30T14:22:28.997Z</time>
      </trkpt>
      <trkpt lat="43.52569" lon="5.51849">
        <ele>278.59554</ele>
        <time>2022-11-30T14:22:32.997Z</time>
      </trkpt>
      <trkpt lat="43.52569" lon="5.51845">
        <ele>278.05524</ele>
        <time>2022-11-30T14:22:34.997Z</time>
      </trkpt>
      <trkpt lat="43.52571" lon="5.51843">
        <ele>277.55908</ele>
        <time>2022-11-30T14:22:38.997Z</time>
      </trkpt>
      <trkpt lat="43.5257" lon="5.51839">
        <ele>276.97906</ele>
        <time>2022-11-30T14:22:41.997Z</time>
      </trkpt>
      <trkpt lat="43.52571" lon="5.5183">
        <ele>275.96187</ele>
        <time>2022-11-30T14:22:47.997Z</time>
      </trkpt>
      <trkpt lat="43.52572" lon="5.51827">
        <ele>275.08567</ele>
        <time>2022-11-30T14:22:51.996Z</time>
      </trkpt>
      <trkpt lat="43.52576" lon="5.51817">
        <ele>274.22941</ele>
        <time>2022-11-30T14:22:59.996Z</time>
      </trkpt>
      <trkpt lat="43.52577" lon="5.51808">
        <ele>273.67674</ele>
        <time>2022-11-30T14:23:05.996Z</time>
      </trkpt>
      <trkpt lat="43.52578" lon="5.51802">
        <ele>273.2005</ele>
        <time>2022-11-30T14:23:10.995Z</time>
      </trkpt>
      <trkpt lat="43.52578" lon="5.51799">
        <ele>272.92884</ele>
        <time>2022-11-30T14:23:12.995Z</time>
      </trkpt>
      <trkpt lat="43.5258" lon="5.51796">
        <ele>272.77343</ele>
        <time>2022-11-30T14:23:15.995Z</time>
      </trkpt>
      <trkpt lat="43.52581" lon="5.51784">
        <ele>272.24772</ele>
        <time>2022-11-30T14:23:24.000Z</time>
      </trkpt>
      <trkpt lat="43.52583" lon="5.51778">
        <ele>272.00543</ele>
        <time>2022-11-30T14:23:30.000Z</time>
      </trkpt>
      <trkpt lat="43.52584" lon="5.5177">
        <ele>271.64116</ele>
        <time>2022-11-30T14:23:36.000Z</time>
      </trkpt>
      <trkpt lat="43.52586" lon="5.51763">
        <ele>271.45954</ele>
        <time>2022-11-30T14:23:42.000Z</time>
      </trkpt>
      <trkpt lat="43.52586" lon="5.51755">
        <ele>271.31334</ele>
        <time>2022-11-30T14:23:46.000Z</time>
      </trkpt>
      <trkpt lat="43.52588" lon="5.51749">
        <ele>271.17453</ele>
        <time>2022-11-30T14:23:52.999Z</time>
      </trkpt>
      <trkpt lat="43.52589" lon="5.51744">
        <ele>271.07608</ele>
        <time>2022-11-30T14:23:55.999Z</time>
      </trkpt>
      <trkpt lat="43.52592" lon="5.51739">
        <ele>270.85062</ele>
        <time>2022-11-30T14:24:02.999Z</time>
      </trkpt>
      <trkpt lat="43.52593" lon="5.5173">
        <ele>270.46846</ele>
        <time>2022-11-30T14:24:08.999Z</time>
      </trkpt>
      <trkpt lat="43.52594" lon="5.51725">
        <ele>270.07808</ele>
        <time>2022-11-30T14:24:11.998Z</time>
      </trkpt>
      <trkpt lat="43.52597" lon="5.51717">
        <ele>269.56458</ele>
        <time>2022-11-30T14:24:15.998Z</time>
      </trkpt>
      <trkpt lat="43.52598" lon="5.51698">
        <ele>267.16986</ele>
        <time>2022-11-30T14:24:27.998Z</time>
      </trkpt>
      <trkpt lat="43.52599" lon="5.51684">
        <ele>265.26232</ele>
        <time>2022-11-30T14:24:36.997Z</time>
      </trkpt>
      <trkpt lat="43.52601" lon="5.51678">
        <ele>264.01636</ele>
        <time>2022-11-30T14:24:40.997Z</time>
      </trkpt>
      <trkpt lat="43.52604" lon="5.51675">
        <ele>263.35045</ele>
        <time>2022-11-30T14:24:42.997Z</time>
      </trkpt>
      <trkpt lat="43.52605" lon="5.51663">
        <ele>261.22203</ele>
        <time>2022-11-30T14:24:52.996Z</time>
      </trkpt>
      <trkpt lat="43.52606" lon="5.5166">
        <ele>260.45916</ele>
        <time>2022-11-30T14:24:56.996Z</time>
      </trkpt>
      <trkpt lat="43.52606" lon="5.51649">
        <ele>258.57511</ele>
        <time>2022-11-30T14:25:03.996Z</time>
      </trkpt>
      <trkpt lat="43.52608" lon="5.51643">
        <ele>257.60976</ele>
        <time>2022-11-30T14:25:07.996Z</time>
      </trkpt>
      <trkpt lat="43.52611" lon="5.51631">
        <ele>256.59874</ele>
        <time>2022-11-30T14:25:16.995Z</time>
      </trkpt>
      <trkpt lat="43.52611" lon="5.51622">
        <ele>255.90162</ele>
        <time>2022-11-30T14:25:21.995Z</time>
      </trkpt>
      <trkpt lat="43.52615" lon="5.5161">
        <ele>255.03678</ele>
        <time>2022-11-30T14:25:29.000Z</time>
      </trkpt>
      <trkpt lat="43.52617" lon="5.51605">
        <ele>254.22419</ele>
        <time>2022-11-30T14:25:33.000Z</time>
      </trkpt>
      <trkpt lat="43.5262" lon="5.51593">
        <ele>253.30231</ele>
        <time>2022-11-30T14:25:43.000Z</time>
      </trkpt>
      <trkpt lat="43.52622" lon="5.51573">
        <ele>251.42426</ele>
        <time>2022-11-30T14:25:53.999Z</time>
      </trkpt>
      <trkpt lat="43.52622" lon="5.5157">
        <ele>251.03636</ele>
        <time>2022-11-30T14:25:56.999Z</time>
      </trkpt>
      <trkpt lat="43.5262" lon="5.51565">
        <ele>250.54348</ele>
        <time>2022-11-30T14:25:59.999Z</time>
      </trkpt>
      <trkpt lat="43.52621" lon="5.51562">
        <ele>249.9732</ele>
        <time>2022-11-30T14:26:02.999Z</time>
      </trkpt>
      <trkpt lat="43.5262" lon="5.51554">
        <ele>248.84509</ele>
        <time>2022-11-30T14:26:07.999Z</time>
      </trkpt>
      <trkpt lat="43.5262" lon="5.51545">
        <ele>247.17566</ele>
        <time>2022-11-30T14:26:12.998Z</time>
      </trkpt>
      <trkpt lat="43.52621" lon="5.51533">
        <ele>245.53432</ele>
        <time>2022-11-30T14:26:20.998Z</time>
      </trkpt>
      <trkpt lat="43.52619" lon="5.51517">
        <ele>243.29636</ele>
        <time>2022-11-30T14:26:28.998Z</time>
      </trkpt>
      <trkpt lat="43.5262" lon="5.51502">
        <ele>241.4826</ele>
        <time>2022-11-30T14:26:38.997Z</time>
      </trkpt>
      <trkpt lat="43.52618" lon="5.51496">
        <ele>240.61121</ele>
        <time>2022-11-30T14:26:43.997Z</time>
      </trkpt>
      <trkpt lat="43.52617" lon="5.51487">
        <ele>239.71115</ele>
        <time>2022-11-30T14:26:48.997Z</time>
      </trkpt>
      <trkpt lat="43.52617" lon="5.5148">
        <ele>238.39075</ele>
        <time>2022-11-30T14:26:53.996Z</time>
      </trkpt>
      <trkpt lat="43.52618" lon="5.51475">
        <ele>237.90738</ele>
        <time>2022-11-30T14:26:56.996Z</time>
      </trkpt>
      <trkpt lat="43.52618" lon="5.51464">
        <ele>236.23655</ele>
        <time>2022-11-30T14:27:05.996Z</time>
      </trkpt>
      <trkpt lat="43.52617" lon="5.51461">
        <ele>235.67256</ele>
        <time>2022-11-30T14:27:08.996Z</time>
      </trkpt>
      <trkpt lat="43.52616" lon="5.51445">
        <ele>233.40729</ele>
        <time>2022-11-30T14:27:16.995Z</time>
      </trkpt>
      <trkpt lat="43.52616" lon="5.51432">
        <ele>231.24074</ele>
        <time>2022-11-30T14:27:26.995Z</time>
      </trkpt>
      <trkpt lat="43.52612" lon="5.51421">
        <ele>230.03027</ele>
        <time>2022-11-30T14:27:35.000Z</time>
      </trkpt>
      <trkpt lat="43.5261" lon="5.51414">
        <ele>229.34174</ele>
        <time>2022-11-30T14:27:39.000Z</time>
      </trkpt>
      <trkpt lat="43.52607" lon="5.51395">
        <ele>227.46424</ele>
        <time>2022-11-30T14:27:52.000Z</time>
      </trkpt>
      <trkpt lat="43.52607" lon="5.51391">
        <ele>227.05634</ele>
        <time>2022-11-30T14:27:53.999Z</time>
      </trkpt>
      <trkpt lat="43.52604" lon="5.51382">
        <ele>226.22139</ele>
        <time>2022-11-30T14:28:00.999Z</time>
      </trkpt>
      <trkpt lat="43.52598" lon="5.51377">
        <ele>225.31832</ele>
        <time>2022-11-30T14:28:04.999Z</time>
      </trkpt>
      <trkpt lat="43.52598" lon="5.51372">
        <ele>224.88261</ele>
        <time>2022-11-30T14:28:07.999Z</time>
      </trkpt>
      <trkpt lat="43.52593" lon="5.51362">
        <ele>223.29207</ele>
        <time>2022-11-30T14:28:15.998Z</time>
      </trkpt>
      <trkpt lat="43.52593" lon="5.51357">
        <ele>222.80464</ele>
        <time>2022-11-30T14:28:17.998Z</time>
      </trkpt>
      <trkpt lat="43.52594" lon="5.51353">
        <ele>222.29683</ele>
        <time>2022-11-30T14:28:20.998Z</time>
      </trkpt>
      <trkpt lat="43.52591" lon="5.51338">
        <ele>220.10415</ele>
        <time>2022-11-30T14:28:31.998Z</time>
      </trkpt>
      <trkpt lat="43.52586" lon="5.51323">
        <ele>217.96444</ele>
        <time>2022-11-30T14:28:40.997Z</time>
      </trkpt>
      <trkpt lat="43.52582" lon="5.51315">
        <ele>216.75434</ele>
        <time>2022-11-30T14:28:47.997Z</time>
      </trkpt>
      <trkpt lat="43.5258" lon="5.5131">
        <ele>215.69362</ele>
        <time>2022-11-30T14:28:51.997Z</time>
      </trkpt>
      <trkpt lat="43.5258" lon="5.51304">
        <ele>215.12791</ele>
        <time>2022-11-30T14:28:54.997Z</time>
      </trkpt>
      <trkpt lat="43.52576" lon="5.51287">
        <ele>213.17585</ele>
        <time>2022-11-30T14:29:04.996Z</time>
      </trkpt>
      <trkpt lat="43.52575" lon="5.51273">
        <ele>212.05323</ele>
        <time>2022-11-30T14:29:11.996Z</time>
      </trkpt>
      <trkpt lat="43.52575" lon="5.51254">
        <ele>210.63969</ele>
        <time>2022-11-30T14:29:25.995Z</time>
      </trkpt>
      <trkpt lat="43.52576" lon="5.51246">
        <ele>209.87878</ele>
        <time>2022-11-30T14:29:30.995Z</time>
      </trkpt>
      <trkpt lat="43.52575" lon="5.51228">
        <ele>208.57747</ele>
        <time>2022-11-30T14:29:38.999Z</time>
      </trkpt>
      <trkpt lat="43.52577" lon="5.51224">
        <ele>208.23398</ele>
        <time>2022-11-30T14:29:41.999Z</time>
      </trkpt>
      <trkpt lat="43.52577" lon="5.5122">
        <ele>207.88511</ele>
        <time>2022-11-30T14:29:44.999Z</time>
      </trkpt>
      <trkpt lat="43.52578" lon="5.51217">
        <ele>207.46917</ele>
        <time>2022-11-30T14:29:46.999Z</time>
      </trkpt>
      <trkpt lat="43.52577" lon="5.51214">
        <ele>207.10275</ele>
        <time>2022-11-30T14:29:49.999Z</time>
      </trkpt>
      <trkpt lat="43.52576" lon="5.51209">
        <ele>206.71244</ele>
        <time>2022-11-30T14:29:53.999Z</time>
      </trkpt>
      <trkpt lat="43.52575" lon="5.51204">
        <ele>206.36764</ele>
        <time>2022-11-30T14:29:56.999Z</time>
      </trkpt>
      <trkpt lat="43.52574" lon="5.51198">
        <ele>205.68591</ele>
        <time>2022-11-30T14:30:00.999Z</time>
      </trkpt>
      <trkpt lat="43.52572" lon="5.51184">
        <ele>204.35088</ele>
        <time>2022-11-30T14:30:09.999Z</time>
      </trkpt>
      <trkpt lat="43.52571" lon="5.5118">
        <ele>203.75338</ele>
        <time>2022-11-30T14:30:11.999Z</time>
      </trkpt>
      <trkpt lat="43.5257" lon="5.51176">
        <ele>203.48398</ele>
        <time>2022-11-30T14:30:13.999Z</time>
      </trkpt>
      <trkpt lat="43.5257" lon="5.51164">
        <ele>202.63802</ele>
        <time>2022-11-30T14:30:20.998Z</time>
      </trkpt>
      <trkpt lat="43.52566" lon="5.51153">
        <ele>201.70261</ele>
        <time>2022-11-30T14:30:26.998Z</time>
      </trkpt>
      <trkpt lat="43.52565" lon="5.51147">
        <ele>201.05182</ele>
        <time>2022-11-30T14:30:31.998Z</time>
      </trkpt>
      <trkpt lat="43.52563" lon="5.51137">
        <ele>200.0629</ele>
        <time>2022-11-30T14:30:38.997Z</time>
      </trkpt>
      <trkpt lat="43.52564" lon="5.51132">
        <ele>199.76937</ele>
        <time>2022-11-30T14:30:40.997Z</time>
      </trkpt>
      <trkpt lat="43.52562" lon="5.51122">
        <ele>199.11967</ele>
        <time>2022-11-30T14:30:44.997Z</time>
      </trkpt>
      <trkpt lat="43.52562" lon="5.51117">
        <ele>198.7142</ele>
        <time>2022-11-30T14:30:46.997Z</time>
      </trkpt>
      <trkpt lat="43.52559" lon="5.51109">
        <ele>197.2834</ele>
        <time>2022-11-30T14:30:51.997Z</time>
      </trkpt>
      <trkpt lat="43.52555" lon="5.511">
        <ele>195.59029</ele>
        <time>2022-11-30T14:30:58.996Z</time>
      </trkpt>
      <trkpt lat="43.52554" lon="5.51095">
        <ele>195.12032</ele>
        <time>2022-11-30T14:31:02.996Z</time>
      </trkpt>
      <trkpt lat="43.52552" lon="5.51093">
        <ele>194.5701</ele>
        <time>2022-11-30T14:31:04.996Z</time>
      </trkpt>
      <trkpt lat="43.52545" lon="5.5109">
        <ele>193.64273</ele>
        <time>2022-11-30T14:31:08.996Z</time>
      </trkpt>
      <trkpt lat="43.52543" lon="5.51088">
        <ele>193.23262</ele>
        <time>2022-11-30T14:31:10.996Z</time>
      </trkpt>
      <trkpt lat="43.52537" lon="5.51086">
        <ele>192.4368</ele>
        <time>2022-11-30T14:31:14.996Z</time>
      </trkpt>
      <trkpt lat="43.52536" lon="5.51084">
        <ele>192.09874</ele>
        <time>2022-11-30T14:31:20.995Z</time>
      </trkpt>
      <trkpt lat="43.52532" lon="5.51085">
        <ele>191.79856</ele>
        <time>2022-11-30T14:31:24.995Z</time>
      </trkpt>
      <trkpt lat="43.52529" lon="5.51084">
        <ele>191.48829</ele>
        <time>2022-11-30T14:31:27.995Z</time>
      </trkpt>
      <trkpt lat="43.52526" lon="5.51083">
        <ele>190.98381</ele>
        <time>2022-11-30T14:31:39.995Z</time>
      </trkpt>
      <trkpt lat="43.5253" lon="5.51083">
        <ele>189.78771</ele>
        <time>2022-11-30T14:32:18.999Z</time>
      </trkpt>
      <trkpt lat="43.52532" lon="5.51085">
        <ele>189.71156</ele>
        <time>2022-11-30T14:32:23.998Z</time>
      </trkpt>
      <trkpt lat="43.52534" lon="5.51088">
        <ele>189.65229</ele>
        <time>2022-11-30T14:32:26.998Z</time>
      </trkpt>
      <trkpt lat="43.52537" lon="5.51089">
        <ele>189.61854</ele>
        <time>2022-11-30T14:32:29.998Z</time>
      </trkpt>
      <trkpt lat="43.52541" lon="5.51089">
        <ele>189.59063</ele>
        <time>2022-11-30T14:32:43.998Z</time>
      </trkpt>
      <trkpt lat="43.52545" lon="5.51088">
        <ele>189.59919</ele>
        <time>2022-11-30T14:32:48.997Z</time>
      </trkpt>
      <trkpt lat="43.52548" lon="5.51087">
        <ele>189.62926</ele>
        <time>2022-11-30T14:32:50.997Z</time>
      </trkpt>
      <trkpt lat="43.52549" lon="5.51084">
        <ele>189.65128</ele>
        <time>2022-11-30T14:32:52.997Z</time>
      </trkpt>
      <trkpt lat="43.52551" lon="5.51082">
        <ele>189.67399</ele>
        <time>2022-11-30T14:32:54.997Z</time>
      </trkpt>
      <trkpt lat="43.52553" lon="5.51079">
        <ele>189.7014</ele>
        <time>2022-11-30T14:32:57.997Z</time>
      </trkpt>
      <trkpt lat="43.52554" lon="5.51076">
        <ele>189.73892</ele>
        <time>2022-11-30T14:33:00.997Z</time>
      </trkpt>
      <trkpt lat="43.52552" lon="5.51074">
        <ele>189.86552</ele>
        <time>2022-11-30T14:33:05.997Z</time>
      </trkpt>
      <trkpt lat="43.52549" lon="5.51075">
        <ele>189.92465</ele>
        <time>2022-11-30T14:33:07.996Z</time>
      </trkpt>
      <trkpt lat="43.52547" lon="5.51073">
        <ele>190.00092</ele>
        <time>2022-11-30T14:33:09.996Z</time>
      </trkpt>
      <trkpt lat="43.52544" lon="5.51071">
        <ele>190.05733</ele>
        <time>2022-11-30T14:33:11.996Z</time>
      </trkpt>
      <trkpt lat="43.52542" lon="5.51069">
        <ele>190.11048</ele>
        <time>2022-11-30T14:33:13.996Z</time>
      </trkpt>
      <trkpt lat="43.52534" lon="5.51066">
        <ele>190.29075</ele>
        <time>2022-11-30T14:33:19.996Z</time>
      </trkpt>
      <trkpt lat="43.52528" lon="5.51066">
        <ele>190.44448</ele>
        <time>2022-11-30T14:33:24.996Z</time>
      </trkpt>
      <trkpt lat="43.52526" lon="5.51068">
        <ele>190.52678</ele>
        <time>2022-11-30T14:33:25.996Z</time>
      </trkpt>
      <trkpt lat="43.52524" lon="5.51071">
        <ele>190.58833</ele>
        <time>2022-11-30T14:33:29.995Z</time>
      </trkpt>
      <trkpt lat="43.52527" lon="5.51073">
        <ele>190.65914</ele>
        <time>2022-11-30T14:33:36.995Z</time>
      </trkpt>
      <trkpt lat="43.52533" lon="5.51074">
        <ele>190.67615</ele>
        <time>2022-11-30T14:33:39.995Z</time>
      </trkpt>
      <trkpt lat="43.52536" lon="5.51074">
        <ele>190.68405</ele>
        <time>2022-11-30T14:33:43.995Z</time>
      </trkpt>
      <trkpt lat="43.5254" lon="5.51076">
        <ele>190.68925</ele>
        <time>2022-11-30T14:33:54.999Z</time>
      </trkpt>
      <trkpt lat="43.52548" lon="5.51078">
        <ele>190.68671</ele>
        <time>2022-11-30T14:34:03.999Z</time>
      </trkpt>
      <trkpt lat="43.52545" lon="5.51078">
        <ele>190.68786</ele>
        <time>2022-11-30T14:34:09.999Z</time>
      </trkpt>
      <trkpt lat="43.52542" lon="5.51078">
        <ele>190.68687</ele>
        <time>2022-11-30T14:34:16.999Z</time>
      </trkpt>
      <trkpt lat="43.52541" lon="5.51082">
        <ele>190.68571</ele>
        <time>2022-11-30T14:34:23.999Z</time>
      </trkpt>
      <trkpt lat="43.52538" lon="5.51079">
        <ele>190.62611</ele>
        <time>2022-11-30T14:34:41.998Z</time>
      </trkpt>
      <trkpt lat="43.5254" lon="5.51072">
        <ele>190.6185</ele>
        <time>2022-11-30T14:34:53.997Z</time>
      </trkpt>
      <trkpt lat="43.52537" lon="5.51071">
        <ele>190.59747</ele>
        <time>2022-11-30T14:34:59.997Z</time>
      </trkpt>
      <trkpt lat="43.52534" lon="5.51071">
        <ele>190.61687</ele>
        <time>2022-11-30T14:35:06.997Z</time>
      </trkpt>
      <trkpt lat="43.52532" lon="5.51069">
        <ele>190.64079</ele>
        <time>2022-11-30T14:35:13.997Z</time>
      </trkpt>
      <trkpt lat="43.5253" lon="5.51068">
        <ele>190.66606</ele>
        <time>2022-11-30T14:35:28.996Z</time>
      </trkpt>
      <trkpt lat="43.52534" lon="5.51066">
        <ele>190.76609</ele>
        <time>2022-11-30T14:37:06.997Z</time>
      </trkpt>
      <trkpt lat="43.52535" lon="5.51063">
        <ele>190.77409</ele>
        <time>2022-11-30T14:37:08.997Z</time>
      </trkpt>
      <trkpt lat="43.52536" lon="5.51067">
        <ele>190.86698</ele>
        <time>2022-11-30T14:37:32.996Z</time>
      </trkpt>
      <trkpt lat="43.52537" lon="5.5107">
        <ele>190.88278</ele>
        <time>2022-11-30T14:37:34.996Z</time>
      </trkpt>
      <trkpt lat="43.52538" lon="5.51073">
        <ele>190.89568</ele>
        <time>2022-11-30T14:37:37.996Z</time>
      </trkpt>
      <trkpt lat="43.52545" lon="5.51074">
        <ele>190.89925</ele>
        <time>2022-11-30T14:37:47.996Z</time>
      </trkpt>
      <trkpt lat="43.52547" lon="5.5107">
        <ele>190.89695</ele>
        <time>2022-11-30T14:37:50.995Z</time>
      </trkpt>
      <trkpt lat="43.52549" lon="5.51068">
        <ele>190.90177</ele>
        <time>2022-11-30T14:37:59.001Z</time>
      </trkpt>
      <trkpt lat="43.52552" lon="5.51071">
        <ele>190.90566</ele>
        <time>2022-11-30T14:38:01.001Z</time>
      </trkpt>
      <trkpt lat="43.52553" lon="5.51075">
        <ele>190.90925</ele>
        <time>2022-11-30T14:38:03.001Z</time>
      </trkpt>
      <trkpt lat="43.52553" lon="5.51079">
        <ele>190.91169</ele>
        <time>2022-11-30T14:38:05.001Z</time>
      </trkpt>
      <trkpt lat="43.52552" lon="5.51083">
        <ele>190.91598</ele>
        <time>2022-11-30T14:38:07.001Z</time>
      </trkpt>
      <trkpt lat="43.52549" lon="5.51085">
        <ele>190.91797</ele>
        <time>2022-11-30T14:38:10.001Z</time>
      </trkpt>
      <trkpt lat="43.52546" lon="5.51086">
        <ele>190.91763</ele>
        <time>2022-11-30T14:38:12.001Z</time>
      </trkpt>
      <trkpt lat="43.52545" lon="5.51089">
        <ele>190.91669</ele>
        <time>2022-11-30T14:38:14.000Z</time>
      </trkpt>
      <trkpt lat="43.52542" lon="5.51091">
        <ele>190.9115</ele>
        <time>2022-11-30T14:38:18.000Z</time>
      </trkpt>
      <trkpt lat="43.5254" lon="5.51092">
        <ele>190.90758</ele>
        <time>2022-11-30T14:38:20.000Z</time>
      </trkpt>
      <trkpt lat="43.5254" lon="5.51089">
        <ele>190.86904</ele>
        <time>2022-11-30T14:38:53.999Z</time>
      </trkpt>
      <trkpt lat="43.52541" lon="5.51086">
        <ele>190.85616</ele>
        <time>2022-11-30T14:38:55.999Z</time>
      </trkpt>
      <trkpt lat="43.52544" lon="5.51085">
        <ele>190.845</ele>
        <time>2022-11-30T14:38:58.998Z</time>
      </trkpt>
      <trkpt lat="43.52545" lon="5.51081">
        <ele>190.83329</ele>
        <time>2022-11-30T14:39:00.998Z</time>
      </trkpt>
      <trkpt lat="43.52548" lon="5.51081">
        <ele>190.82607</ele>
        <time>2022-11-30T14:39:02.998Z</time>
      </trkpt>
      <trkpt lat="43.52549" lon="5.51078">
        <ele>190.81876</ele>
        <time>2022-11-30T14:39:05.998Z</time>
      </trkpt>
      <trkpt lat="43.52551" lon="5.51076">
        <ele>190.81795</ele>
        <time>2022-11-30T14:39:08.998Z</time>
      </trkpt>
      <trkpt lat="43.52552" lon="5.51072">
        <ele>190.81191</ele>
        <time>2022-11-30T14:39:11.998Z</time>
      </trkpt>
      <trkpt lat="43.5255" lon="5.51069">
        <ele>190.80962</ele>
        <time>2022-11-30T14:39:18.998Z</time>
      </trkpt>
      <trkpt lat="43.52547" lon="5.5107">
        <ele>190.81375</ele>
        <time>2022-11-30T14:39:21.997Z</time>
      </trkpt>
      <trkpt lat="43.52545" lon="5.51068">
        <ele>190.81726</ele>
        <time>2022-11-30T14:39:23.997Z</time>
      </trkpt>
      <trkpt lat="43.52542" lon="5.51069">
        <ele>190.82151</ele>
        <time>2022-11-30T14:39:26.997Z</time>
      </trkpt>
      <trkpt lat="43.5254" lon="5.51066">
        <ele>190.83123</ele>
        <time>2022-11-30T14:39:30.997Z</time>
      </trkpt>
      <trkpt lat="43.52537" lon="5.51062">
        <ele>190.84907</ele>
        <time>2022-11-30T14:39:38.997Z</time>
      </trkpt>
      <trkpt lat="43.5254" lon="5.51052">
        <ele>190.94149</ele>
        <time>2022-11-30T14:39:57.996Z</time>
      </trkpt>
      <trkpt lat="43.52541" lon="5.51049">
        <ele>190.98916</ele>
        <time>2022-11-30T14:40:01.996Z</time>
      </trkpt>
      <trkpt lat="43.52542" lon="5.51043">
        <ele>191.222</ele>
        <time>2022-11-30T14:40:09.001Z</time>
      </trkpt>
      <trkpt lat="43.52541" lon="5.51039">
        <ele>191.8715</ele>
        <time>2022-11-30T14:40:15.001Z</time>
      </trkpt>
      <trkpt lat="43.5254" lon="5.51036">
        <ele>192.19505</ele>
        <time>2022-11-30T14:40:17.001Z</time>
      </trkpt>
      <trkpt lat="43.52539" lon="5.51032">
        <ele>192.72661</ele>
        <time>2022-11-30T14:40:23.000Z</time>
      </trkpt>
      <trkpt lat="43.52537" lon="5.51029">
        <ele>193.34728</ele>
        <time>2022-11-30T14:40:26.000Z</time>
      </trkpt>
      <trkpt lat="43.52535" lon="5.51026">
        <ele>194.13037</ele>
        <time>2022-11-30T14:40:31.000Z</time>
      </trkpt>
      <trkpt lat="43.52532" lon="5.51026">
        <ele>195.3122</ele>
        <time>2022-11-30T14:40:37.999Z</time>
      </trkpt>
      <trkpt lat="43.5253" lon="5.51028">
        <ele>196.57132</ele>
        <time>2022-11-30T14:40:40.999Z</time>
      </trkpt>
      <trkpt lat="43.52531" lon="5.51023">
        <ele>200.82</ele>
        <time>2022-11-30T14:41:09.998Z</time>
      </trkpt>
      <trkpt lat="43.5253" lon="5.51019">
        <ele>201.74847</ele>
        <time>2022-11-30T14:41:18.998Z</time>
      </trkpt>
      <trkpt lat="43.52528" lon="5.51017">
        <ele>202.72619</ele>
        <time>2022-11-30T14:41:25.997Z</time>
      </trkpt>
      <trkpt lat="43.52528" lon="5.51013">
        <ele>203.65197</ele>
        <time>2022-11-30T14:41:32.997Z</time>
      </trkpt>
      <trkpt lat="43.52529" lon="5.51009">
        <ele>204.50446</ele>
        <time>2022-11-30T14:41:37.997Z</time>
      </trkpt>
      <trkpt lat="43.52531" lon="5.51006">
        <ele>205.86413</ele>
        <time>2022-11-30T14:41:43.997Z</time>
      </trkpt>
      <trkpt lat="43.52528" lon="5.50998">
        <ele>207.75134</ele>
        <time>2022-11-30T14:41:59.996Z</time>
      </trkpt>
      <trkpt lat="43.52526" lon="5.50995">
        <ele>208.45924</ele>
        <time>2022-11-30T14:42:07.995Z</time>
      </trkpt>
      <trkpt lat="43.52527" lon="5.50992">
        <ele>209.23305</ele>
        <time>2022-11-30T14:42:23.001Z</time>
      </trkpt>
      <trkpt lat="43.52527" lon="5.50988">
        <ele>209.99572</ele>
        <time>2022-11-30T14:42:31.000Z</time>
      </trkpt>
      <trkpt lat="43.52525" lon="5.50986">
        <ele>210.73077</ele>
        <time>2022-11-30T14:42:34.000Z</time>
      </trkpt>
      <trkpt lat="43.52525" lon="5.50983">
        <ele>211.44089</ele>
        <time>2022-11-30T14:42:38.000Z</time>
      </trkpt>
      <trkpt lat="43.52525" lon="5.5098">
        <ele>212.08889</ele>
        <time>2022-11-30T14:42:41.000Z</time>
      </trkpt>
      <trkpt lat="43.52522" lon="5.50975">
        <ele>213.59991</ele>
        <time>2022-11-30T14:42:50.999Z</time>
      </trkpt>
      <trkpt lat="43.52522" lon="5.5097">
        <ele>214.39434</ele>
        <time>2022-11-30T14:43:09.998Z</time>
      </trkpt>
      <trkpt lat="43.52522" lon="5.50966">
        <ele>214.77592</ele>
        <time>2022-11-30T14:43:12.998Z</time>
      </trkpt>
      <trkpt lat="43.52521" lon="5.50963">
        <ele>215.22784</ele>
        <time>2022-11-30T14:43:16.998Z</time>
      </trkpt>
      <trkpt lat="43.5252" lon="5.5096">
        <ele>215.71235</ele>
        <time>2022-11-30T14:43:20.998Z</time>
      </trkpt>
      <trkpt lat="43.52517" lon="5.50955">
        <ele>216.54161</ele>
        <time>2022-11-30T14:43:25.998Z</time>
      </trkpt>
      <trkpt lat="43.52514" lon="5.50954">
        <ele>216.90458</ele>
        <time>2022-11-30T14:43:28.998Z</time>
      </trkpt>
      <trkpt lat="43.52512" lon="5.50953">
        <ele>217.15589</ele>
        <time>2022-11-30T14:43:31.997Z</time>
      </trkpt>
      <trkpt lat="43.52509" lon="5.50952">
        <ele>217.31915</ele>
        <time>2022-11-30T14:43:35.997Z</time>
      </trkpt>
      <trkpt lat="43.52509" lon="5.50948">
        <ele>217.43014</ele>
        <time>2022-11-30T14:43:41.997Z</time>
      </trkpt>
      <trkpt lat="43.52507" lon="5.50945">
        <ele>217.52726</ele>
        <time>2022-11-30T14:43:48.997Z</time>
      </trkpt>
      <trkpt lat="43.52506" lon="5.50942">
        <ele>217.61022</ele>
        <time>2022-11-30T14:43:53.996Z</time>
      </trkpt>
      <trkpt lat="43.52505" lon="5.50939">
        <ele>217.7356</ele>
        <time>2022-11-30T14:43:57.996Z</time>
      </trkpt>
      <trkpt lat="43.52503" lon="5.50939">
        <ele>217.83276</ele>
        <time>2022-11-30T14:43:58.996Z</time>
      </trkpt>
      <trkpt lat="43.52501" lon="5.50937">
        <ele>217.86646</ele>
        <time>2022-11-30T14:44:01.996Z</time>
      </trkpt>
      <trkpt lat="43.52497" lon="5.50935">
        <ele>217.8098</ele>
        <time>2022-11-30T14:44:04.996Z</time>
      </trkpt>
      <trkpt lat="43.52495" lon="5.50929">
        <ele>217.54177</ele>
        <time>2022-11-30T14:44:10.996Z</time>
      </trkpt>
      <trkpt lat="43.52492" lon="5.50925">
        <ele>217.19327</ele>
        <time>2022-11-30T14:44:17.001Z</time>
      </trkpt>
      <trkpt lat="43.52489" lon="5.50926">
        <ele>216.99214</ele>
        <time>2022-11-30T14:44:20.001Z</time>
      </trkpt>
      <trkpt lat="43.52487" lon="5.50926">
        <ele>216.72398</ele>
        <time>2022-11-30T14:44:25.001Z</time>
      </trkpt>
      <trkpt lat="43.5249" lon="5.50927">
        <ele>214.99686</ele>
        <time>2022-11-30T14:45:11.999Z</time>
      </trkpt>
      <trkpt lat="43.52492" lon="5.50925">
        <ele>214.80469</ele>
        <time>2022-11-30T14:45:15.998Z</time>
      </trkpt>
      <trkpt lat="43.52494" lon="5.50924">
        <ele>214.4797</ele>
        <time>2022-11-30T14:45:46.997Z</time>
      </trkpt>
      <trkpt lat="43.52496" lon="5.50921">
        <ele>214.46471</ele>
        <time>2022-11-30T14:45:52.997Z</time>
      </trkpt>
      <trkpt lat="43.52497" lon="5.50917">
        <ele>214.42121</ele>
        <time>2022-11-30T14:45:55.997Z</time>
      </trkpt>
      <trkpt lat="43.52497" lon="5.50913">
        <ele>214.37967</ele>
        <time>2022-11-30T14:46:01.996Z</time>
      </trkpt>
      <trkpt lat="43.52495" lon="5.5091">
        <ele>214.38044</ele>
        <time>2022-11-30T14:46:06.996Z</time>
      </trkpt>
      <trkpt lat="43.52497" lon="5.50906">
        <ele>214.41429</ele>
        <time>2022-11-30T14:46:10.996Z</time>
      </trkpt>
      <trkpt lat="43.52497" lon="5.50902">
        <ele>214.46094</ele>
        <time>2022-11-30T14:46:14.996Z</time>
      </trkpt>
      <trkpt lat="43.52496" lon="5.50898">
        <ele>214.66916</ele>
        <time>2022-11-30T14:46:18.995Z</time>
      </trkpt>
      <trkpt lat="43.52497" lon="5.50894">
        <ele>214.98743</ele>
        <time>2022-11-30T14:46:21.995Z</time>
      </trkpt>
      <trkpt lat="43.52495" lon="5.50882">
        <ele>216.29641</ele>
        <time>2022-11-30T14:46:31.000Z</time>
      </trkpt>
      <trkpt lat="43.52496" lon="5.50879">
        <ele>216.83377</ele>
        <time>2022-11-30T14:46:34.000Z</time>
      </trkpt>
      <trkpt lat="43.52495" lon="5.50876">
        <ele>217.431</ele>
        <time>2022-11-30T14:46:36.000Z</time>
      </trkpt>
      <trkpt lat="43.52495" lon="5.50873">
        <ele>217.9908</ele>
        <time>2022-11-30T14:46:39.000Z</time>
      </trkpt>
      <trkpt lat="43.52497" lon="5.50864">
        <ele>219.20085</ele>
        <time>2022-11-30T14:46:45.000Z</time>
      </trkpt>
      <trkpt lat="43.52498" lon="5.50861">
        <ele>219.91945</ele>
        <time>2022-11-30T14:46:47.000Z</time>
      </trkpt>
      <trkpt lat="43.52499" lon="5.50858">
        <ele>220.66792</ele>
        <time>2022-11-30T14:46:50.000Z</time>
      </trkpt>
      <trkpt lat="43.52499" lon="5.50851">
        <ele>222.46101</ele>
        <time>2022-11-30T14:46:55.000Z</time>
      </trkpt>
      <trkpt lat="43.52497" lon="5.50848">
        <ele>223.32955</ele>
        <time>2022-11-30T14:46:56.999Z</time>
      </trkpt>
      <trkpt lat="43.52497" lon="5.50843">
        <ele>224.15694</ele>
        <time>2022-11-30T14:46:58.999Z</time>
      </trkpt>
      <trkpt lat="43.52496" lon="5.50839">
        <ele>224.84535</ele>
        <time>2022-11-30T14:47:00.999Z</time>
      </trkpt>
      <trkpt lat="43.52493" lon="5.5083">
        <ele>226.41808</ele>
        <time>2022-11-30T14:47:06.999Z</time>
      </trkpt>
      <trkpt lat="43.52487" lon="5.5082">
        <ele>227.55057</ele>
        <time>2022-11-30T14:47:12.999Z</time>
      </trkpt>
      <trkpt lat="43.52483" lon="5.50816">
        <ele>227.46335</ele>
        <time>2022-11-30T14:47:18.998Z</time>
      </trkpt>
      <trkpt lat="43.52481" lon="5.50809">
        <ele>226.82168</ele>
        <time>2022-11-30T14:47:28.998Z</time>
      </trkpt>
      <trkpt lat="43.52479" lon="5.50812">
        <ele>226.40943</ele>
        <time>2022-11-30T14:47:35.998Z</time>
      </trkpt>
      <trkpt lat="43.52475" lon="5.5081">
        <ele>225.07664</ele>
        <time>2022-11-30T14:47:46.997Z</time>
      </trkpt>
      <trkpt lat="43.52474" lon="5.50806">
        <ele>224.21021</ele>
        <time>2022-11-30T14:47:49.997Z</time>
      </trkpt>
      <trkpt lat="43.52472" lon="5.50796">
        <ele>221.82648</ele>
        <time>2022-11-30T14:47:57.997Z</time>
      </trkpt>
      <trkpt lat="43.5247" lon="5.50782">
        <ele>219.1789</ele>
        <time>2022-11-30T14:48:07.996Z</time>
      </trkpt>
      <trkpt lat="43.5247" lon="5.50779">
        <ele>218.59836</ele>
        <time>2022-11-30T14:48:13.996Z</time>
      </trkpt>
      <trkpt lat="43.52475" lon="5.50768">
        <ele>217.53262</ele>
        <time>2022-11-30T14:48:23.995Z</time>
      </trkpt>
      <trkpt lat="43.52478" lon="5.50756">
        <ele>217.66538</ele>
        <time>2022-11-30T14:48:35.000Z</time>
      </trkpt>
      <trkpt lat="43.52479" lon="5.50753">
        <ele>217.85765</ele>
        <time>2022-11-30T14:48:38.000Z</time>
      </trkpt>
      <trkpt lat="43.52481" lon="5.50742">
        <ele>218.51623</ele>
        <time>2022-11-30T14:48:46.000Z</time>
      </trkpt>
      <trkpt lat="43.52482" lon="5.50738">
        <ele>218.85547</ele>
        <time>2022-11-30T14:48:49.000Z</time>
      </trkpt>
      <trkpt lat="43.52483" lon="5.50735">
        <ele>219.1753</ele>
        <time>2022-11-30T14:48:53.000Z</time>
      </trkpt>
      <trkpt lat="43.52482" lon="5.50725">
        <ele>220.00819</ele>
        <time>2022-11-30T14:49:00.999Z</time>
      </trkpt>
      <trkpt lat="43.52482" lon="5.50721">
        <ele>220.18752</ele>
        <time>2022-11-30T14:49:02.999Z</time>
      </trkpt>
      <trkpt lat="43.52481" lon="5.50718">
        <ele>220.36094</ele>
        <time>2022-11-30T14:49:05.999Z</time>
      </trkpt>
      <trkpt lat="43.52478" lon="5.50702">
        <ele>220.93068</ele>
        <time>2022-11-30T14:49:16.999Z</time>
      </trkpt>
      <trkpt lat="43.52473" lon="5.50696">
        <ele>221.15786</ele>
        <time>2022-11-30T14:49:18.998Z</time>
      </trkpt>
      <trkpt lat="43.52472" lon="5.50693">
        <ele>221.17574</ele>
        <time>2022-11-30T14:49:20.998Z</time>
      </trkpt>
      <trkpt lat="43.52471" lon="5.50689">
        <ele>221.13865</ele>
        <time>2022-11-30T14:49:25.998Z</time>
      </trkpt>
      <trkpt lat="43.52469" lon="5.50687">
        <ele>221.08147</ele>
        <time>2022-11-30T14:49:28.998Z</time>
      </trkpt>
      <trkpt lat="43.52461" lon="5.50681">
        <ele>220.82609</ele>
        <time>2022-11-30T14:49:36.998Z</time>
      </trkpt>
      <trkpt lat="43.52457" lon="5.50678">
        <ele>220.5063</ele>
        <time>2022-11-30T14:49:42.997Z</time>
      </trkpt>
      <trkpt lat="43.52454" lon="5.50678">
        <ele>220.25465</ele>
        <time>2022-11-30T14:49:46.997Z</time>
      </trkpt>
      <trkpt lat="43.52452" lon="5.50679">
        <ele>219.9811</ele>
        <time>2022-11-30T14:49:48.997Z</time>
      </trkpt>
      <trkpt lat="43.52449" lon="5.50678">
        <ele>219.63248</ele>
        <time>2022-11-30T14:49:51.997Z</time>
      </trkpt>
      <trkpt lat="43.52444" lon="5.50678">
        <ele>218.42884</ele>
        <time>2022-11-30T14:49:58.997Z</time>
      </trkpt>
      <trkpt lat="43.52438" lon="5.50675">
        <ele>216.67935</ele>
        <time>2022-11-30T14:50:04.996Z</time>
      </trkpt>
      <trkpt lat="43.52433" lon="5.50673">
        <ele>214.7311</ele>
        <time>2022-11-30T14:50:10.996Z</time>
      </trkpt>
      <trkpt lat="43.52428" lon="5.50669">
        <ele>212.65121</ele>
        <time>2022-11-30T14:50:15.996Z</time>
      </trkpt>
      <trkpt lat="43.52426" lon="5.50668">
        <ele>211.79339</ele>
        <time>2022-11-30T14:50:18.996Z</time>
      </trkpt>
      <trkpt lat="43.52423" lon="5.50666">
        <ele>210.99451</ele>
        <time>2022-11-30T14:50:21.996Z</time>
      </trkpt>
      <trkpt lat="43.52422" lon="5.50663">
        <ele>210.27123</ele>
        <time>2022-11-30T14:50:23.995Z</time>
      </trkpt>
      <trkpt lat="43.52417" lon="5.50658">
        <ele>209.12689</ele>
        <time>2022-11-30T14:50:29.995Z</time>
      </trkpt>
      <trkpt lat="43.52415" lon="5.50659">
        <ele>208.14607</ele>
        <time>2022-11-30T14:50:39.001Z</time>
      </trkpt>
      <trkpt lat="43.5241" lon="5.50653">
        <ele>206.86981</ele>
        <time>2022-11-30T14:50:48.001Z</time>
      </trkpt>
      <trkpt lat="43.52405" lon="5.50651">
        <ele>205.85037</ele>
        <time>2022-11-30T14:50:52.000Z</time>
      </trkpt>
      <trkpt lat="43.52401" lon="5.5065">
        <ele>205.05309</ele>
        <time>2022-11-30T14:50:58.000Z</time>
      </trkpt>
      <trkpt lat="43.524" lon="5.50644">
        <ele>204.1552</ele>
        <time>2022-11-30T14:51:07.999Z</time>
      </trkpt>
      <trkpt lat="43.52399" lon="5.5064">
        <ele>203.77252</ele>
        <time>2022-11-30T14:51:12.999Z</time>
      </trkpt>
      <trkpt lat="43.52387" lon="5.50651">
        <ele>202.91851</ele>
        <time>2022-11-30T14:52:04.997Z</time>
      </trkpt>
      <trkpt lat="43.52389" lon="5.50648">
        <ele>202.10872</ele>
        <time>2022-11-30T14:52:08.997Z</time>
      </trkpt>
      <trkpt lat="43.52389" lon="5.50643">
        <ele>201.49141</ele>
        <time>2022-11-30T14:52:10.996Z</time>
      </trkpt>
      <trkpt lat="43.52389" lon="5.50639">
        <ele>200.99092</ele>
        <time>2022-11-30T14:52:12.996Z</time>
      </trkpt>
      <trkpt lat="43.52388" lon="5.50639">
        <ele>200.24723</ele>
        <time>2022-11-30T14:52:43.001Z</time>
      </trkpt>
      <trkpt lat="43.52389" lon="5.50647">
        <ele>199.9305</ele>
        <time>2022-11-30T14:52:59.000Z</time>
      </trkpt>
      <trkpt lat="43.52388" lon="5.5065">
        <ele>199.67184</ele>
        <time>2022-11-30T14:53:06.000Z</time>
      </trkpt>
      <trkpt lat="43.52386" lon="5.50653">
        <ele>199.39805</ele>
        <time>2022-11-30T14:53:11.000Z</time>
      </trkpt>
      <trkpt lat="43.52385" lon="5.50656">
        <ele>199.13888</ele>
        <time>2022-11-30T14:53:14.999Z</time>
      </trkpt>
      <trkpt lat="43.52384" lon="5.50659">
        <ele>198.91963</ele>
        <time>2022-11-30T14:53:16.999Z</time>
      </trkpt>
      <trkpt lat="43.52383" lon="5.50662">
        <ele>198.69992</ele>
        <time>2022-11-30T14:53:19.999Z</time>
      </trkpt>
      <trkpt lat="43.52382" lon="5.50665">
        <ele>198.45802</ele>
        <time>2022-11-30T14:53:23.999Z</time>
      </trkpt>
      <trkpt lat="43.52379" lon="5.5067">
        <ele>197.77108</ele>
        <time>2022-11-30T14:53:29.999Z</time>
      </trkpt>
      <trkpt lat="43.52377" lon="5.50673">
        <ele>197.50902</ele>
        <time>2022-11-30T14:53:31.999Z</time>
      </trkpt>
      <trkpt lat="43.52384" lon="5.50674">
        <ele>197.29059</ele>
        <time>2022-11-30T14:54:04.997Z</time>
      </trkpt>
      <trkpt lat="43.52382" lon="5.50677">
        <ele>197.04932</ele>
        <time>2022-11-30T14:54:06.997Z</time>
      </trkpt>
      <trkpt lat="43.52377" lon="5.50679">
        <ele>196.56415</ele>
        <time>2022-11-30T14:54:10.997Z</time>
      </trkpt>
      <trkpt lat="43.52375" lon="5.50681">
        <ele>196.29258</ele>
        <time>2022-11-30T14:54:13.997Z</time>
      </trkpt>
      <trkpt lat="43.52372" lon="5.50681">
        <ele>196.02883</ele>
        <time>2022-11-30T14:54:16.996Z</time>
      </trkpt>
      <trkpt lat="43.5237" lon="5.50679">
        <ele>195.77452</ele>
        <time>2022-11-30T14:54:18.996Z</time>
      </trkpt>
      <trkpt lat="43.52365" lon="5.50678">
        <ele>195.29433</ele>
        <time>2022-11-30T14:54:23.996Z</time>
      </trkpt>
      <trkpt lat="43.52362" lon="5.50677">
        <ele>195.03106</ele>
        <time>2022-11-30T14:54:26.996Z</time>
      </trkpt>
      <trkpt lat="43.5236" lon="5.50676">
        <ele>194.72404</ele>
        <time>2022-11-30T14:54:30.996Z</time>
      </trkpt>
      <trkpt lat="43.52352" lon="5.5067">
        <ele>193.86936</ele>
        <time>2022-11-30T14:54:37.995Z</time>
      </trkpt>
      <trkpt lat="43.52349" lon="5.50669">
        <ele>193.5649</ele>
        <time>2022-11-30T14:54:41.995Z</time>
      </trkpt>
      <trkpt lat="43.52347" lon="5.50667">
        <ele>193.31235</ele>
        <time>2022-11-30T14:54:43.995Z</time>
      </trkpt>
      <trkpt lat="43.52344" lon="5.50665">
        <ele>193.03731</ele>
        <time>2022-11-30T14:54:45.995Z</time>
      </trkpt>
      <trkpt lat="43.52342" lon="5.50662">
        <ele>192.78269</ele>
        <time>2022-11-30T14:54:48.001Z</time>
      </trkpt>
      <trkpt lat="43.52339" lon="5.50661">
        <ele>192.5198</ele>
        <time>2022-11-30T14:54:51.001Z</time>
      </trkpt>
      <trkpt lat="43.52334" lon="5.50663">
        <ele>192.03706</ele>
        <time>2022-11-30T14:54:55.001Z</time>
      </trkpt>
      <trkpt lat="43.52333" lon="5.50659">
        <ele>191.80024</ele>
        <time>2022-11-30T14:54:58.001Z</time>
      </trkpt>
      <trkpt lat="43.52331" lon="5.50656">
        <ele>191.53043</ele>
        <time>2022-11-30T14:55:01.001Z</time>
      </trkpt>
      <trkpt lat="43.52326" lon="5.50651">
        <ele>191.18571</ele>
        <time>2022-11-30T14:55:06.000Z</time>
      </trkpt>
      <trkpt lat="43.52321" lon="5.50647">
        <ele>190.82432</ele>
        <time>2022-11-30T14:55:12.000Z</time>
      </trkpt>
      <trkpt lat="43.52318" lon="5.50646">
        <ele>190.66627</ele>
        <time>2022-11-30T14:55:16.000Z</time>
      </trkpt>
      <trkpt lat="43.52316" lon="5.50644">
        <ele>190.52326</ele>
        <time>2022-11-30T14:55:18.999Z</time>
      </trkpt>
      <trkpt lat="43.52309" lon="5.50641">
        <ele>190.29682</ele>
        <time>2022-11-30T14:55:23.999Z</time>
      </trkpt>
      <trkpt lat="43.52302" lon="5.50635">
        <ele>189.91918</ele>
        <time>2022-11-30T14:55:30.999Z</time>
      </trkpt>
      <trkpt lat="43.5229" lon="5.50627">
        <ele>189.30007</ele>
        <time>2022-11-30T14:55:41.998Z</time>
      </trkpt>
      <trkpt lat="43.52279" lon="5.5062">
        <ele>188.8348</ele>
        <time>2022-11-30T14:55:50.998Z</time>
      </trkpt>
      <trkpt lat="43.52277" lon="5.50618">
        <ele>188.73712</ele>
        <time>2022-11-30T14:55:53.998Z</time>
      </trkpt>
      <trkpt lat="43.52265" lon="5.50613">
        <ele>188.39348</ele>
        <time>2022-11-30T14:56:04.997Z</time>
      </trkpt>
      <trkpt lat="43.52254" lon="5.50607">
        <ele>188.04052</ele>
        <time>2022-11-30T14:56:16.997Z</time>
      </trkpt>
      <trkpt lat="43.52245" lon="5.50606">
        <ele>187.63218</ele>
        <time>2022-11-30T14:56:24.996Z</time>
      </trkpt>
      <trkpt lat="43.52242" lon="5.50608">
        <ele>187.46286</ele>
        <time>2022-11-30T14:56:27.996Z</time>
      </trkpt>
      <trkpt lat="43.52239" lon="5.50606">
        <ele>187.28475</ele>
        <time>2022-11-30T14:56:29.996Z</time>
      </trkpt>
      <trkpt lat="43.52228" lon="5.50606">
        <ele>186.49425</ele>
        <time>2022-11-30T14:56:38.995Z</time>
      </trkpt>
      <trkpt lat="43.52225" lon="5.50604">
        <ele>186.25179</ele>
        <time>2022-11-30T14:56:41.995Z</time>
      </trkpt>
      <trkpt lat="43.52218" lon="5.50608">
        <ele>185.70441</ele>
        <time>2022-11-30T14:56:48.995Z</time>
      </trkpt>
      <trkpt lat="43.52216" lon="5.5061">
        <ele>185.43344</ele>
        <time>2022-11-30T14:56:50.995Z</time>
      </trkpt>
      <trkpt lat="43.52213" lon="5.50611">
        <ele>185.16761</ele>
        <time>2022-11-30T14:56:58.000Z</time>
      </trkpt>
      <trkpt lat="43.52211" lon="5.50614">
        <ele>184.89709</ele>
        <time>2022-11-30T14:57:01.000Z</time>
      </trkpt>
      <trkpt lat="43.5221" lon="5.50617">
        <ele>184.66222</ele>
        <time>2022-11-30T14:57:04.000Z</time>
      </trkpt>
      <trkpt lat="43.5221" lon="5.5062">
        <ele>184.3958</ele>
        <time>2022-11-30T14:57:07.000Z</time>
      </trkpt>
      <trkpt lat="43.52209" lon="5.50624">
        <ele>184.18534</ele>
        <time>2022-11-30T14:57:10.000Z</time>
      </trkpt>
      <trkpt lat="43.5221" lon="5.50632">
        <ele>183.89259</ele>
        <time>2022-11-30T14:57:15.000Z</time>
      </trkpt>
      <trkpt lat="43.52209" lon="5.50639">
        <ele>183.53196</ele>
        <time>2022-11-30T14:57:19.000Z</time>
      </trkpt>
      <trkpt lat="43.5221" lon="5.50643">
        <ele>183.37844</ele>
        <time>2022-11-30T14:57:22.000Z</time>
      </trkpt>
      <trkpt lat="43.52208" lon="5.50649">
        <ele>183.07577</ele>
        <time>2022-11-30T14:57:25.999Z</time>
      </trkpt>
      <trkpt lat="43.52208" lon="5.50667">
        <ele>182.68726</ele>
        <time>2022-11-30T14:57:35.999Z</time>
      </trkpt>
      <trkpt lat="43.5221" lon="5.50686">
        <ele>182.44019</ele>
        <time>2022-11-30T14:57:45.998Z</time>
      </trkpt>
      <trkpt lat="43.52213" lon="5.50706">
        <ele>181.98975</ele>
        <time>2022-11-30T14:57:58.998Z</time>
      </trkpt>
      <trkpt lat="43.52215" lon="5.50711">
        <ele>181.94672</ele>
        <time>2022-11-30T14:58:01.998Z</time>
      </trkpt>
      <trkpt lat="43.52217" lon="5.50723">
        <ele>181.75256</ele>
        <time>2022-11-30T14:58:09.997Z</time>
      </trkpt>
      <trkpt lat="43.5222" lon="5.50733">
        <ele>181.62338</ele>
        <time>2022-11-30T14:58:16.997Z</time>
      </trkpt>
      <trkpt lat="43.52222" lon="5.50742">
        <ele>181.49438</ele>
        <time>2022-11-30T14:58:22.997Z</time>
      </trkpt>
      <trkpt lat="43.52222" lon="5.50746">
        <ele>181.45282</ele>
        <time>2022-11-30T14:58:24.996Z</time>
      </trkpt>
      <trkpt lat="43.52226" lon="5.50761">
        <ele>181.18811</ele>
        <time>2022-11-30T14:58:34.996Z</time>
      </trkpt>
      <trkpt lat="43.52231" lon="5.50778">
        <ele>180.86649</ele>
        <time>2022-11-30T14:58:44.995Z</time>
      </trkpt>
      <trkpt lat="43.52232" lon="5.50786">
        <ele>180.73662</ele>
        <time>2022-11-30T14:58:49.995Z</time>
      </trkpt>
      <trkpt lat="43.52235" lon="5.50793">
        <ele>180.60275</ele>
        <time>2022-11-30T14:58:54.995Z</time>
      </trkpt>
      <trkpt lat="43.52236" lon="5.50797">
        <ele>180.53374</ele>
        <time>2022-11-30T14:58:57.995Z</time>
      </trkpt>
      <trkpt lat="43.52242" lon="5.50812">
        <ele>180.30877</ele>
        <time>2022-11-30T14:59:08.000Z</time>
      </trkpt>
      <trkpt lat="43.52243" lon="5.50815">
        <ele>180.26177</ele>
        <time>2022-11-30T14:59:10.000Z</time>
      </trkpt>
      <trkpt lat="43.52244" lon="5.50819">
        <ele>180.21341</ele>
        <time>2022-11-30T14:59:12.000Z</time>
      </trkpt>
      <trkpt lat="43.52245" lon="5.50822">
        <ele>180.15748</ele>
        <time>2022-11-30T14:59:14.000Z</time>
      </trkpt>
      <trkpt lat="43.5225" lon="5.50836">
        <ele>179.97211</ele>
        <time>2022-11-30T14:59:23.000Z</time>
      </trkpt>
      <trkpt lat="43.52251" lon="5.50841">
        <ele>179.93923</ele>
        <time>2022-11-30T14:59:27.000Z</time>
      </trkpt>
      <trkpt lat="43.52251" lon="5.50848">
        <ele>179.87939</ele>
        <time>2022-11-30T14:59:30.999Z</time>
      </trkpt>
      <trkpt lat="43.52253" lon="5.5086">
        <ele>179.793</ele>
        <time>2022-11-30T14:59:37.999Z</time>
      </trkpt>
      <trkpt lat="43.52255" lon="5.50864">
        <ele>179.77292</ele>
        <time>2022-11-30T14:59:39.999Z</time>
      </trkpt>
      <trkpt lat="43.52254" lon="5.50867">
        <ele>179.74792</ele>
        <time>2022-11-30T14:59:41.999Z</time>
      </trkpt>
      <trkpt lat="43.52254" lon="5.50871">
        <ele>179.7386</ele>
        <time>2022-11-30T14:59:43.999Z</time>
      </trkpt>
      <trkpt lat="43.52256" lon="5.50876">
        <ele>179.72796</ele>
        <time>2022-11-30T14:59:45.999Z</time>
      </trkpt>
      <trkpt lat="43.52258" lon="5.50878">
        <ele>179.70571</ele>
        <time>2022-11-30T14:59:47.999Z</time>
      </trkpt>
      <trkpt lat="43.52262" lon="5.5089">
        <ele>179.68008</ele>
        <time>2022-11-30T14:59:54.998Z</time>
      </trkpt>
      <trkpt lat="43.52259" lon="5.50906">
        <ele>179.59706</ele>
        <time>2022-11-30T15:00:03.998Z</time>
      </trkpt>
      <trkpt lat="43.52259" lon="5.5091">
        <ele>179.58057</ele>
        <time>2022-11-30T15:00:06.998Z</time>
      </trkpt>
      <trkpt lat="43.52259" lon="5.50914">
        <ele>179.56697</ele>
        <time>2022-11-30T15:00:08.998Z</time>
      </trkpt>
      <trkpt lat="43.52259" lon="5.50922">
        <ele>179.54267</ele>
        <time>2022-11-30T15:00:12.997Z</time>
      </trkpt>
      <trkpt lat="43.52258" lon="5.50926">
        <ele>179.53417</ele>
        <time>2022-11-30T15:00:14.997Z</time>
      </trkpt>
      <trkpt lat="43.52257" lon="5.50937">
        <ele>179.48745</ele>
        <time>2022-11-30T15:00:21.997Z</time>
      </trkpt>
      <trkpt lat="43.52259" lon="5.50941">
        <ele>179.47223</ele>
        <time>2022-11-30T15:00:24.997Z</time>
      </trkpt>
      <trkpt lat="43.52258" lon="5.50944">
        <ele>179.46813</ele>
        <time>2022-11-30T15:00:26.997Z</time>
      </trkpt>
      <trkpt lat="43.52258" lon="5.5095">
        <ele>179.45829</ele>
        <time>2022-11-30T15:00:30.996Z</time>
      </trkpt>
      <trkpt lat="43.52258" lon="5.50953">
        <ele>179.4431</ele>
        <time>2022-11-30T15:00:33.996Z</time>
      </trkpt>
      <trkpt lat="43.52255" lon="5.50961">
        <ele>179.42119</ele>
        <time>2022-11-30T15:00:38.996Z</time>
      </trkpt>
      <trkpt lat="43.52254" lon="5.50964">
        <ele>179.40855</ele>
        <time>2022-11-30T15:00:40.996Z</time>
      </trkpt>
      <trkpt lat="43.52248" lon="5.5098">
        <ele>179.37423</ele>
        <time>2022-11-30T15:00:52.995Z</time>
      </trkpt>
      <trkpt lat="43.52247" lon="5.50983">
        <ele>179.36716</ele>
        <time>2022-11-30T15:00:55.995Z</time>
      </trkpt>
      <trkpt lat="43.52245" lon="5.50995">
        <ele>179.34656</ele>
        <time>2022-11-30T15:01:02.995Z</time>
      </trkpt>
      <trkpt lat="43.52243" lon="5.51002">
        <ele>179.33987</ele>
        <time>2022-11-30T15:01:08.000Z</time>
      </trkpt>
      <trkpt lat="43.52242" lon="5.51006">
        <ele>179.33589</ele>
        <time>2022-11-30T15:01:10.000Z</time>
      </trkpt>
      <trkpt lat="43.52239" lon="5.51021">
        <ele>179.31282</ele>
        <time>2022-11-30T15:01:20.000Z</time>
      </trkpt>
      <trkpt lat="43.52238" lon="5.51029">
        <ele>179.29706</ele>
        <time>2022-11-30T15:01:25.000Z</time>
      </trkpt>
      <trkpt lat="43.52236" lon="5.51033">
        <ele>179.29102</ele>
        <time>2022-11-30T15:01:29.000Z</time>
      </trkpt>
      <trkpt lat="43.52237" lon="5.51042">
        <ele>179.27161</ele>
        <time>2022-11-30T15:01:35.999Z</time>
      </trkpt>
      <trkpt lat="43.52237" lon="5.51047">
        <ele>179.26404</ele>
        <time>2022-11-30T15:01:38.999Z</time>
      </trkpt>
      <trkpt lat="43.52235" lon="5.51055">
        <ele>179.25573</ele>
        <time>2022-11-30T15:01:43.999Z</time>
      </trkpt>
      <trkpt lat="43.52234" lon="5.51058">
        <ele>179.2511</ele>
        <time>2022-11-30T15:01:46.999Z</time>
      </trkpt>
      <trkpt lat="43.52234" lon="5.51061">
        <ele>179.25051</ele>
        <time>2022-11-30T15:01:48.999Z</time>
      </trkpt>
      <trkpt lat="43.52228" lon="5.51074">
        <ele>179.24048</ele>
        <time>2022-11-30T15:01:57.998Z</time>
      </trkpt>
      <trkpt lat="43.52224" lon="5.51084">
        <ele>179.23582</ele>
        <time>2022-11-30T15:02:04.998Z</time>
      </trkpt>
      <trkpt lat="43.5222" lon="5.51094">
        <ele>179.23136</ele>
        <time>2022-11-30T15:02:11.998Z</time>
      </trkpt>
      <trkpt lat="43.52215" lon="5.51105">
        <ele>179.23846</ele>
        <time>2022-11-30T15:02:19.997Z</time>
      </trkpt>
      <trkpt lat="43.52214" lon="5.51112">
        <ele>179.24689</ele>
        <time>2022-11-30T15:02:23.997Z</time>
      </trkpt>
      <trkpt lat="43.52218" lon="5.51122">
        <ele>179.27452</ele>
        <time>2022-11-30T15:02:30.997Z</time>
      </trkpt>
      <trkpt lat="43.5222" lon="5.51125">
        <ele>179.28733</ele>
        <time>2022-11-30T15:02:33.996Z</time>
      </trkpt>
      <trkpt lat="43.52222" lon="5.51133">
        <ele>179.33356</ele>
        <time>2022-11-30T15:02:38.996Z</time>
      </trkpt>
      <trkpt lat="43.52226" lon="5.51139">
        <ele>179.3954</ele>
        <time>2022-11-30T15:02:43.996Z</time>
      </trkpt>
      <trkpt lat="43.52228" lon="5.51147">
        <ele>179.48496</ele>
        <time>2022-11-30T15:02:48.996Z</time>
      </trkpt>
      <trkpt lat="43.52226" lon="5.51152">
        <ele>179.5873</ele>
        <time>2022-11-30T15:02:53.995Z</time>
      </trkpt>
      <trkpt lat="43.52226" lon="5.5116">
        <ele>179.72018</ele>
        <time>2022-11-30T15:02:58.995Z</time>
      </trkpt>
      <trkpt lat="43.52227" lon="5.51164">
        <ele>179.81459</ele>
        <time>2022-11-30T15:03:00.995Z</time>
      </trkpt>
      <trkpt lat="43.52237" lon="5.51173">
        <ele>180.29066</ele>
        <time>2022-11-30T15:03:12.000Z</time>
      </trkpt>
      <trkpt lat="43.5225" lon="5.51182">
        <ele>181.01925</ele>
        <time>2022-11-30T15:03:24.000Z</time>
      </trkpt>
      <trkpt lat="43.52256" lon="5.51178">
        <ele>181.2124</ele>
        <time>2022-11-30T15:03:31.000Z</time>
      </trkpt>
      <trkpt lat="43.52259" lon="5.51177">
        <ele>181.28872</ele>
        <time>2022-11-30T15:03:36.000Z</time>
      </trkpt>
      <trkpt lat="43.52257" lon="5.51178">
        <ele>181.48406</ele>
        <time>2022-11-30T15:04:17.998Z</time>
      </trkpt>
      <trkpt lat="43.52255" lon="5.51181">
        <ele>181.63652</ele>
        <time>2022-11-30T15:05:11.995Z</time>
      </trkpt>
      <trkpt lat="43.52252" lon="5.51184">
        <ele>181.92063</ele>
        <time>2022-11-30T15:06:17.998Z</time>
      </trkpt>
    </trkseg>
  </trk>
</gpx>